[[{"header":{"parameterUnit":"m.s-1","parameterCategory":1,"la1":31.0,"la2":29.5877,"lo1":-88.7671,"lo2":-86.6584,"dy":0.0162,"dx":0.0185,"nx":115,"ny":88,"refTime":"2026-03-04T12:00:00:Z","depth":0,"parameterNumber":2,"parameterNumberName":"U-component_of_WINDS"},"data":[0.0,0.0,0.0,0.0,0.0,0.0,0.0,0.0,0.0,0.0,0.0,0.0,0.0,0.0,0.0,0.0,0.0,0.0,0.0,0.0,0.0,0.0,0.0,0.0,0.0,0.0,0.0,0.0,0.0,0.0,0.0,0.0,0.0,0.0,0.0,0.0,0.0,0.0,0.0,0.0,0.0,0.0,0.0,0.0,0.0,0.0,0.0,0.0,0.0,0.0,0.0,0.0,0.0,0.0,0.0,0.0,0.0,0.0,0.0,0.0,0.0,0.0,0.0,0.0,0.0,0.0,0.0,0.0,0.0,0.0,0.0,0.0,0.0,0.0,0.0,0.0,0.0,0.0,0.0,0.0,0.0,0.0,0.0,0.0,0.0,0.0,0.0,0.0,0.0,0.0,0.0,0.0,0.0,0.0,0.0,0.0,0.0,0.0,0.0,0.0,0.0,0.0,0.0,0.0,0.0,0.0,0.0,0.0,0.0,0.0,0.0,0.0,0.0,0.0,0.0,0.0,0.0,0.0,0.0,0.0,0.0,0.0,0.0,0.0,0.0,0.0,0.0,0.0,0.0,0.0,0.0,0.0,0.0,0.0,0.0,0.0,0.0,0.0,0.0,0.0,0.0,0.0,0.0,0.0,0.0,0.0,0.0,0.0,0.0,0.0,0.0,0.0,0.0,0.0,0.0,0.0,0.0,0.0,0.0,0.0,0.0,0.0,0.0,0.0,0.0,0.0,0.0,0.0,0.0,0.0,0.0,0.0,0.0,0.0,0.0,0.0,0.0,0.0,0.0,0.0,0.0,0.0,0.0,0.0,0.0,0.0,0.0,0.0,0.0,0.0,0.0,0.0,0.0,0.0,0.0,0.0,0.0,0.0,0.0,0.0,0.0,0.0,0.0,0.0,0.0,0.0,0.0,0.0,0.0,0.0,0.0,0.0,0.0,0.0,0.0,0.0,0.0,0.0,0.0,0.0,0.0,0.0,0.0,0.0,0.0,0.0,0.0,0.0,0.0,0.0,0.0,0.0,0.0,0.0,0.0,0.0,0.0,0.0,0.0,0.0,0.0,0.0,0.0,0.0,0.0,0.0,0.0,0.0,0.0,0.0,0.0,0.0,0.0,0.0,0.0,0.0,0.0,0.0,0.0,0.0,0.0,0.0,0.0,0.0,0.0,0.0,0.0,0.0,0.0,0.0,0.0,0.0,0.0,0.0,0.0,0.0,0.0,0.0,0.0,0.0,0.0,0.0,0.0,0.0,0.0,0.0,0.0,0.0,0.0,0.0,0.0,0.0,0.0,0.0,0.0,0.0,0.0,0.0,0.0,0.0,0.0,0.0,0.0,0.0,0.0,0.0,0.0,0.0,0.0,0.0,0.0,0.0,0.0,0.0,0.0,0.0,0.0,0.0,0.0,0.0,0.0,0.0,0.0,0.0,0.0,0.0,0.0,0.0,0.0,0.0,0.0,0.0,0.0,0.0,0.0,0.0,0.0,0.0,0.0,0.0,0.0,0.0,0.0,0.0,0.0,0.0,0.0,0.0,0.0,0.0,0.0,0.0,0.0,0.0,0.0,0.0,0.0,0.0,0.0,0.0,0.0,0.0,0.0,0.0,0.0,0.0,0.0,0.0,0.0,0.0,0.0,0.0,0.0,0.0,0.0,0.0,0.0,0.0,0.0,0.0,0.0,0.0,0.0,0.0,0.0,0.0,0.0,0.0,0.0,0.0,0.0,0.0,0.0,0.0,0.0,0.0,0.0,0.0,0.0,0.0,0.0,0.0,0.0,0.0,0.0,0.0,0.0,0.0,0.0,0.0,0.0,0.0,0.0,0.0,0.0,0.0,0.0,0.0,0.0,0.0,0.0,0.0,0.0,0.0,0.0,0.0,0.0,0.0,0.0,0.0,0.0,0.0,0.0,0.0,0.0,0.0,0.0,0.0,0.0,0.0,0.0,0.0,0.0,0.0,0.0,0.0,0.0,0.0,0.0,0.0,0.0,0.0,0.0,0.0,0.0,0.0,0.0,0.0,0.0,0.0,0.0,0.0,0.0,0.0,0.0,0.0,0.0,0.0,0.0,0.0,0.0,0.0,0.0,0.0,0.0,0.0,0.0,0.0,0.0,0.0,0.0,0.0,0.0,0.0,0.0,0.0,0.0,0.0,0.0,0.0,0.0,0.0,0.0,0.0,0.0,0.0,0.0,0.0,0.0,0.0,0.0,0.0,0.0,0.0,0.0,0.0,0.0,0.0,0.0,0.0,0.0,0.0,0.0,0.0,0.0,0.0,0.0,0.0,0.0,0.0,0.0,0.0,0.0,0.0,0.0,0.0,0.0,0.0,0.0,0.0,0.0,0.0,0.0,0.0,0.0,0.0,0.0,0.0,0.0,0.0,0.0,0.0,0.0,0.0,0.0,0.0,0.0,0.0,0.0,0.0,0.0,0.0,0.0,0.0,0.0,0.0,0.0,0.0,0.0,0.0,0.0,0.0,0.0,0.0,0.0,0.0,0.0,0.0,0.0,0.0,0.0,0.0,0.0,0.0,0.0,0.0,0.0,0.0,0.0,0.0,0.0,0.0,0.0,0.0,0.0,0.0,0.0,0.0,0.0,0.0,0.0,0.0,0.0,0.0,0.0,0.0,0.0,0.0,0.0,0.0,0.0,0.0,0.0,0.0,0.0,0.0,0.0,0.0,0.0,0.0,0.0,0.0,0.0,0.0,0.0,0.0,0.0,0.0,0.0,0.0,0.0,0.0,0.0,0.0,0.0,0.0,0.0,0.0,0.0,0.0,0.0,0.0,0.0,0.0,0.0,0.0,0.0,0.0,0.0,0.0,0.0,0.0,0.0,0.0,0.0,0.0,0.0,0.0,0.0,0.0,0.0,0.0,0.0,0.0,0.0,0.0,0.0,0.0,0.0,0.0,0.0,0.0,0.0,0.0,0.0,0.0,0.0,0.0,0.0,0.0,0.0,0.0,0.0,0.0,0.0,0.0,0.0,0.0,0.0,0.0,0.0,0.0,0.0,0.0,0.0,0.0,0.0,0.0,0.0,0.0,0.0,0.0,0.0,0.0,0.0,0.0,0.0,0.0,0.0,0.0,0.0,0.0,0.0,0.0,0.0,0.0,0.0,0.0,0.0,0.0,0.0,0.0,0.0,0.0,0.0,0.0,0.0,0.0,0.0,0.0,0.0,0.0,0.0,0.0,0.0,0.0,0.0,0.0,0.0,0.0,0.0,0.0,0.0,0.0,0.0,0.0,0.0,0.0,0.0,0.0,0.0,0.0,0.0,0.0,0.0,0.0,0.0,0.0,0.0,0.0,0.0,0.0,0.0,0.0,0.0,0.0,0.0,0.0,0.0,0.0,0.0,0.0,0.0,0.0,0.0,0.0,0.0,0.0,0.0,0.0,0.0,0.0,0.0,0.0,0.0,0.0,0.0,0.0,0.0,0.0,0.0,0.0,0.0,0.0,0.0,0.0,0.0,0.0,0.0,0.0,0.0,0.0,0.0,0.0,0.0,0.0,0.0,0.0,0.0,0.0,0.0,0.0,0.0,0.0,0.0,0.0,0.0,0.0,0.0,0.0,0.0,0.0,0.0,0.0,0.0,0.0,0.0,0.0,0.0,0.0,0.0,0.0,0.0,0.0,0.0,0.0,0.0,0.0,0.0,0.0,0.0,0.0,0.0,0.0,0.0,0.0,0.0,0.0,0.0,0.0,0.0,0.0,0.0,0.0,0.0,0.0,0.0,0.0,0.0,0.0,0.0,0.0,0.0,0.0,0.0,0.0,0.0,0.0,0.0,0.0,0.0,0.0,0.0,0.0,0.0,0.0,0.0,0.0,0.0,0.0,0.0,0.0,0.0,0.0,0.0,0.0,0.0,0.0,0.0,0.0,0.0,0.0,0.0,0.0,0.0,0.0,0.0,0.0,0.0,0.0,0.0,0.0,0.0,0.0,0.0,0.0,0.0,0.0,0.0,0.0,0.0,0.0,0.0,0.0,0.0,0.0,0.0,0.0,0.0,0.0,0.0,0.0,0.0,0.0,0.0,0.0,0.0,0.0,0.0,0.0,0.0,0.0,0.0,0.0,0.0,0.0,0.0,0.0,0.0,0.0,0.0,0.0,0.0,0.0,0.0,0.0,0.0,0.0,0.0,0.0,0.0,0.0,0.0,0.0,0.0,0.0,0.0,0.0,0.0,0.0,0.0,0.0,0.0,0.0,0.0,0.0,0.0,0.0,0.0,0.0,0.0,0.0,0.0,0.0,0.0,0.0,-1.2615,0.0,0.0,0.0,0.0,0.0,0.0,0.0,0.0,0.0,0.0,0.0,0.0,0.0,0.0,0.0,0.0,0.0,0.0,0.0,0.0,0.0,0.0,0.0,0.0,0.0,0.0,0.0,0.0,0.0,0.0,0.0,0.0,0.0,0.0,0.0,0.0,0.0,0.0,0.0,0.0,0.0,0.0,0.0,0.0,0.0,0.0,0.0,0.0,0.0,0.0,0.0,0.0,0.0,0.0,0.0,0.0,0.0,0.0,0.0,0.0,0.0,0.0,0.0,0.0,0.0,0.0,0.0,0.0,0.0,0.0,0.0,0.0,0.0,0.0,0.0,0.0,0.0,0.0,0.0,0.0,0.0,0.0,0.0,0.0,0.0,0.0,0.0,0.0,0.0,0.0,0.0,0.0,0.0,0.0,0.0,0.0,0.0,0.0,0.0,0.0,0.0,0.0,0.0,0.0,0.0,0.0,0.0,0.0,0.0,0.0,-1.3826,-1.3159,-1.2888,-1.234,-1.1493,0.0,0.0,0.0,0.0,0.0,0.0,0.0,0.0,0.0,0.0,0.0,0.0,0.0,0.0,0.0,0.0,0.0,0.0,0.0,0.0,0.0,0.0,0.0,0.0,0.0,0.0,0.0,0.0,0.0,0.0,0.0,0.0,0.0,0.0,0.0,0.0,0.0,0.0,0.0,0.0,0.0,0.0,0.0,0.0,0.0,0.0,0.0,0.0,0.0,0.0,0.0,0.0,0.0,0.0,0.0,0.0,0.0,0.0,0.0,0.0,0.0,0.0,0.0,0.0,0.0,0.0,0.0,0.0,0.0,0.0,0.0,0.0,0.0,0.0,0.0,0.0,0.0,0.0,0.0,0.0,0.0,0.0,0.0,0.0,0.0,0.0,0.0,0.0,0.0,0.0,0.0,0.0,0.0,0.0,0.0,0.0,0.0,0.0,0.0,0.0,0.0,0.0,0.0,0.0,0.0,0.0,0.0,0.0,0.0,0.0,0.0,0.0,-1.237,-1.1805,-1.0714,0.0,0.0,0.0,0.0,0.0,0.0,0.0,0.0,0.0,0.0,0.0,0.0,0.0,0.0,0.0,0.0,0.0,0.0,0.0,0.0,0.0,0.0,0.0,0.0,0.0,0.0,0.0,0.0,0.0,0.0,0.0,0.0,0.0,0.0,0.0,0.0,0.0,0.0,0.0,0.0,0.0,0.0,0.0,0.0,0.0,0.0,0.0,0.0,0.0,0.0,0.0,0.0,0.0,0.0,0.0,0.0,0.0,0.0,0.0,0.0,0.0,0.0,0.0,0.0,0.0,0.0,0.0,0.0,0.0,0.0,0.0,0.0,0.0,0.0,0.0,0.0,0.0,0.0,0.0,0.0,0.0,0.0,0.0,0.0,0.0,0.0,0.0,0.0,0.0,0.0,0.0,0.0,0.0,0.0,0.0,0.0,0.0,0.0,0.0,0.0,0.0,0.0,0.0,0.0,0.0,0.0,0.0,0.0,0.0,0.0,-1.1854,-1.2294,-1.1613,0.0,-1.136,0.0,0.0,0.0,0.0,0.0,0.0,0.0,0.0,0.0,0.0,0.0,0.0,0.0,0.0,0.0,0.0,0.0,0.0,0.0,0.0,0.0,0.0,0.0,0.0,0.0,0.0,0.0,0.0,0.0,0.0,0.0,0.0,0.0,0.0,0.0,0.0,0.0,0.0,0.0,0.0,0.0,0.0,0.0,0.0,0.0,0.0,0.0,0.0,0.0,0.0,0.0,0.0,0.0,0.0,0.0,0.0,0.0,0.0,0.0,0.0,0.0,0.0,0.0,0.0,0.0,0.0,0.0,0.0,0.0,0.0,0.0,0.0,0.0,0.0,0.0,0.0,0.0,0.0,0.0,0.0,0.0,0.0,0.0,0.0,0.0,0.0,0.0,0.0,0.0,0.0,0.0,0.0,0.0,0.0,0.0,0.0,0.0,0.0,0.0,0.0,0.0,0.0,0.0,0.0,0.0,0.0,0.0,0.0,0.0,0.0,-1.1902,-1.1611,-1.0859,-1.0696,0.0,0.0,0.0,0.0,0.0,0.0,0.0,0.0,0.0,0.0,0.0,0.0,0.0,0.0,0.0,0.0,0.0,0.0,0.0,0.0,0.0,0.0,0.0,0.0,0.0,0.0,0.0,0.0,0.0,0.0,0.0,0.0,0.0,0.0,0.0,0.0,0.0,0.0,0.0,0.0,0.0,0.0,0.0,0.0,0.0,0.0,0.0,0.0,0.0,0.0,0.0,0.0,0.0,0.0,0.0,0.0,0.0,0.0,0.0,0.0,0.0,0.0,0.0,0.0,0.0,0.0,0.0,0.0,0.0,0.0,0.0,0.0,0.0,0.0,0.0,0.0,0.0,0.0,0.0,0.0,0.0,0.0,0.0,0.0,0.0,0.0,0.0,0.0,0.0,0.0,0.0,0.0,0.0,0.0,0.0,0.0,0.0,0.0,0.0,0.0,0.0,0.0,0.0,0.0,0.0,0.0,0.0,0.0,0.0,0.0,-1.1648,0.0,-1.1103,-1.0588,-1.0463,-1.0785,0.0,0.0,0.0,0.0,0.0,0.0,0.0,0.0,0.0,0.0,0.0,0.0,0.0,0.0,0.0,0.0,0.0,0.0,0.0,0.0,0.0,0.0,0.0,0.0,0.0,0.0,0.0,0.0,0.0,0.0,0.0,0.0,0.0,0.0,0.0,0.0,0.0,0.0,0.0,0.0,0.0,0.0,0.0,0.0,0.0,0.0,0.0,0.0,0.0,0.0,0.0,0.0,0.0,0.0,0.0,0.0,0.0,0.0,0.0,0.0,0.0,0.0,0.0,0.0,0.0,0.0,0.0,0.0,0.0,0.0,0.0,0.0,0.0,0.0,0.0,0.0,0.0,0.0,0.0,0.0,0.0,0.0,0.0,0.0,0.0,0.0,0.0,0.0,0.0,0.0,0.0,0.0,0.0,0.0,0.0,0.0,0.0,0.0,0.0,0.0,0.0,0.0,0.0,0.0,0.0,0.0,0.0,0.0,0.0,-1.0483,-1.0436,-1.1096,-1.1086,-1.0741,0.0,0.0,0.0,0.0,0.0,0.0,0.0,0.0,0.0,0.0,0.0,0.0,0.0,0.0,0.0,0.0,0.0,0.0,0.0,0.0,0.0,0.0,0.0,0.0,0.0,0.0,0.0,0.0,0.0,0.0,0.0,0.0,0.0,0.0,0.0,0.0,0.0,0.0,0.0,0.0,0.0,0.0,0.0,0.0,0.0,0.0,0.0,0.0,0.0,0.0,0.0,0.0,0.0,0.0,0.0,0.0,0.0,0.0,0.0,0.0,0.0,0.0,0.0,0.0,0.0,0.0,0.0,0.0,0.0,0.0,0.0,0.0,0.0,0.0,0.0,0.0,0.0,0.0,0.0,0.0,0.0,0.0,0.0,0.0,0.0,0.0,0.0,0.0,0.0,0.0,0.0,0.0,0.0,0.0,0.0,0.0,0.0,0.0,0.0,0.0,0.0,0.0,0.0,0.0,0.0,0.0,0.0,0.0,0.0,-0.9664,-0.9872,-1.0599,-1.1773,-1.092,-1.0504,0.0,0.0,0.0,0.0,0.0,0.0,0.0,0.0,0.0,0.0,0.0,0.0,0.0,0.0,0.0,0.0,0.0,0.0,0.0,0.0,0.0,0.0,0.0,0.0,0.0,0.0,0.0,0.0,0.0,0.0,0.0,0.0,0.0,0.0,0.0,0.0,0.0,0.0,0.0,0.0,0.0,0.0,0.0,0.0,0.0,0.0,0.0,0.0,0.0,0.0,0.0,0.0,0.0,0.0,0.0,0.0,0.0,0.0,0.0,0.0,0.0,0.0,0.0,0.0,0.0,0.0,0.0,0.0,0.0,0.0,0.0,0.0,0.0,0.0,0.0,0.0,0.0,0.0,0.0,0.0,0.0,0.0,0.0,0.0,0.0,0.0,0.0,0.0,0.0,0.0,0.0,0.0,0.0,0.0,0.0,0.0,0.0,0.0,0.0,0.0,0.0,0.0,0.0,0.0,0.0,0.0,0.0,0.0,0.0,-0.962,0.0,-1.1123,0.0,-1.091,-1.0375,0.0,0.0,0.0,0.0,0.0,0.0,0.0,0.0,0.0,0.0,0.0,0.0,0.0,0.0,0.0,0.0,0.0,0.0,0.0,0.0,0.0,0.0,0.0,0.0,0.0,0.0,0.0,0.0,0.0,0.0,0.0,0.0,0.0,0.0,0.0,0.0,0.0,0.0,0.0,0.0,0.0,0.0,0.0,0.0,0.0,0.0,0.0,0.0,0.0,0.0,0.0,0.0,0.0,0.0,0.0,0.0,0.0,0.0,0.0,0.0,0.0,0.0,0.0,0.0,0.0,0.0,0.0,0.0,0.0,0.0,0.0,0.0,0.0,0.0,0.0,0.0,0.0,0.0,0.0,0.0,0.0,0.0,0.0,0.0,0.0,0.0,0.0,0.0,0.0,0.0,0.0,0.0,0.0,0.0,0.0,0.0,0.0,0.0,0.0,0.0,0.0,0.0,0.0,0.0,0.0,0.0,0.0,0.0,-0.9636,-1.1001,-1.1814,-1.184,-1.1154,-1.1079,-1.0392,0.0,0.0,0.0,0.0,0.0,0.0,0.0,0.0,0.0,0.0,0.0,0.0,0.0,0.0,0.0,0.0,0.0,0.0,0.0,0.0,0.0,0.0,0.0,0.0,0.0,0.0,0.0,0.0,0.0,0.0,0.0,0.0,0.0,0.0,0.0,0.0,0.0,0.0,0.0,0.0,0.0,0.0,0.0,0.0,0.0,0.0,0.0,0.0,0.0,0.0,0.0,0.0,0.0,0.0,0.0,0.0,0.0,0.0,0.0,0.0,0.0,0.0,0.0,0.0,0.0,0.0,0.0,0.0,0.0,0.0,0.0,0.0,0.0,0.0,0.0,0.0,0.0,0.0,0.0,0.0,0.0,0.0,0.0,0.0,0.0,0.0,0.0,0.0,0.0,0.0,0.0,0.0,0.0,0.0,0.0,0.0,0.0,0.0,0.0,0.0,0.0,0.0,0.0,0.0,0.0,0.0,0.0,0.0,0.0,-1.0345,-1.1092,-1.1623,-1.1874,-1.0889,-1.0383,0.0,0.0,0.0,0.0,0.0,0.0,0.0,0.0,0.0,0.0,0.0,0.0,0.0,0.0,0.0,0.0,0.0,0.0,0.0,0.0,0.0,0.0,0.0,0.0,0.0,0.0,0.0,0.0,0.0,0.0,0.0,0.0,0.0,0.0,0.0,0.0,0.0,0.0,0.0,0.0,0.0,0.0,0.0,0.0,0.0,0.0,0.0,0.0,0.0,0.0,0.0,0.0,0.0,0.0,0.0,0.0,0.0,0.0,0.0,0.0,0.0,0.0,0.0,0.0,0.0,0.0,0.0,0.0,0.0,0.0,0.0,0.0,0.0,0.0,0.0,0.0,0.0,0.0,0.0,0.0,0.0,0.0,0.0,0.0,0.0,0.0,0.0,0.0,0.0,0.0,0.0,0.0,0.0,0.0,0.0,0.0,0.0,0.0,0.0,0.0,0.0,0.0,0.0,0.0,0.0,0.0,0.0,0.0,0.0,-1.0713,-1.1489,-1.2014,-1.2233,-1.127,-1.074,-1.0643,0.0,0.0,0.0,0.0,0.0,0.0,0.0,0.0,0.0,0.0,0.0,0.0,0.0,0.0,0.0,0.0,0.0,0.0,0.0,0.0,0.0,0.0,0.0,0.0,0.0,0.0,0.0,0.0,0.0,0.0,0.0,0.0,0.0,0.0,0.0,0.0,0.0,0.0,0.0,0.0,0.0,0.0,0.0,0.0,0.0,0.0,0.0,0.0,0.0,0.0,0.0,0.0,0.0,0.0,0.0,0.0,0.0,0.0,0.0,0.0,0.0,0.0,0.0,0.0,0.0,0.0,0.0,0.0,0.0,0.0,0.0,0.0,0.0,0.0,0.0,0.0,0.0,0.0,0.0,0.0,0.0,0.0,0.0,0.0,0.0,0.0,0.0,0.0,0.0,0.0,0.0,0.0,0.0,0.0,0.0,0.0,0.0,0.0,0.0,0.0,0.0,0.0,0.0,0.0,0.0,0.0,0.0,0.0,-1.1867,-1.279,-1.2908,-1.2189,-1.2113,-1.1419,0.0,0.0,0.0,0.0,0.0,0.0,0.0,0.0,0.0,0.0,0.0,0.0,0.0,0.0,0.0,0.0,0.0,0.0,0.0,0.0,0.0,0.0,0.0,0.0,0.0,0.0,0.0,0.0,0.0,0.0,0.0,0.0,0.0,0.0,0.0,0.0,0.0,0.0,0.0,0.0,0.0,0.0,0.0,0.0,0.0,0.0,0.0,0.0,0.0,0.0,0.0,0.0,0.0,0.0,0.0,0.0,0.0,0.0,0.0,0.0,0.0,0.0,0.0,0.0,0.0,0.0,0.0,0.0,0.0,0.0,0.0,0.0,0.0,0.0,0.0,0.0,0.0,0.0,0.0,0.0,0.0,0.0,0.0,0.0,0.0,0.0,0.0,0.0,0.0,0.0,0.0,0.0,0.0,0.0,0.0,0.0,0.0,0.0,0.0,0.0,0.0,0.0,0.0,0.0,0.0,0.0,0.0,0.0,0.0,-1.2804,-1.2907,-1.2935,-1.2908,-1.2348,-1.1623,0.0,0.0,0.0,0.0,0.0,0.0,0.0,0.0,0.0,0.0,0.0,0.0,0.0,0.0,0.0,0.0,0.0,0.0,0.0,0.0,0.0,0.0,0.0,0.0,0.0,0.0,0.0,0.0,0.0,0.0,0.0,0.0,0.0,0.0,0.0,0.0,0.0,0.0,0.0,0.0,0.0,0.0,0.0,0.0,0.0,0.0,0.0,0.0,0.0,0.0,0.0,0.0,0.0,0.0,0.0,0.0,0.0,0.0,0.0,0.0,0.0,0.0,0.0,0.0,0.0,0.0,0.0,0.0,0.0,0.0,0.0,0.0,0.0,0.0,0.0,0.0,0.0,0.0,0.0,0.0,0.0,0.0,0.0,0.0,0.0,0.0,0.0,0.0,0.0,0.0,0.0,0.0,0.0,0.0,0.0,0.0,0.0,0.0,0.0,0.0,0.0,0.0,0.0,0.0,0.0,0.0,0.0,0.0,-1.2142,-1.2738,-1.2588,-1.2639,-1.29,-1.272,-1.2131,0.0,0.0,0.0,0.0,0.0,0.0,0.0,0.0,0.0,0.0,0.0,0.0,0.0,0.0,0.0,0.0,0.0,0.0,0.0,0.0,0.0,0.0,0.0,0.0,0.0,0.0,0.0,0.0,0.0,0.0,0.0,0.0,0.0,0.0,0.0,0.0,0.0,0.0,0.0,0.0,0.0,0.0,0.0,0.0,0.0,0.0,0.0,0.0,0.0,0.0,0.0,0.0,0.0,0.0,0.0,0.0,0.0,0.0,0.0,0.0,0.0,0.0,0.0,0.0,0.0,0.0,0.0,0.0,0.0,0.0,0.0,0.0,0.0,0.0,0.0,0.0,0.0,0.0,0.0,0.0,0.0,0.0,0.0,0.0,0.0,0.0,0.0,0.0,0.0,0.0,0.0,0.0,0.0,0.0,0.0,0.0,0.0,0.0,0.0,0.0,0.0,0.0,0.0,0.0,0.0,0.0,0.0,0.0,-1.1797,-1.2143,-1.2118,-1.2205,-1.2457,-1.3063,-1.2785,0.0,0.0,0.0,0.0,0.0,0.0,0.0,0.0,0.0,0.0,0.0,0.0,0.0,0.0,0.0,0.0,0.0,0.0,0.0,0.0,0.0,0.0,0.0,0.0,0.0,0.0,0.0,0.0,0.0,0.0,0.0,0.0,0.0,0.0,0.0,0.0,0.0,0.0,0.0,0.0,0.0,0.0,0.0,0.0,0.0,0.0,0.0,0.0,0.0,0.0,0.0,0.0,0.0,0.0,0.0,0.0,0.0,0.0,0.0,0.0,0.0,0.0,0.0,0.0,0.0,0.0,0.0,0.0,0.0,0.0,0.0,0.0,0.0,0.0,0.0,0.0,0.0,0.0,0.0,0.0,0.0,0.0,0.0,0.0,0.0,0.0,0.0,0.0,0.0,0.0,0.0,0.0,0.0,0.0,0.0,0.0,0.0,0.0,0.0,0.0,0.0,0.0,0.0,0.0,0.0,0.0,0.0,0.0,-1.2344,-1.2412,-1.221,-1.2128,-1.219,-1.2994,-1.2775,0.0,0.0,0.0,0.0,0.0,0.0,0.0,0.0,0.0,0.0,0.0,0.0,0.0,0.0,0.0,0.0,0.0,0.0,0.0,0.0,0.0,0.0,0.0,0.0,0.0,0.0,0.0,0.0,0.0,0.0,0.0,0.0,0.0,0.0,0.0,0.0,0.0,0.0,0.0,0.0,0.0,0.0,0.0,0.0,0.0,0.0,0.0,0.0,-0.5049,0.0,0.0,0.0,0.0,0.0,0.0,0.0,0.0,0.0,0.0,0.0,0.0,0.0,0.0,0.0,0.0,0.0,0.0,0.0,0.0,0.0,0.0,0.0,0.0,0.0,0.0,0.0,0.0,0.0,0.0,0.0,0.0,0.0,0.0,0.0,0.0,0.0,0.0,0.0,0.0,0.0,0.0,0.0,0.0,0.0,0.0,0.0,0.0,0.0,0.0,0.0,0.0,0.0,0.0,0.0,0.0,0.0,0.0,0.0,-1.2609,-1.2185,-1.2034,-1.1961,-1.1965,-1.2709,-1.2645,0.0,0.0,0.0,0.0,0.0,0.0,0.0,0.0,0.0,0.0,0.0,0.0,0.0,0.0,0.0,0.0,0.0,0.0,0.0,0.0,0.0,0.0,0.0,0.0,0.0,0.0,0.0,0.0,0.0,0.0,0.0,0.0,0.0,0.0,0.0,0.0,0.0,0.0,0.0,0.0,0.0,0.0,0.0,0.0,0.0,0.0,0.0,0.0,0.0,0.0,0.0,0.0,0.0,0.0,0.0,0.0,0.0,0.0,0.0,0.0,0.0,0.0,0.0,0.0,0.0,0.0,0.0,0.0,0.0,0.0,0.0,0.0,0.0,0.0,0.0,0.0,0.0,0.0,0.0,0.0,0.0,0.0,0.0,0.0,0.0,0.0,0.0,0.0,0.0,0.0,0.0,0.0,0.0,0.0,0.0,0.0,0.0,0.0,0.0,0.0,0.0,0.0,0.0,0.0,0.0,0.0,0.0,-1.2112,-1.2604,-1.1841,-1.1816,-1.1816,-1.1805,-1.234,-1.2396,-1.182,0.0,0.0,0.0,0.0,0.0,0.0,0.0,0.0,0.0,0.0,0.0,0.0,0.0,0.0,0.0,0.0,0.0,0.0,0.0,0.0,0.0,0.0,0.0,0.0,0.0,0.0,0.0,0.0,0.0,0.0,0.0,0.0,0.0,0.0,0.0,0.0,0.0,0.0,-0.5544,-0.7271,0.0,0.0,0.0,0.0,0.0,0.0,0.0,0.0,-0.643,0.0,0.0,0.0,0.0,0.0,0.0,0.0,0.0,0.0,0.0,0.0,0.0,0.0,0.0,0.0,0.0,0.0,0.0,0.0,0.0,0.0,0.0,0.0,0.0,0.0,0.0,0.0,0.0,0.0,0.0,0.0,0.0,0.0,0.0,0.0,0.0,0.0,0.0,0.0,0.0,0.0,0.0,0.0,0.0,0.0,0.0,0.0,0.0,0.0,0.0,0.0,0.0,0.0,0.0,0.0,0.0,-1.1518,-1.1859,-1.1953,-1.1816,-1.1816,-1.1816,-1.1805,-1.191,-1.192,-1.1764,0.0,0.0,0.0,0.0,0.0,0.0,0.0,0.0,0.0,0.0,0.0,0.0,0.0,0.0,0.0,0.0,0.0,0.0,0.0,0.0,0.0,0.0,0.0,0.0,0.0,0.0,0.0,0.0,0.0,0.0,0.0,0.0,0.0,0.0,0.0,0.0,0.0,0.0,0.0,-0.8438,-0.9514,0.0,0.0,0.0,0.0,0.0,0.0,0.0,0.0,-0.6191,0.0,0.0,0.0,0.0,0.0,0.0,0.0,0.0,0.0,0.0,0.0,0.0,0.0,0.0,0.0,0.0,0.0,0.0,0.0,0.0,0.0,0.0,0.0,0.0,0.0,0.0,0.0,0.0,0.0,0.0,0.0,0.0,0.0,0.0,0.0,0.0,0.0,0.0,0.0,0.0,0.0,0.0,0.0,0.0,0.0,0.0,0.0,0.0,0.0,0.0,0.0,0.0,0.0,0.0,0.0,-1.1296,-1.1969,-1.2325,-1.231,-1.1969,-1.1969,-1.2295,-1.1995,-1.1816,0.0,0.0,0.0,0.0,0.0,0.0,0.0,0.0,0.0,0.0,0.0,0.0,0.0,0.0,0.0,0.0,0.0,0.0,0.0,0.0,0.0,0.0,0.0,0.0,0.0,0.0,0.0,0.0,0.0,0.0,0.0,0.0,0.0,0.0,0.0,0.0,0.0,0.0,0.0,0.0,-0.9126,-0.9693,-0.9044,0.0,0.0,0.0,0.0,0.0,0.0,-0.7111,-0.6589,0.0,0.0,0.0,0.0,0.0,0.0,0.0,0.0,0.0,0.0,0.0,0.0,0.0,0.0,0.0,0.0,0.0,0.0,0.0,0.0,0.0,0.0,0.0,0.0,0.0,0.0,0.0,0.0,0.0,0.0,0.0,0.0,0.0,0.0,0.0,0.0,0.0,0.0,0.0,0.0,0.0,0.0,0.0,0.0,0.0,0.0,0.0,0.0,0.0,0.0,0.0,0.0,0.0,0.0,0.0,-1.1032,-1.2059,-1.2594,-1.2579,-1.2074,-1.2055,-1.2564,-1.222,-1.1876,0.0,0.0,0.0,0.0,0.0,0.0,0.0,0.0,0.0,0.0,0.0,0.0,0.0,0.0,0.0,0.0,0.0,0.0,0.0,0.0,0.0,0.0,0.0,0.0,0.0,0.0,0.0,0.0,0.0,0.0,0.0,0.0,0.0,0.0,0.0,0.0,0.0,0.0,0.0,0.0,0.0,-1.001,-0.922,-0.9197,0.0,0.0,0.0,0.0,-0.8934,-0.8214,0.0,0.0,0.0,0.0,0.0,0.0,0.0,0.0,0.0,0.0,0.0,0.0,0.0,0.0,0.0,0.0,0.0,0.0,0.0,0.0,0.0,0.0,0.0,0.0,0.0,0.0,0.0,0.0,0.0,0.0,0.0,0.0,0.0,0.0,0.0,0.0,0.0,0.0,0.0,0.0,0.0,0.0,0.0,0.0,0.0,0.0,0.0,0.0,0.0,0.0,0.0,0.0,0.0,0.0,0.0,0.0,-1.163,-1.1835,-1.1925,-1.191,-1.1824,-1.1835,-1.1925,-1.2415,-1.213,0.0,0.0,0.0,0.0,0.0,0.0,0.0,0.0,0.0,0.0,0.0,0.0,0.0,0.0,0.0,0.0,0.0,0.0,0.0,0.0,0.0,0.0,0.0,0.0,0.0,0.0,0.0,0.0,0.0,0.0,0.0,0.0,0.0,0.0,0.0,0.0,0.0,0.0,0.0,0.0,0.0,-1.1157,-0.9959,-1.0234,-1.0553,0.0,0.0,-0.959,-0.9764,-0.9644,0.0,0.0,0.0,0.0,0.0,0.0,0.0,0.0,0.0,0.0,0.0,0.0,0.0,0.0,0.0,0.0,0.0,0.0,0.0,0.0,0.0,0.0,0.0,0.0,0.0,0.0,0.0,0.0,0.0,0.0,0.0,0.0,0.0,0.0,0.0,0.0,0.0,0.0,0.0,0.0,0.0,0.0,0.0,0.0,0.0,0.0,0.0,0.0,0.0,0.0,0.0,0.0,0.0,0.0,0.0,-1.0528,-1.1756,-1.1816,-1.1995,-1.234,-1.201,-1.1995,-1.2366,-1.2651,-1.2164,0.0,0.0,0.0,0.0,0.0,0.0,0.0,0.0,0.0,0.0,0.0,0.0,0.0,0.0,0.0,0.0,0.0,0.0,0.0,0.0,0.0,0.0,0.0,0.0,0.0,0.0,0.0,0.0,0.0,0.0,0.0,0.0,0.0,0.0,0.0,0.0,0.0,0.0,0.0,0.0,0.0,0.0,-1.0443,-1.0618,0.0,0.0,0.0,-1.0288,-1.1366,0.0,0.0,0.0,0.0,0.0,0.0,0.0,0.0,0.0,0.0,0.0,0.0,0.0,0.0,0.0,0.0,0.0,0.0,0.0,0.0,0.0,0.0,0.0,0.0,0.0,0.0,0.0,0.0,0.0,0.0,0.0,0.0,0.0,0.0,0.0,0.0,0.0,0.0,0.0,0.0,0.0,0.0,0.0,0.0,0.0,0.0,0.0,0.0,0.0,0.0,0.0,0.0,0.0,0.0,0.0,0.0,0.0,-1.176,-1.1725,-1.1974,-1.2505,-1.2004,-1.1915,-1.2416,-1.2579,0.0,0.0,0.0,0.0,0.0,0.0,0.0,0.0,0.0,0.0,0.0,0.0,0.0,0.0,0.0,0.0,0.0,0.0,0.0,0.0,0.0,0.0,0.0,0.0,0.0,0.0,0.0,-0.3851,0.0,0.0,0.0,0.0,0.0,0.0,0.0,0.0,0.0,0.0,0.0,0.0,0.0,0.0,-1.0268,-1.0856,-1.1078,-1.1321,0.0,0.0,-1.1067,-1.2325,-1.0912,-0.9698,0.0,0.0,0.0,0.0,0.0,0.0,0.0,0.0,0.0,0.0,0.0,0.0,0.0,0.0,0.0,0.0,0.0,0.0,0.0,0.0,0.0,0.0,0.0,0.0,0.0,0.0,0.0,0.0,0.0,0.0,0.0,0.0,0.0,0.0,0.0,0.0,0.0,0.0,0.0,0.0,0.0,0.0,0.0,0.0,0.0,0.0,0.0,0.0,0.0,0.0,0.0,0.0,0.0,0.0,0.0,-1.1723,-1.1557,-1.1575,-1.1854,-1.1586,-1.14,-1.1416,-1.2014,-1.137,0.0,0.0,0.0,0.0,0.0,0.0,0.0,0.0,0.0,0.0,0.0,0.0,0.0,0.0,0.0,0.0,0.0,0.0,0.0,0.0,0.0,0.0,0.0,0.0,0.0,0.0,0.0,0.0,0.0,0.0,0.0,0.0,0.0,0.0,0.0,0.0,0.0,0.0,0.0,0.0,0.0,-1.0668,-1.1278,-1.1882,-1.2094,0.0,0.0,-1.243,-1.1954,-1.1741,-1.1232,-1.0084,0.0,0.0,0.0,0.0,0.0,0.0,0.0,0.0,0.0,0.0,0.0,0.0,0.0,0.0,0.0,0.0,0.0,0.0,0.0,0.0,0.0,0.0,0.0,0.0,0.0,0.0,0.0,0.0,0.0,0.0,0.0,0.0,0.0,0.0,0.0,0.0,0.0,0.0,0.0,0.0,0.0,0.0,0.0,0.0,0.0,0.0,0.0,0.0,0.0,0.0,0.0,0.0,0.0,-1.0109,-1.1358,-1.1592,-1.1755,-1.1839,-1.1729,-1.1642,-1.1617,-1.1908,-1.1284,0.0,0.0,0.0,0.0,0.0,0.0,0.0,0.0,0.0,0.0,0.0,0.0,0.0,0.0,0.0,0.0,0.0,0.0,0.0,0.0,0.0,0.0,0.0,0.0,0.0,0.0,0.0,0.0,-0.4088,-0.442,-0.4416,0.0,0.0,0.0,0.0,0.0,0.0,0.0,0.0,0.0,0.0,-1.072,-1.1325,-1.1766,0.0,0.0,-1.2107,-1.2373,-1.2942,-1.1973,-1.1176,-1.1087,-0.998,0.0,0.0,0.0,0.0,0.0,0.0,0.0,0.0,0.0,0.0,0.0,0.0,0.0,0.0,0.0,0.0,0.0,0.0,0.0,0.0,0.0,0.0,0.0,0.0,0.0,0.0,0.0,0.0,0.0,0.0,0.0,0.0,0.0,0.0,0.0,0.0,0.0,0.0,0.0,0.0,0.0,0.0,0.0,0.0,0.0,0.0,0.0,0.0,0.0,0.0,0.0,0.0,-0.9961,-1.1292,-1.1586,-1.1838,-1.207,-1.1977,-1.1815,-1.1638,-1.1677,-1.0959,0.0,0.0,0.0,0.0,0.0,0.0,0.0,0.0,0.0,0.0,0.0,0.0,0.0,0.0,0.0,0.0,0.0,0.0,0.0,0.0,0.0,0.0,0.0,0.0,0.0,0.0,0.0,0.0,-0.4464,-0.4635,-0.4403,0.0,0.0,0.0,0.0,0.0,0.0,0.0,0.0,0.0,0.0,-1.0669,-1.1727,-1.2036,-1.2294,-1.2648,-1.2698,-1.2957,-1.3677,-1.2628,-1.1719,-1.179,0.0,0.0,0.0,0.0,0.0,0.0,0.0,0.0,0.0,0.0,0.0,0.0,0.0,0.0,0.0,0.0,0.0,0.0,0.0,0.0,0.0,0.0,0.0,0.0,0.0,0.0,0.0,0.0,0.0,0.0,-0.8529,0.0,0.0,0.0,0.0,0.0,0.0,0.0,0.0,0.0,0.0,0.0,0.0,0.0,0.0,0.0,0.0,0.0,0.0,0.0,0.0,0.0,0.0,-0.9787,-1.174,-1.1481,-1.1696,-1.2443,-1.2299,-1.1891,-1.1268,-1.1215,-1.0312,-0.8423,0.0,0.0,0.0,0.0,0.0,0.0,0.0,0.0,0.0,0.0,0.0,0.0,0.0,0.0,0.0,0.0,0.0,0.0,0.0,0.0,0.0,0.0,0.0,0.0,0.0,0.0,-0.5179,-0.4838,-0.4305,0.0,0.0,0.0,0.0,0.0,0.0,0.0,0.0,0.0,0.0,-0.9865,-1.0519,-1.2626,-1.2976,-1.304,-1.3297,-1.4102,-1.4498,-1.3902,-1.3725,-1.3316,0.0,0.0,0.0,0.0,0.0,0.0,0.0,0.0,0.0,0.0,0.0,0.0,0.0,0.0,0.0,0.0,0.0,0.0,0.0,0.0,0.0,0.0,0.0,0.0,0.0,0.0,0.0,-1.0808,-1.0298,0.0,0.0,0.0,0.0,0.0,0.0,0.0,0.0,0.0,0.0,0.0,-1.1433,-1.1627,0.0,0.0,0.0,0.0,0.0,0.0,0.0,0.0,0.0,0.0,0.0,0.0,-0.961,-1.1216,-1.1525,-1.195,-1.2529,-1.2445,-1.2291,-1.2055,-1.127,-1.0046,-0.8358,0.0,0.0,0.0,0.0,0.0,0.0,0.0,0.0,0.0,0.0,0.0,0.0,0.0,0.0,0.0,0.0,0.0,0.0,0.0,0.0,0.0,0.0,0.0,0.0,0.0,-0.6337,0.0,0.0,0.0,0.0,0.0,0.0,0.0,0.0,0.0,0.0,0.0,-0.8782,-1.0299,-1.1086,-1.1764,-1.2499,-1.2952,-1.3087,0.0,0.0,0.0,0.0,0.0,0.0,0.0,0.0,0.0,0.0,0.0,0.0,0.0,0.0,-1.1931,-0.9077,-0.8207,-0.7906,-0.7906,0.0,0.0,0.0,0.0,0.0,0.0,0.0,0.0,0.0,0.0,0.0,0.0,0.0,0.0,-1.2198,0.0,-1.1397,0.0,0.0,0.0,0.0,0.0,0.0,0.0,0.0,-1.2256,-1.2515,-1.2543,-1.2868,-1.2926,0.0,-1.2252,-1.1587,0.0,0.0,0.0,0.0,0.0,0.0,0.0,0.0,-0.9977,-1.1465,-1.1842,-1.2253,-1.277,-1.2775,-1.2654,-1.2456,-1.1138,-0.993,-0.8889,-0.8114,-0.7363,0.0,0.0,0.0,0.0,0.0,0.0,0.0,0.0,0.0,0.0,0.0,0.0,0.0,0.0,0.0,0.0,0.0,0.0,0.0,0.0,0.0,0.0,0.0,-0.6807,0.0,0.0,0.0,0.0,0.0,0.0,0.0,0.0,0.0,-0.8008,-0.8749,-0.9655,-1.0746,-1.1669,-1.2379,-1.2696,0.0,0.0,0.0,0.0,0.0,0.0,0.0,-1.4328,-1.4725,-1.4438,-1.4094,-1.3827,-1.4197,-1.4272,-1.3613,0.0,0.0,-1.1122,-1.0268,-0.9944,-0.995,-1.0303,-1.0807,-1.1461,-1.2214,-1.2852,0.0,0.0,0.0,0.0,0.0,0.0,0.0,0.0,-1.2753,-1.331,0.0,-1.3144,0.0,0.0,0.0,0.0,0.0,-1.3081,0.0,0.0,-1.3293,-1.3553,-1.3527,-1.3493,-1.3739,-1.4138,-1.4076,-1.375,-1.3078,-1.0601,0.0,0.0,0.0,0.0,0.0,0.0,-1.0842,-1.2412,-1.2395,-1.2663,-1.316,-1.3198,-1.2922,-1.2404,-1.086,-0.9981,-0.9868,-0.8901,-0.7824,-0.6733,-0.6628,0.0,0.0,0.0,0.0,0.0,0.0,0.0,0.0,0.0,0.0,0.0,0.0,0.0,0.0,0.0,0.0,0.0,0.0,0.0,0.0,-0.6892,0.0,0.0,0.0,0.0,0.0,0.0,0.0,0.0,0.0,0.0,-0.8894,-0.9675,-1.0586,-1.1174,0.0,0.0,0.0,0.0,-1.3868,-1.5004,-1.5255,-1.5374,-1.5682,-1.5755,-1.553,-1.4946,0.0,0.0,-1.3989,-1.4931,-1.5545,-1.4946,-1.4841,-1.4631,-1.3932,-1.3645,-1.3603,-1.3618,-1.3543,-1.3976,-1.4616,-1.4929,-1.5498,-1.5801,0.0,0.0,0.0,0.0,-1.4403,-1.471,-1.5012,-1.4923,-1.4891,-1.4903,-1.4497,0.0,0.0,0.0,0.0,0.0,0.0,-1.4223,-1.4461,-1.4628,-1.4512,-1.4131,-1.3736,-1.3478,-1.3269,-1.3175,-1.2847,-1.2306,-1.2185,-1.1281,-0.9626,0.0,0.0,0.0,0.0,-1.1181,-1.2344,-1.2416,-1.2663,-1.3168,-1.321,-1.2935,-1.24,-1.1936,-1.1109,-0.9956,-0.9617,-0.8939,-0.7874,-0.7403,0.0,0.0,0.0,0.0,0.0,0.0,0.0,0.0,0.0,0.0,0.0,0.0,0.0,0.0,0.0,0.0,0.0,0.0,0.0,-0.7335,-0.7457,-0.775,0.0,0.0,0.0,0.0,0.0,0.0,0.0,0.0,0.0,-1.0977,-1.1316,-1.1734,0.0,0.0,-1.3392,-1.3634,-1.3886,-1.4097,-1.4211,0.0,0.0,0.0,-1.5284,-1.5463,-1.5501,-1.55,-1.5454,-1.526,-1.5544,-1.5739,-1.5544,-1.55,-1.544,-1.5215,-1.4423,-1.3857,-1.3797,-1.3797,-1.4019,-1.4633,-1.4975,-1.523,-1.7386,-1.6371,-1.6023,-1.5856,-1.5822,-1.6018,-1.6278,-1.6528,-1.6204,-1.6187,-1.6325,-1.5613,-1.5069,-1.4663,-1.4067,0.0,0.0,0.0,-1.4488,-1.4793,-1.4826,-1.455,-1.4022,-1.3919,-1.3732,-1.3452,-1.3174,-1.3073,-1.3124,-1.3291,-1.2826,-1.1706,0.0,0.0,-1.0963,-1.1479,-1.2055,-1.2701,-1.2956,-1.3119,-1.3181,-1.321,-1.3048,-1.2722,-1.2529,-1.1826,-1.0621,-1.0331,-0.973,-0.8663,-0.8275,-0.7726,0.0,0.0,0.0,0.0,0.0,0.0,0.0,0.0,0.0,0.0,0.0,-0.4445,-0.3723,0.0,0.0,0.0,-0.61,-0.7023,-0.8289,-0.8605,0.0,0.0,0.0,0.0,0.0,0.0,0.0,-1.1331,-1.1617,-1.1944,-1.2622,-1.2714,-1.2768,-1.2888,-1.3425,-1.3791,-1.3791,0.0,-1.4072,-1.4007,-1.4335,-1.4685,-1.4965,-1.5164,-1.5418,-1.5755,-1.5814,-1.5814,-1.5814,-1.5814,-1.5814,-1.5814,-1.5814,-1.5814,-1.5814,-1.5125,-1.4588,-1.4588,-1.4601,-1.4751,-1.5125,-1.5214,-1.5334,-1.8483,-1.8242,-1.7403,-1.6955,-1.6865,-1.7359,-1.7506,-1.7423,-1.6886,-1.7215,-1.8066,-1.6572,-1.622,-1.6654,-1.5179,0.0,-1.5041,-1.4633,-1.4388,-1.4284,-1.4329,-1.4049,-1.3512,-1.4016,-1.4221,-1.4155,-1.3764,-1.3969,-1.4675,-1.3903,-1.3715,-1.4019,-1.3021,-1.2514,-1.2551,-1.3065,-1.3323,-1.3348,-1.3878,-1.3866,-1.3303,-1.3261,-1.3235,-1.3198,-1.2689,-1.2153,-1.16,-1.1023,-1.0232,-0.9239,-0.9126,-0.8625,-0.7593,0.0,0.0,0.0,0.0,0.0,0.0,0.0,0.0,0.0,0.0,0.0,0.0,0.0,0.0,0.0,-0.7604,0.0,-0.9434,-0.9985,0.0,0.0,0.0,-0.9747,-0.9825,-1.069,-1.1488,-1.2072,0.0,0.0,-1.3791,0.0,-1.3631,-1.3045,-1.3467,-1.3791,-1.3791,-1.3791,-1.3908,-1.4187,-1.4284,-1.4527,-1.5027,-1.5239,-1.5418,-1.5726,-1.5814,-1.5814,-1.5814,-1.5814,-1.5814,-1.5814,-1.5814,-1.5814,-1.5814,-1.5739,-1.5814,-1.5739,-1.5754,-1.5769,-1.5769,-1.5754,-1.5768,-1.9472,-1.9397,-1.9195,-1.8604,-1.785,-1.7976,-1.8003,-1.799,-1.7865,-1.7953,-1.8179,-1.779,-1.7473,-1.7172,-1.6,-1.5523,-1.5599,-1.5133,-1.4911,-1.4896,-1.4889,-1.4643,-1.4159,-1.395,-1.3619,-1.3231,-1.3114,-1.3032,-1.2957,-1.3429,-1.3663,-1.3721,-1.3443,-1.3449,-1.3715,-1.423,-1.4507,-1.4507,-1.4632,-1.445,-1.3921,-1.3896,-1.3659,-1.321,-1.2689,-1.214,-1.16,-1.1021,-1.0394,-0.9742,-0.9315,-0.8987,-0.8712,-0.7363,0.0,0.0,0.0,0.0,0.0,0.0,0.0,0.0,0.0,-0.7025,-0.5545,0.0,-0.7563,0.0,-0.8727,-0.9318,-0.9498,-0.9986,0.0,0.0,-1.1408,-1.1761,-1.2666,-1.2192,-1.2203,-1.3252,-1.3229,-1.3281,-1.3739,-1.4158,-1.4193,-1.3674,-1.3713,-1.3791,-1.3791,-1.3791,-1.3821,-1.3924,-1.4138,-1.4351,-1.4572,-1.4981,-1.5418,-1.5741,-1.5814,-1.5814,-1.5814,-1.5814,-1.5814,-1.5814,-1.5814,-1.5814,-1.5814,-1.5814,-1.5814,-1.5814,-1.5814,-1.5814,-1.5814,-1.5814,-1.5813,-1.9974,-1.9779,-2.007,-1.9685,-1.8895,-1.892,-1.892,-1.8907,-1.8668,-1.8544,-1.8543,-1.8304,-1.8041,-1.7704,-1.6932,-1.6648,-1.6797,-1.5892,-1.5459,-1.5452,-1.4974,-1.4475,-1.4035,-1.3768,-1.348,-1.3204,-1.3008,-1.3008,-1.3222,-1.3564,-1.3804,-1.3979,-1.4155,-1.4269,-1.4256,-1.471,-1.4926,-1.4896,-1.4884,-1.4745,-1.4462,-1.4229,-1.3934,-1.3596,-1.304,-1.25,-1.1964,-1.165,-1.1209,-1.0684,-1.0371,-1.0094,-0.9818,-0.8927,-0.8338,0.0,0.0,0.0,0.0,0.0,0.0,0.0,0.0,0.0,0.0,0.0,-0.7899,-0.8704,-0.9855,-1.0612,-1.0697,-1.1388,-1.2009,-1.2361,-1.24,-1.2768,-1.3713,-1.3197,-1.3265,-1.4432,-1.4275,-1.4197,-1.4507,-1.4794,-1.4799,-1.4236,-1.4158,-1.4062,-1.3827,-1.3791,-1.3791,-1.3804,-1.4152,-1.4497,-1.4633,-1.5013,-1.5374,-1.5551,-1.5697,-1.5814,-1.5814,-1.5814,-1.5814,-1.5814,-1.5814,-1.5814,-1.5814,-1.5814,-1.5814,-1.5814,-1.5814,-1.5814,-1.5814,-1.5814,-1.5813,-2.0269,-1.9972,-2.0548,-2.0515,-2.0012,-2.0024,-1.9936,-1.9773,-1.9296,-1.9108,-1.907,-1.8543,-1.8304,-1.8281,-1.775,-1.7678,-1.7906,-1.6537,-1.5875,-1.5731,-1.4825,-1.4148,-1.369,-1.3703,-1.3648,-1.36,-1.3183,-1.3415,-1.4194,-1.3804,-1.3839,-1.4297,-1.4699,-1.4778,-1.4519,-1.4834,-1.5009,-1.5012,-1.5078,-1.5072,-1.4997,-1.4551,-1.4236,-1.4091,-1.3521,-1.2935,-1.2425,-1.2341,-1.209,-1.164,-1.1603,-1.1309,-1.0689,-1.0617,-1.013,0.0,-0.9089,0.0,0.0,0.0,0.0,0.0,0.0,0.0,0.0,-0.8052,-0.8471,-0.9298,-1.1024,-1.2168,-1.2264,-1.3257,-1.3687,-1.3203,-1.3173,-1.3451,-1.3948,-1.401,-1.4389,-1.5382,-1.544,-1.5401,-1.5304,-1.5382,-1.516,-1.4563,-1.4511,-1.4367,-1.3909,-1.3791,-1.3791,-1.3791,-1.418,-1.4523,-1.4931,-1.5223,-1.5429,-1.552,-1.5906,-1.6024,-1.6114,-1.6009,-1.5919,-1.5919,-1.5874,-1.5814,-1.5814,-1.5814,-1.5814,-1.5814,-1.5814,-1.5814,-1.5814,-1.5814,-1.5813,-2.0754,-2.1163,-2.1274,-2.1267,-2.1167,-2.1167,-2.0652,-1.9798,-1.9698,-1.966,-1.9623,-1.9083,-1.8832,-1.8783,-1.7897,-1.729,-1.6862,-1.621,-1.5643,-1.5151,-1.4966,-1.4624,-1.419,-1.4179,-1.3972,-1.3607,-1.3493,-1.3354,-1.3198,-1.3082,-1.3308,-1.3839,-1.3847,-1.4249,-1.4925,0.0,0.0,0.0,-1.6017,-1.5982,-1.5575,-1.5462,-1.5004,-1.4128,-1.3521,0.0,-1.2413,-1.1977,-1.1701,-1.1615,-1.1603,0.0,0.0,0.0,0.0,0.0,0.0,0.0,0.0,0.0,0.0,0.0,-1.0162,-0.9471,-0.8805,-1.0059,-1.0895,-1.0846,-1.2225,-1.3019,-1.2812,-1.379,-1.4402,-1.4297,-1.4703,-1.5061,-1.516,-1.5147,-1.5296,-1.5447,-1.5087,-1.4786,-1.482,-1.4755,-1.4572,-1.4128,-1.4341,-1.438,-1.3883,-1.3791,-1.3791,-1.3817,-1.3948,-1.4196,-1.4756,-1.5304,-1.5765,-1.6332,-1.6948,-1.725,-1.719,-1.6832,-1.6532,-1.6533,-1.6129,-1.5844,-1.5844,-1.5814,-1.5888,-1.5829,-1.5829,-1.5814,-1.5814,-1.5814,-1.5813,-2.1323,0.0,-2.174,-2.1732,0.0,-2.1481,-2.1154,-2.0627,-2.0365,-2.0062,-1.9786,-1.9522,-1.9384,-1.9384,-1.8858,-1.846,-1.8183,-1.7658,-1.6975,-1.6168,-1.5875,-1.5342,-1.4635,-1.4417,-1.419,-1.3962,-1.37,-1.3496,-1.3245,-1.3245,-1.3259,-1.3308,-1.3499,-1.3742,-1.4023,-1.4482,-1.5071,-1.5788,-1.5807,-1.5906,-1.6061,-1.5831,-1.5449,-1.4903,0.0,0.0,0.0,0.0,0.0,0.0,0.0,0.0,0.0,0.0,0.0,-1.0942,-1.0861,-1.0775,-1.0651,-1.0785,-1.0883,-1.1006,-1.0983,-1.064,-0.9836,-1.0979,-1.1751,-1.1862,-1.3161,-1.3952,-1.3876,-1.4577,-1.5047,-1.5055,-1.5317,-1.55,-1.55,-1.55,-1.55,-1.5474,-1.5225,-1.5029,-1.5042,-1.5042,-1.4807,-1.4297,-1.4402,-1.4389,-1.3922,-1.3791,-1.3883,-1.4118,-1.3918,-1.4013,-1.459,-1.5013,-1.5384,-1.5789,-1.6569,-1.7128,-1.7204,-1.7204,-1.7189,-1.7174,-1.6936,-1.6742,-1.6727,-1.6727,-1.6758,-1.6697,-1.6473,-1.6263,-1.6234,-1.6009,-1.5814,-2.1788,-2.1673,-2.2201,-2.2184,-2.1782,-2.1769,-2.1719,-2.1594,0.0,0.0,0.0,-1.9949,-1.9899,-1.9798,-1.9798,-1.9747,-1.9618,-1.9081,-1.8301,-1.7356,-1.6741,-1.6004,-1.5101,-1.4728,-1.4511,-1.4407,-1.3962,-1.3721,-1.371,-1.3638,-1.3424,-1.3101,-1.3483,-1.3524,-1.3207,-1.38,-1.4596,-1.5499,-1.5174,-1.538,-1.6206,-1.5815,-1.5619,-1.5693,-1.4833,-1.4324,-1.4223,-1.3688,-1.3415,-1.3504,-1.3415,-1.3348,-1.3278,-1.3318,-1.3268,-1.3141,-1.2959,-1.259,-1.193,-1.1872,-1.1496,-1.0615,-1.1259,-1.1513,-1.1013,-1.1464,-1.1963,-1.248,-1.3717,-1.4531,-1.4695,-1.521,-1.5534,-1.5513,-1.55,-1.55,-1.55,-1.55,-1.55,-1.5487,-1.5375,-1.5348,-1.5278,-1.5178,-1.5047,-1.4589,-1.4493,-1.4441,-1.4036,-1.3853,-1.3935,-1.4249,-1.4027,-1.3995,-1.4502,-1.4894,-1.4979,-1.5357,-1.6225,-1.683,-1.6965,-1.7324,-1.7669,-1.7654,-1.7699,-1.7654,-1.7684,-1.7473,-1.7578,-1.7684,-1.707,-1.6592,-1.6607,-1.6219,-1.5829,-2.1873,-2.285,-2.2965,-2.2945,-2.2869,-2.2869,-2.2594,-2.2159,-2.1647,-2.1094,-2.0578,-2.0566,-2.0302,-1.9798,-1.9798,-1.9552,-1.9093,-1.8483,-1.7857,0.0,-1.6673,-1.6116,-1.5608,-1.5525,-1.5277,-1.4894,-1.4438,-1.421,-1.4169,-1.3807,-1.3555,-1.3579,-1.3983,-1.4169,-1.4066,-1.3463,-1.3584,-1.4571,-1.4525,-1.4747,-1.5271,-1.5219,-1.536,-1.5673,-1.553,-1.5248,-1.4815,-1.431,-1.4247,-1.4619,-1.4286,-1.3905,-1.3576,-1.3826,-1.3633,-1.2964,-1.3511,-1.3831,-1.3714,-1.3458,-1.2898,-1.2051,-1.2088,-1.2162,-1.209,-1.1998,-1.2123,-1.2594,-1.3611,-1.413,-1.4324,-1.5222,-1.5742,-1.5566,-1.5513,-1.5513,-1.5526,-1.5526,-1.5526,-1.5487,-1.5016,-1.4786,-1.4794,-1.4441,-1.4206,-1.4066,-1.4441,-1.4589,-1.4454,-1.4092,-1.3857,-1.3909,-1.3857,-1.408,-1.4588,-1.5291,-1.5652,-1.6362,-1.693,-1.7384,-1.7384,-1.7564,-1.7699,-1.7699,-1.7699,-1.7699,-1.7667,-1.7219,-1.7234,-1.7534,-1.6832,-1.6219,-1.6592,-1.6219,-1.5829,-2.2537,-2.3078,-2.3095,-2.3095,-2.3095,-2.3095,-2.297,-2.2719,-2.2498,-2.1907,-2.1169,-2.1131,-2.0993,-2.0727,-2.0715,-2.043,-1.9904,-1.9651,-1.9039,-1.8186,-1.7925,-1.7511,-1.7032,-1.6741,-1.6526,-1.6273,-1.5824,-1.546,-1.5183,-1.494,-1.4708,-1.4441,-1.4389,-1.4377,-1.4321,-1.3635,-1.3372,-1.3582,-1.3872,-1.4252,-1.4712,-1.4733,-1.4675,-1.4618,-1.4552,-1.4548,-1.4573,-1.4302,-1.4373,-1.4884,-1.4702,-1.4481,-1.4342,-1.4463,-1.4356,-1.397,-1.4087,-1.4216,-1.4216,-1.4107,-1.3965,-1.3799,-1.3806,-1.385,-1.3916,-1.3108,-1.3137,-1.4349,-1.4767,-1.5137,-1.5742,-1.6272,-1.6506,-1.6434,-1.6428,-1.631,-1.6036,-1.5983,-1.5872,-1.5558,-1.5283,-1.5082,-1.5082,-1.4877,-1.472,-1.476,-1.4951,-1.5082,-1.5055,-1.4585,-1.4114,-1.387,-1.3791,-1.3921,-1.4249,-1.4828,-1.5329,-1.5656,-1.6494,-1.7053,-1.7174,-1.7384,-1.7669,-1.7699,-1.7699,-1.7699,-1.7699,-1.7473,-1.7443,-1.7458,-1.6996,-1.6517,-1.6562,-1.6219,-1.5844,-2.2975,-2.3095,-2.3095,-2.3095,-2.3095,-2.3095,-2.3095,-2.3095,-2.3095,-2.2631,-2.1907,-2.1732,-2.1606,-2.1493,-2.1481,-2.1255,-2.0918,-2.0732,-2.0123,-1.923,-1.906,-1.8654,-1.8112,-1.7721,-1.7548,-1.7491,-1.7081,-1.6655,-1.6284,-1.6134,-1.581,-1.528,-1.4799,-1.4558,-1.4558,-1.4152,-1.3761,-1.3444,-1.3805,-1.4082,-1.4221,-1.4242,-1.4158,-1.403,-1.3816,-1.3891,-1.4289,-1.4017,-1.4104,-1.4594,-1.4533,-1.4514,-1.4612,-1.4729,-1.4817,-1.491,-1.4737,-1.4619,-1.463,-1.4697,-1.4823,-1.5057,-1.5129,-1.5231,-1.5313,-1.4339,-1.4205,-1.557,-1.5577,-1.5822,-1.6417,-1.6762,-1.6881,-1.6825,-1.682,-1.6545,-1.6245,-1.6192,-1.6036,-1.5578,-1.55,-1.5487,-1.55,-1.55,-1.5526,-1.563,-1.5591,-1.5526,-1.5591,-1.5173,-1.4611,-1.4128,-1.3866,-1.3854,-1.3908,-1.4429,-1.4822,-1.4872,-1.5768,-1.6367,-1.6577,-1.704,-1.7413,-1.7428,-1.7593,-1.7684,-1.7699,-1.7518,-1.7503,-1.7564,-1.6981,-1.6428,-1.6398,-1.6114,-1.5829,-2.2555,-2.3065,-2.3095,-2.3095,-2.3095,-2.3095,-2.3095,-2.3095,-2.3095,-2.307,-2.2857,-2.246,-2.197,-2.1531,-2.1518,-2.1493,-2.1377,-2.0864,-2.0318,-1.9732,-1.9146,-1.8624,-1.822,-1.8089,-1.8024,-1.7997,-1.7601,-1.7378,-1.7262,-1.6855,-1.6355,-1.581,-1.5303,-1.5051,-1.5051,-1.4971,-1.4915,-1.4903,-1.4937,-1.4564,-1.3806,-1.3762,-1.4149,-1.4936,-1.454,-1.433,-1.4406,-1.3548,-1.3331,-1.3732,-1.3524,-1.3429,-1.3839,-1.4181,-1.4607,-1.5064,-1.5393,-1.5591,-1.5649,-1.567,-1.5437,-1.5078,-1.521,-1.5467,-1.5794,-1.5444,-1.5119,-1.529,-1.5304,-1.5439,-1.5343,-1.5771,-1.605,-1.599,-1.5879,-1.563,-1.5709,-1.5578,-1.5571,-1.5513,-1.5649,-1.5513,-1.5649,-1.5644,-1.5787,-1.6245,-1.5976,-1.5826,-1.6166,-1.5806,-1.5257,-1.465,-1.4171,-1.4003,-1.4197,-1.4541,-1.4841,-1.5163,-1.5581,-1.5876,-1.6084,-1.6413,-1.6801,-1.6846,-1.7189,-1.7489,-1.7429,-1.7264,-1.6995,-1.719,-1.6697,-1.5919,-1.5889,-1.5844,-1.5814,-2.2841,-2.3095,-2.3095,-2.3095,-2.3095,-2.3095,-2.3095,-2.3095,-2.3095,-2.3095,-2.3083,-2.2857,-2.2644,-2.246,-2.246,-2.2268,-2.1954,-2.17,-2.1317,-2.0782,-2.0229,-1.9828,-1.9621,-1.9269,-1.9109,-1.9097,-1.8905,-1.8675,-1.831,-1.7824,-1.746,-1.7169,-1.6418,-1.5995,-1.5937,-1.5383,-1.5119,-1.5119,-1.5119,-1.4914,-1.4552,-1.4259,-1.4142,-1.4253,-1.4319,-1.4512,-1.4815,-1.4952,-1.5033,-1.5029,-1.5642,-1.571,-1.4991,-1.5676,-1.6068,-1.5953,-1.5806,-1.5767,-1.5798,-1.5534,-1.5418,-1.5454,-1.5624,-1.5922,-1.6422,-1.6396,-1.6332,-1.6271,-1.6052,-1.5982,-1.6257,-1.6506,-1.6599,-1.6525,-1.6506,-1.6493,-1.6493,-1.6493,-1.6506,-1.6493,-1.6506,-1.6493,-1.6493,-1.6493,-1.6598,-1.682,-1.6611,-1.6584,-1.6794,-1.6388,-1.6003,-1.5676,-1.5191,-1.459,-1.4233,-1.4284,-1.4636,-1.4979,-1.5284,-1.5522,-1.58,-1.5949,-1.6159,-1.6189,-1.6473,-1.6637,-1.6518,-1.6428,-1.6278,-1.6503,-1.6428,-1.5814,-1.5814,-1.5814,-1.5814,-2.3095,-2.3095,-2.3095,-2.3095,-2.3095,-2.3095,-2.3095,-2.3095,-2.3095,-2.3095,-2.3095,-2.3095,-2.3095,-2.3095,-2.3095,-2.2882,-2.2543,-2.2535,-2.2234,-2.1719,-2.132,-2.0966,-2.0679,-2.0277,-1.9949,-1.9823,-1.976,-1.9597,-1.9183,-1.8669,-1.8406,-1.827,-1.749,-1.7044,-1.6949,-1.6168,-1.5725,-1.5714,-1.5596,-1.5479,-1.5432,-1.5158,-1.4683,-1.4176,-1.424,-1.4511,-1.4899,-1.5426,-1.5581,-1.5272,-1.6361,-1.6445,-1.536,-1.6068,-1.6463,-1.6294,-1.6122,-1.5998,-1.5998,-1.568,-1.5635,-1.5998,-1.6163,-1.6436,-1.6833,-1.7002,-1.7107,-1.7123,-1.6795,-1.6727,-1.7094,-1.7212,-1.7212,-1.7212,-1.7212,-1.7212,-1.7173,-1.7212,-1.7173,-1.7212,-1.7094,-1.7212,-1.7199,-1.716,-1.7146,-1.7146,-1.7173,-1.7212,-1.7173,-1.6846,-1.6558,-1.6415,-1.6016,-1.5401,-1.4502,-1.4789,-1.4966,-1.5031,-1.5421,-1.5787,-1.5815,-1.5799,-1.5994,-1.6249,-1.5979,-1.5964,-1.6323,-1.6174,-1.5889,-1.5844,-1.5858,-1.5888,-1.5814,-1.5814,-1.5814,-2.3095,-2.3095,-2.3095,-2.3095,-2.3095,-2.3095,-2.3095,-2.3095,-2.3095,-2.3095,-2.3095,-2.3095,-2.3095,-2.3095,-2.3095,-2.3083,-2.3058,-2.3032,-2.2744,-2.2268,-2.2196,-2.1669,-2.0729,-2.0654,-2.0365,-1.9911,-1.9886,-1.9823,-1.971,-1.9208,-1.897,-1.8908,-1.8358,-1.8119,-1.802,-1.7499,-1.7282,-1.7152,-1.6697,-1.643,-1.6426,-1.6402,-1.594,-1.5125,-1.4656,-1.452,-1.4499,-1.4092,-1.3924,-1.386,-1.4216,-1.4075,-1.3941,-1.4336,-1.5025,-1.5695,-1.6186,-1.6423,-1.6402,-1.6315,-1.638,-1.6599,-1.6663,-1.6901,-1.7059,-1.7185,-1.7295,-1.7238,-1.724,-1.7201,-1.7295,-1.7264,-1.7212,-1.7212,-1.7212,-1.7212,-1.7212,-1.7212,-1.7212,-1.7212,-1.7212,-1.7212,-1.7212,-1.7212,-1.7212,-1.7212,-1.7212,-1.7212,-1.7199,-1.7146,-1.6911,-1.6584,-1.6382,-1.616,-1.5627,-1.5519,-1.5786,-1.5898,-1.5982,-1.6426,-1.6054,-1.5859,-1.6204,-1.6383,-1.6248,-1.6278,-1.6443,-1.6368,-1.6129,-1.6039,-1.6099,-1.6098,-1.6293,-1.5949,-1.6009,-2.3095,-2.3095,-2.3095,-2.3095,-2.3095,-2.3095,-2.3095,-2.3095,-2.3095,-2.3095,-2.3095,-2.3095,-2.3095,-2.3095,-2.3095,-2.3095,-2.3095,-2.3095,-2.2995,-2.2769,-2.2456,-2.2096,-2.1744,-2.1368,-2.093,-2.0453,-2.0377,-2.0189,-1.9811,-1.9597,-1.9497,-1.9434,-1.8983,-1.8707,-1.8607,-1.8191,-1.7903,-1.789,-1.7689,-1.7438,-1.7099,-1.7074,-1.6722,-1.6044,-1.5828,-1.5752,-1.5752,-1.5951,-1.577,-1.5076,-1.5983,-1.6101,-1.522,-1.5475,-1.5842,-1.614,-1.6117,-1.6064,-1.602,-1.5778,-1.5812,-1.6197,-1.6324,-1.6827,-1.742,-1.7722,-1.7904,-1.8127,-1.7931,-1.7904,-1.8061,-1.7656,-1.7212,-1.7212,-1.7212,-1.7212,-1.7212,-1.7212,-1.7212,-1.7212,-1.7212,-1.7212,-1.7212,-1.7212,-1.7212,-1.7212,-1.7212,-1.7212,-1.7212,-1.7212,-1.7107,-1.6977,-1.6911,-1.6846,-1.6676,-1.6038,-1.5883,-1.6226,-1.6498,-1.6864,-1.6762,-1.683,-1.713,-1.7205,-1.6982,-1.6877,-1.71,-1.7086,-1.6772,-1.6817,-1.6832,-1.6743,-1.7041,-1.6742,-1.6817,-2.3095,-2.3095,-2.3095,-2.3095,-2.3095,-2.3095,-2.3095,-2.3095,-2.3095,-2.3095,-2.3095,-2.3095,-2.3095,-2.3095,-2.3095,-2.3095,-2.3095,-2.3095,-2.3095,-2.307,-2.2706,-2.2468,-2.2272,-2.192,-2.1496,-2.0993,-2.0767,-2.0478,-2.0126,-1.9886,-1.9798,-1.9761,-1.9409,-1.9259,-1.9158,-1.8731,-1.8468,-1.8455,-1.8281,-1.8003,-1.7689,-1.7639,-1.7476,-1.7102,-1.7039,-1.6839,-1.6538,-1.6911,-1.6803,-1.6289,-1.7092,-1.7156,-1.6217,-1.6341,-1.6512,-1.6476,-1.6389,-1.6225,-1.6083,-1.6057,-1.6247,-1.648,-1.6794,-1.7314,-1.8087,-1.8282,-1.8535,-1.8728,-1.861,-1.8545,-1.8649,-1.8205,-1.7761,-1.7682,-1.7421,-1.7303,-1.746,-1.7303,-1.7225,-1.7212,-1.7212,-1.7212,-1.7212,-1.7212,-1.7212,-1.7212,-1.7212,-1.7212,-1.7212,-1.7212,-1.7212,-1.7212,-1.7173,-1.7146,-1.7042,-1.6619,-1.6488,-1.6793,-1.7187,-1.7466,-1.755,-1.7703,-1.7861,-1.7921,-1.7893,-1.7773,-1.7713,-1.7728,-1.7743,-1.7758,-1.7534,-1.7325,-1.7504,-1.7609,-1.7594,-2.3108,-2.3145,-2.3108,-2.3133,-2.317,-2.3133,-2.3108,-2.317,-2.312,-2.3133,-2.3208,-2.3133,-2.3095,-2.3095,-2.3095,-2.3095,-2.3095,-2.3095,-2.3095,-2.3083,-2.3058,-2.2824,-2.2397,-2.2347,-2.202,-2.1509,-2.0981,-2.0729,-2.0679,-2.0162,-1.9886,-1.9849,-1.9786,-1.9698,-1.9773,-1.9246,-1.9008,-1.892,-1.8581,-1.8292,-1.818,-1.818,-1.813,-1.8091,-1.8078,-1.7591,-1.6651,-1.6638,-1.6713,-1.6604,-1.6641,-1.6563,-1.6604,-1.666,-1.66,-1.6738,-1.7077,-1.7077,-1.6754,-1.747,-1.7708,-1.7627,-1.8117,-1.8475,-1.8691,-1.8855,-1.8976,-1.9094,-1.9002,-1.8963,-1.9015,-1.8845,-1.8741,-1.878,-1.7957,-1.7643,-1.7865,-1.7578,-1.7225,-1.7251,-1.7251,-1.7212,-1.7212,-1.7212,-1.7212,-1.7212,-1.7212,-1.7212,-1.7212,-1.7212,-1.7212,-1.7212,-1.7212,-1.7212,-1.7212,-1.7209,-1.7302,-1.7472,-1.7902,-1.8212,-1.805,-1.8098,-1.8376,-1.8499,-1.8461,-1.8341,-1.8341,-1.8326,-1.8222,-1.8192,-1.7997,-1.8012,-1.8162,-1.8281,-1.8117,-2.3333,-2.3665,-2.3258,-2.3346,-2.364,-2.3271,-2.3321,-2.3665,-2.3296,-2.3321,-2.3602,-2.3283,-2.3095,-2.3108,-2.3095,-2.3108,-2.3095,-2.3095,-2.3095,-2.3108,-2.3241,-2.314,-2.2899,-2.2976,-2.2715,-2.2046,-2.1521,-2.1257,-2.1157,-2.0679,-2.0427,-2.0365,-1.9999,-1.9811,-1.9823,-1.9635,-1.9534,-1.9522,-1.9397,-1.9145,-1.8819,-1.8744,-1.8581,-1.8242,-1.8204,-1.8016,-1.7702,-1.7654,-1.7654,-1.7629,-1.7677,-1.7677,-1.7641,-1.7689,-1.7677,-1.7702,-1.7827,-1.7903,-1.7752,-1.8059,-1.8354,-1.8318,-1.8585,-1.896,-1.9365,-1.9501,-1.9695,-1.998,-1.9773,-1.9643,-1.9915,-1.9342,-1.9002,-1.8911,-1.8584,-1.8375,-1.8493,-1.8153,-1.7878,-1.7761,-1.746,-1.7225,-1.7225,-1.7238,-1.7303,-1.7303,-1.729,-1.7277,-1.7251,-1.7329,-1.7212,-1.7212,-1.7212,-1.7238,-1.722,-1.7303,-1.7478,-1.7691,-1.8125,-1.86,-1.8493,-1.8581,-1.8859,-1.8989,-1.8952,-1.8942,-1.8957,-1.8927,-1.8807,-1.8927,-1.9001,-1.9031,-1.9061,-1.8942,-1.8762,-2.3665,-2.3966,-2.3797,-2.3923,-2.423,-2.3672,-2.3653,-2.3929,-2.3584,-2.3634,-2.3891,-2.3822,-2.3722,-2.3697,-2.3521,-2.3421,-2.3439,-2.3221,-2.3095,-2.3095,-2.3198,-2.321,-2.3108,-2.321,-2.3089,-2.2615,-2.2128,-2.1864,-2.1757,-2.1337,-2.1048,-2.0905,-2.0413,-2.0137,-2.0113,-1.9911,-1.9798,-1.9798,-1.9786,-1.9622,-1.9359,-1.9296,-1.9133,-1.8857,-1.8807,-1.8794,-1.8807,-1.8794,-1.8618,-1.8292,-1.8204,-1.8204,-1.8204,-1.8179,-1.8204,-1.8242,-1.8356,-1.843,-1.8279,-1.8653,-1.8875,-1.8905,-1.9127,-1.9505,-1.995,-2.0102,-2.0347,-2.053,-2.036,-2.0294,-2.0465,-2.0085,-1.9601,-1.9564,-1.912,-1.8937,-1.8858,-1.861,-1.8414,-1.8323,-1.8087,-1.7878,-1.7839,-1.7839,-1.7839,-1.7839,-1.7839,-1.7839,-1.7826,-1.7865,-1.7761,-1.763,-1.7604,-1.752,-1.7259,-1.7372,-1.7598,-1.7867,-1.8188,-1.8627,-1.8829,-1.9074,-1.9355,-1.9412,-1.9405,-1.9361,-1.9361,-1.945,-1.9453,-1.9693,-1.9723,-1.9588,-1.9423,-1.9498,-1.9375,-2.4017,-2.4104,-2.4562,-2.4782,-2.475,-2.4268,-2.4067,-2.4067,-2.4042,-2.4067,-2.418,-2.4462,-2.4687,-2.4625,-2.4217,-2.4017,-2.3904,-2.3489,-2.317,-2.312,-2.3138,-2.3108,-2.3138,-2.3168,-2.3143,-2.2987,-2.2744,-2.253,-2.2363,-2.1908,-2.1658,-2.1524,-2.1058,-2.0742,-2.0641,-2.0176,-1.9924,-1.9936,-1.9849,-1.9786,-1.9748,-1.9761,-1.9748,-1.9698,-1.9685,-1.9673,-1.9635,-1.961,-1.9258,-1.8468,-1.843,-1.8455,-1.8342,-1.8292,-1.8405,-1.8455,-1.8782,-1.8757,-1.8668,-1.917,-1.9586,-1.9369,-1.9798,-2.0296,-2.0434,-2.0519,-2.0607,-2.0686,-2.0646,-2.066,-2.0686,-2.0594,-2.0555,-2.0542,-1.9771,-1.9237,-1.9041,-1.9015,-1.8963,-1.895,-1.8937,-1.8872,-1.8741,-1.8754,-1.8767,-1.8767,-1.8715,-1.8675,-1.8675,-1.8545,-1.8558,-1.8375,-1.8074,-1.78,-1.7539,-1.7253,-1.7481,-1.7618,-1.8042,-1.8548,-1.9045,-1.9347,-1.9599,-1.9672,-1.9723,-1.9723,-1.9723,-1.9723,-1.9723,-1.9723,-1.9723,-1.9723,-1.9723,-1.9723,-1.9723,-2.423,-2.4587,-2.4738,-2.5046,-2.5285,-2.4833,-2.4562,-2.4575,-2.4575,-2.4607,-2.4625,-2.4725,-2.4895,-2.4775,-2.4662,-2.4393,-2.4079,-2.3853,-2.3484,-2.3145,-2.3095,-2.3198,-2.33,-2.33,-2.3241,-2.31,-2.3136,-2.3158,-2.3048,-2.2463,-2.221,-2.2296,-2.164,-2.1295,-2.1219,-2.0754,-2.049,-2.039,-1.9999,-1.9823,-1.9823,-1.9811,-1.9798,-1.9798,-1.9798,-1.9798,-1.9798,-1.9798,-1.9723,-1.9421,-1.9384,-1.9371,-1.9321,-1.9309,-1.9284,-1.9321,-1.9447,-1.9547,-1.9485,-1.9699,-1.9902,-1.9978,-2.0155,-2.0473,-2.0637,-2.0674,-2.0699,-2.0699,-2.0699,-2.0699,-2.0699,-2.0699,-2.0699,-2.0648,-2.0294,-2.0111,-2.0072,-1.9812,-1.9577,-1.9538,-1.9211,-1.9041,-1.9015,-1.9002,-1.9002,-1.9002,-1.9015,-1.9028,-1.9133,-1.9094,-1.9041,-1.8715,-1.8414,-1.814,-1.7826,-1.7421,-1.7287,-1.7365,-1.7774,-1.8408,-1.8908,-1.9398,-1.9581,-1.9723,-1.9723,-1.9723,-1.9723,-1.9723,-1.9723,-1.9723,-1.9723,-1.9723,-1.9723,-1.9723,-1.9723,-2.4318,-2.4813,-2.5046,-2.546,-2.5862,-2.5385,-2.5146,-2.5146,-2.5146,-2.5146,-2.5197,-2.5423,-2.5511,-2.5498,-2.5259,-2.5016,-2.4791,-2.457,-2.4299,-2.4052,-2.3725,-2.3498,-2.3334,-2.3258,-2.3198,-2.3138,-2.3313,-2.339,-2.331,-2.2959,-2.2846,-2.2761,-2.2194,-2.1857,-2.1794,-2.1305,-2.1031,-2.0943,-2.0503,-2.0189,-2.0201,-1.9911,-1.9798,-1.9798,-1.9798,-1.9798,-1.9798,-1.9798,-1.9798,-1.9786,-1.9798,-1.9798,-1.9798,-1.9798,-1.9798,-1.9798,-1.9798,-1.9798,-1.9798,-1.9875,-1.9978,-2.008,-2.0246,-2.041,-2.0562,-2.0599,-2.0612,-2.0687,-2.0699,-2.0699,-2.0699,-2.0699,-2.0699,-2.0686,-2.0699,-2.0699,-2.0699,-2.036,-2.0216,-2.0098,-1.9902,-1.9653,-1.9666,-1.9653,-1.9653,-1.9693,-1.9771,-1.9758,-1.9758,-1.964,-1.9486,-1.9224,-1.9002,-1.878,-1.8506,-1.8127,-1.8112,-1.8092,-1.8398,-1.8854,-1.908,-1.9571,-1.9616,-1.974,-1.9717,-1.9723,-1.9723,-1.9723,-1.9723,-1.9723,-1.9723,-1.9723,-1.9723,-1.9723,-1.9723,-2.4299,-2.4858,-2.5372,-2.5925,-2.6348,-2.59,-2.5624,-2.5586,-2.5649,-2.5636,-2.5674,-2.6223,-2.6323,-2.6461,-2.5862,-2.5749,-2.58,-2.5331,-2.5199,-2.4937,-2.4575,-2.4088,-2.3636,-2.3304,-2.321,-2.318,-2.333,-2.3373,-2.339,-2.3335,-2.3335,-2.3196,-2.2686,-2.2422,-2.2284,-2.1886,-2.1662,-2.1549,-2.1111,-2.0833,-2.0743,-2.0402,-2.015,-1.9987,-1.9823,-1.9811,-1.9798,-1.9798,-1.9798,-1.9798,-1.9798,-1.9798,-1.9798,-1.9798,-1.9798,-1.9798,-1.9798,-1.9798,-1.9798,-1.9837,-1.9888,-2.0029,-2.0067,-2.0169,-2.0486,-2.0562,-2.0587,-2.0674,-2.0739,-2.0831,-2.087,-2.0869,-2.0869,-2.083,-2.0738,-2.0804,-2.0712,-2.0699,-2.0699,-2.0699,-2.0673,-2.0686,-2.0699,-2.0699,-2.0646,-2.0203,-2.0281,-2.0255,-2.028,-2.0229,-2.0085,-1.9902,-1.9682,-1.9512,-1.9211,-1.8872,-1.9025,-1.915,-1.9498,-1.9795,-1.9688,-1.9908,-1.979,-1.9812,-2.0042,-1.9944,-1.9723,-1.9723,-1.9753,-1.9723,-1.9723,-1.9723,-1.9723,-1.9723,-1.9723,-2.4299,-2.4858,-2.5372,-2.5925,-2.6424,-2.6348,-2.6047,-2.5649,-2.6122,-2.6034,-2.5812,-2.6248,-2.6474,-2.6487,-2.6311,-2.6152,-2.5998,-2.5815,-2.5593,-2.5294,-2.5173,-2.5,-2.4549,-2.386,-2.3381,-2.3381,-2.3386,-2.3403,-2.3373,-2.3271,-2.3271,-2.3322,-2.3102,-2.2907,-2.2836,-2.2539,-2.2347,-2.2271,-2.1789,-2.1483,-2.143,-2.1184,-2.0828,-2.0528,-2.0075,-1.9836,-1.9811,-1.9798,-1.9798,-1.9798,-1.9849,-1.9924,-1.9823,-1.9798,-1.9798,-1.9811,-1.9823,-1.9823,-1.9837,-1.9938,-2.0029,-2.0169,-2.0374,-2.0461,-2.0599,-2.0702,-2.0714,-2.0791,-2.1066,-2.1302,-2.138,-2.1786,-2.1551,-2.1106,-2.1119,-2.1197,-2.0843,-2.0712,-2.0699,-2.0699,-2.0699,-2.0699,-2.0699,-2.0699,-2.0699,-2.0699,-2.0699,-2.0699,-2.0699,-2.0699,-2.0517,-2.0294,-2.0124,-1.9904,-1.976,-1.9509,-1.9605,-1.9842,-2.0251,-2.0689,-2.0567,-2.0709,-2.0759,-2.0644,-2.049,-2.0333,-2.0187,-1.9842,-1.9902,-1.9813,-1.9828,-1.9947,-2.0022,-1.9902,-1.9992,-2.4079,-2.4833,-2.5121,-2.5711,-2.6424,-2.6487,-2.6311,-2.6122,-2.6348,-2.6323,-2.6147,-2.6386,-2.6487,-2.6487,-2.6487,-2.6447,-2.648,-2.6557,-2.6341,-2.5949,-2.5743,-2.5454,-2.5018,-2.4491,-2.4093,-2.3809,-2.3402,-2.3326,-2.333,-2.3228,-2.3198,-2.336,-2.3198,-2.307,-2.3095,-2.2938,-2.2841,-2.2715,-2.2286,-2.1983,-2.1942,-2.165,-2.1433,-2.1043,-2.0578,-2.03,-2.0616,-2.0338,-2.0388,-2.0501,-2.0564,-2.03,-1.9874,-1.9811,-1.9811,-1.9823,-2.01,-2.0012,-1.9962,-2.0328,-2.066,-2.0526,-2.0873,-2.1159,-2.1316,-2.1407,-2.1433,-2.1538,-2.1747,-2.1917,-2.1956,-2.2139,-2.1969,-2.1773,-2.1734,-2.1773,-2.1498,-2.1053,-2.0699,-2.0699,-2.0699,-2.0699,-2.0699,-2.0699,-2.0699,-2.0699,-2.0699,-2.0699,-2.0699,-2.0699,-2.0699,-2.0517,-2.0386,-2.0268,-2.0229,-2.0122,-2.0079,-2.0343,-2.0654,-2.1149,-2.1391,-2.1657,-2.1954,-2.1614,-2.1171,-2.1111,-2.0917,-2.0513,-2.0303,-2.0602,-2.0707,-2.0543,-2.0528,-2.0756,-2.0857,-2.371,-2.4675,-2.475,-2.541,-2.6285,-2.6449,-2.6474,-2.6474,-2.6487,-2.6461,-2.6487,-2.6487,-2.6487,-2.6487,-2.6487,-2.6658,-2.6905,-2.7149,-2.686,-2.6477,-2.6372,-2.5974,-2.5435,-2.5199,-2.4874,-2.4335,-2.3761,-2.355,-2.3398,-2.3271,-2.3258,-2.333,-2.321,-2.3108,-2.3095,-2.3138,-2.3135,-2.3034,-2.2778,-2.2551,-2.2526,-2.2144,-2.1889,-2.1559,-2.1131,-2.0993,-2.1182,-2.1069,-2.1006,-2.1443,-2.1481,-2.0966,-2.0376,-2.0062,-2.0062,-2.0125,-2.0603,-2.0629,-2.049,-2.092,-2.1329,-2.1058,-2.1442,-2.1847,-2.2038,-2.2082,-2.2124,-2.2283,-2.2401,-2.2519,-2.2519,-2.2754,-2.265,-2.2414,-2.2414,-2.248,-2.2231,-2.1511,-2.1157,-2.0844,-2.0766,-2.0699,-2.0699,-2.0699,-2.0699,-2.0699,-2.0699,-2.0699,-2.0699,-2.0699,-2.0699,-2.0699,-2.0555,-2.0478,-2.0438,-2.0437,-2.042,-2.0702,-2.1027,-2.1515,-2.2052,-2.2461,-2.2613,-2.2181,-2.1849,-2.1754,-2.1545,-2.1126,-2.1126,-2.1515,-2.144,-2.1096,-2.1261,-2.1635,-2.1635,-2.3509,-2.4167,-2.4632,-2.5184,-2.5774,-2.6273,-2.6474,-2.6487,-2.6487,-2.6487,-2.6487,-2.6487,-2.6487,-2.6487,-2.6487,-2.6589,-2.6794,-2.6985,-2.7002,-2.684,-2.6772,-2.6524,-2.6273,-2.5906,-2.5517,-2.509,-2.4566,-2.4131,-2.3586,-2.3433,-2.336,-2.336,-2.3198,-2.3125,-2.3168,-2.3241,-2.3271,-2.3271,-2.3196,-2.3191,-2.3141,-2.2993,-2.2652,-2.2171,-2.1672,-2.1493,-2.1493,-2.1455,-2.1433,-2.1468,-2.1481,-2.1405,-2.1267,-2.1204,-2.1179,-2.1104,-2.123,-2.1242,-2.1142,-2.1453,-2.1663,-2.1657,-2.192,-2.2056,-2.2207,-2.2343,-2.2556,-2.2622,-2.2858,-2.308,-2.308,-2.338,-2.3237,-2.2884,-2.2792,-2.2923,-2.2571,-2.2218,-2.1865,-2.1551,-2.1145,-2.0699,-2.0699,-2.0699,-2.0699,-2.0699,-2.0699,-2.0699,-2.0699,-2.0699,-2.0699,-2.0699,-2.0686,-2.066,-2.0646,-2.0658,-2.0706,-2.0997,-2.1352,-2.1815,-2.2395,-2.3076,-2.315,-2.2706,-2.2448,-2.2343,-2.2074,-2.1739,-2.1769,-2.2024,-2.1829,-2.159,-2.1919,-2.2203,-2.2024,-2.3609,-2.4418,-2.4418,-2.5034,-2.5959,-2.6,-2.6223,-2.6474,-2.6487,-2.6487,-2.6487,-2.6487,-2.6487,-2.6487,-2.6487,-2.6589,-2.6726,-2.6909,-2.6943,-2.6863,-2.6829,-2.6684,-2.6582,-2.629,-2.5906,-2.5518,-2.5338,-2.4728,-2.3688,-2.3539,-2.356,-2.345,-2.3318,-2.3271,-2.3241,-2.3241,-2.3271,-2.3271,-2.333,-2.336,-2.336,-2.33,-2.3009,-2.2715,-2.2259,-2.2096,-2.223,-2.2008,-2.2083,-2.2255,-2.2318,-2.2334,-2.2322,-2.2259,-2.2071,-2.1694,-2.1757,-2.1769,-2.1719,-2.1993,-2.2362,-2.2239,-2.2562,-2.2894,-2.3021,-2.3202,-2.321,-2.3315,-2.3406,-2.3652,-2.3665,-2.3939,-2.377,-2.3483,-2.3483,-2.3485,-2.3289,-2.2988,-2.2648,-2.2229,-2.1694,-2.1184,-2.0699,-2.0699,-2.0699,-2.0699,-2.0699,-2.0699,-2.0699,-2.0699,-2.0699,-2.0699,-2.0699,-2.0699,-2.0699,-2.0699,-2.0724,-2.1057,-2.141,-2.1898,-2.2328,-2.2793,-2.3179,-2.3172,-2.302,-2.2882,-2.2808,-2.2562,-2.2547,-2.2488,-2.2368,-2.2358,-2.2577,-2.2697,-2.2532,-2.376,-2.475,-2.4311,-2.4983,-2.6147,-2.5937,-2.6072,-2.6436,-2.6487,-2.6487,-2.6487,-2.6487,-2.6487,-2.6487,-2.6487,-2.6555,-2.6692,-2.6841,-2.676,-2.6692,-2.6645,-2.6426,-2.6299,-2.6299,-2.6206,-2.5646,-2.5807,-2.5492,-2.442,-2.4133,-2.3979,-2.3825,-2.3683,-2.3436,-2.3338,-2.3168,-2.3095,-2.3108,-2.3138,-2.318,-2.318,-2.3168,-2.3138,-2.3095,-2.2698,-2.2644,-2.2882,-2.2656,-2.2644,-2.2869,-2.3007,-2.3045,-2.3083,-2.3095,-2.2681,-2.2071,-2.2272,-2.2159,-2.2209,-2.2498,-2.2871,-2.271,-2.3242,-2.3581,-2.3767,-2.3784,-2.4021,-2.4125,-2.4086,-2.406,-2.3992,-2.4099,-2.407,-2.4031,-2.4021,-2.406,-2.389,-2.3629,-2.3302,-2.2804,-2.2243,-2.1694,-2.121,-2.0936,-2.0988,-2.0712,-2.0699,-2.0699,-2.0699,-2.0699,-2.0699,-2.0699,-2.0699,-2.0699,-2.0699,-2.0699,-2.0699,-2.0823,-2.1131,-2.153,-2.1898,-2.2282,-2.2698,-2.3179,-2.3439,-2.331,-2.3325,-2.3295,-2.3131,-2.3011,-2.2987,-2.3017,-2.3116,-2.3206,-2.3161,-2.376,-2.4788,-2.4745,-2.5109,-2.5711,-2.6122,-2.6386,-2.6449,-2.6474,-2.6487,-2.6487,-2.6487,-2.6487,-2.6487,-2.6487,-2.6499,-2.6533,-2.6568,-2.6589,-2.6555,-2.6543,-2.6505,-2.6408,-2.6458,-2.632,-2.5897,-2.5955,-2.5736,-2.5229,-2.5207,-2.495,-2.4492,-2.4185,-2.3842,-2.3397,-2.3324,-2.3095,-2.315,-2.3271,-2.333,-2.333,-2.333,-2.3241,-2.3113,-2.3007,-2.297,-2.3083,-2.2957,-2.302,-2.3045,-2.3095,-2.3095,-2.3095,-2.3095,-2.3083,-2.2957,-2.297,-2.297,-2.2844,-2.2982,-2.3083,-2.3039,-2.3369,-2.3556,-2.376,-2.3936,-2.4125,-2.4125,-2.4125,-2.4125,-2.4125,-2.4125,-2.4125,-2.4125,-2.4125,-2.4125,-2.406,-2.3965,-2.3665,-2.3469,-2.2949,-2.2322,-2.1734,-2.1498,-2.1263,-2.0936,-2.0699,-2.0712,-2.0699,-2.0699,-2.0699,-2.0699,-2.0699,-2.0699,-2.0699,-2.0699,-2.0699,-2.0699,-2.0898,-2.1204,-2.1602,-2.2016,-2.2489,-2.2935,-2.3253,-2.3486,-2.3354,-2.3346,-2.3483,-2.3445,-2.331,-2.337,-2.3505,-2.3595,-2.3595,-2.4061,-2.4763,-2.4462,-2.4657,-2.5159,-2.5435,-2.5711,-2.6,-2.6361,-2.6487,-2.6487,-2.6487,-2.6487,-2.6487,-2.6487,-2.6487,-2.6487,-2.6487,-2.6487,-2.6487,-2.6487,-2.6487,-2.6474,-2.6487,-2.6354,-2.6287,-2.6312,-2.64,-2.6074,-2.5653,-2.5222,-2.5112,-2.4866,-2.456,-2.3837,-2.3786,-2.3493,-2.3281,-2.3168,-2.321,-2.3228,-2.3228,-2.321,-2.3095,-2.3095,-2.3095,-2.3095,-2.3095,-2.3095,-2.3095,-2.3095,-2.3095,-2.3095,-2.3095,-2.3095,-2.3095,-2.3083,-2.3083,-2.307,-2.3095,-2.3095,-2.3168,-2.336,-2.3569,-2.3747,-2.3936,-2.4096,-2.4125,-2.4125,-2.4125,-2.4125,-2.4125,-2.4125,-2.4125,-2.4125,-2.4125,-2.4112,-2.4083,-2.3952,-2.3809,-2.3626,-2.3041,-2.24,-2.1943,-2.1655,-2.1367,-2.1014,-2.0843,-2.0777,-2.0699,-2.0699,-2.0699,-2.0699,-2.0699,-2.0699,-2.0699,-2.0699,-2.0699,-2.0699,-2.1008,-2.1375,-2.1793,-2.2212,-2.2581,-2.2875,-2.3054,-2.3209,-2.3406,-2.3543,-2.358,-2.3595,-2.3595,-2.3595,-2.3595,-2.3595,-2.4368,-2.4562,-2.4286,-2.4519,-2.4976,-2.4988,-2.5347,-2.5896,-2.6311,-2.6487,-2.6487,-2.6487,-2.6521,-2.6521,-2.6521,-2.6533,-2.6624,-2.6568,-2.6555,-2.6555,-2.6555,-2.6533,-2.6521,-2.6487,-2.6487,-2.6487,-2.6501,-2.6544,-2.6363,-2.6044,-2.5703,-2.5608,-2.5435,-2.5065,-2.4677,-2.4348,-2.4035,-2.3452,-2.3226,-2.315,-2.3125,-2.3095,-2.3108,-2.3095,-2.3095,-2.3095,-2.3095,-2.3095,-2.3095,-2.3095,-2.3095,-2.3095,-2.3095,-2.3095,-2.3095,-2.3095,-2.3095,-2.3095,-2.3095,-2.3095,-2.3095,-2.3168,-2.33,-2.3552,-2.3861,-2.4008,-2.4096,-2.4096,-2.4125,-2.4125,-2.4125,-2.4125,-2.4125,-2.4125,-2.4125,-2.4125,-2.4112,-2.4083,-2.4083,-2.3979,-2.3861,-2.3809,-2.3156,-2.2465,-2.2047,-2.176,-2.1433,-2.1105,-2.0961,-2.0908,-2.0751,-2.0764,-2.0738,-2.0725,-2.0725,-2.0712,-2.0712,-2.0712,-2.0712,-2.08,-2.116,-2.1437,-2.1779,-2.2119,-2.2532,-2.2965,-2.3312,-2.3465,-2.3595,-2.3595,-2.3595,-2.3595,-2.3595,-2.3595,-2.3595,-2.4481,-2.4092,-2.4525,-2.5008,-2.546,-2.5536,-2.5837,-2.6273,-2.6436,-2.6487,-2.6487,-2.6487,-2.6555,-2.6624,-2.6602,-2.6636,-2.6909,-2.676,-2.6658,-2.6658,-2.6692,-2.6589,-2.6521,-2.6487,-2.6487,-2.6487,-2.6521,-2.6521,-2.6496,-2.6413,-2.6089,-2.5935,-2.5904,-2.5418,-2.5012,-2.474,-2.4425,-2.3929,-2.3559,-2.3321,-2.3283,-2.3271,-2.3258,-2.3208,-2.3158,-2.3108,-2.3108,-2.312,-2.3183,-2.3183,-2.3133,-2.3208,-2.3233,-2.3133,-2.312,-2.3095,-2.3095,-2.3145,-2.3221,-2.3158,-2.3095,-2.3168,-2.33,-2.3522,-2.3789,-2.3891,-2.3979,-2.4096,-2.4125,-2.4125,-2.4125,-2.4125,-2.4125,-2.4125,-2.4125,-2.4125,-2.4125,-2.4112,-2.4112,-2.4112,-2.4073,-2.3952,-2.3874,-2.3184,-2.2662,-2.2374,-2.2034,-2.1695,-2.1433,-2.1302,-2.0962,-2.0856,-2.0779,-2.0752,-2.0739,-2.0739,-2.0764,-2.0791,-2.0804,-2.0817,-2.0917,-2.1187,-2.1399,-2.1983,-2.2452,-2.2946,-2.3459,-2.3851,-2.4007,-2.3708,-2.3595,-2.3595,-2.3595,-2.3595,-2.3595,-2.4506,-2.4054,-2.4594,-2.4732,-2.4644,-2.4983,-2.5435,-2.5971,-2.6336,-2.6487,-2.6487,-2.6487,-2.6589,-2.6611,-2.6589,-2.6602,-2.676,-2.6671,-2.6602,-2.6602,-2.6568,-2.6521,-2.6487,-2.6487,-2.6487,-2.6487,-2.6487,-2.6487,-2.6487,-2.6487,-2.6445,-2.6312,-2.6291,-2.6021,-2.5613,-2.5066,-2.472,-2.4525,-2.4274,-2.4136,-2.4148,-2.4136,-2.4136,-2.4136,-2.3722,-2.3659,-2.3627,-2.3271,-2.3371,-2.3459,-2.3308,-2.3396,-2.3552,-2.3346,-2.3221,-2.3208,-2.3221,-2.3358,-2.354,-2.3358,-2.3108,-2.3138,-2.33,-2.3543,-2.3829,-2.387,-2.3962,-2.4067,-2.4191,-2.4282,-2.4122,-2.4138,-2.4125,-2.4125,-2.4151,-2.4178,-2.4164,-2.4191,-2.4125,-2.4125,-2.4125,-2.4086,-2.3992,-2.3861,-2.342,-2.2988,-2.2648,-2.2336,-2.2034,-2.176,-2.1472,-2.125,-2.121,-2.121,-2.121,-2.104,-2.0857,-2.0935,-2.1013,-2.1066,-2.1132,-2.0816,-2.1099,-2.1741,-2.2436,-2.3022,-2.3655,-2.4317,-2.438,-2.3955,-2.3714,-2.3595,-2.3595,-2.3595,-2.3595,-2.4474,-2.4104,-2.4757,-2.4745,-2.433,-2.4657,-2.5222,-2.5896,-2.6323,-2.6487,-2.6487,-2.6487,-2.6555,-2.6624,-2.6555,-2.6636,-2.6726,-2.6658,-2.6602,-2.6589,-2.6589,-2.6521,-2.6521,-2.6487,-2.6487,-2.6487,-2.6487,-2.6487,-2.6487,-2.6487,-2.6449,-2.6483,-2.6564,-2.632,-2.6042,-2.5426,-2.5059,-2.5046,-2.485,-2.48,-2.4763,-2.4738,-2.4757,-2.4687,-2.4381,-2.4268,-2.418,-2.3948,-2.3923,-2.3998,-2.396,-2.3885,-2.3954,-2.3916,-2.3647,-2.3597,-2.3647,-2.381,-2.3991,-2.3941,-2.3609,-2.3791,-2.3815,-2.3943,-2.4007,-2.4201,-2.452,-2.4576,-2.4627,-2.4579,-2.4566,-2.4753,-2.4775,-2.4879,-2.4557,-2.4504,-2.4387,-2.4347,-2.4204,-2.4125,-2.4125,-2.4125,-2.4099,-2.4034,-2.3864,-2.3433,-2.3067,-2.2805,-2.2635,-2.2348,-2.2047,-2.1891,-2.1786,-2.1773,-2.1773,-2.1642,-2.1577,-2.1629,-2.1668,-2.1642,-2.1564,-2.121,-2.1191,-2.1918,-2.2594,-2.3154,-2.3837,-2.4572,-2.4476,-2.4126,-2.3917,-2.3744,-2.3595,-2.3595,-2.3595,-2.4506,-2.4155,-2.5121,-2.5259,-2.4788,-2.4788,-2.5435,-2.6311,-2.6461,-2.6487,-2.6487,-2.6487,-2.6555,-2.6658,-2.6555,-2.6658,-2.6807,-2.6726,-2.6645,-2.6611,-2.6624,-2.6589,-2.6521,-2.6487,-2.6487,-2.6487,-2.6487,-2.6487,-2.6487,-2.6487,-2.6487,-2.6487,-2.6508,-2.6483,-2.6399,-2.5908,-2.5598,-2.5511,-2.5134,-2.5046,-2.5046,-2.5071,-2.5096,-2.5059,-2.4883,-2.4808,-2.4745,-2.4537,-2.4537,-2.4695,-2.4587,-2.4562,-2.4707,-2.4644,-2.4525,-2.455,-2.46,-2.4707,-2.4782,-2.4738,-2.47,-2.4525,-2.4425,-2.4564,-2.4855,-2.5039,-2.5145,-2.5094,-2.5343,-2.554,-2.5662,-2.5649,-2.5558,-2.544,-2.5118,-2.4962,-2.487,-2.487,-2.4818,-2.4478,-2.4243,-2.4138,-2.4125,-2.4112,-2.4099,-2.3851,-2.3469,-2.3248,-2.3158,-2.3014,-2.274,-2.2452,-2.2335,-2.2348,-2.2348,-2.2309,-2.2283,-2.2349,-2.2296,-2.2179,-2.2166,-2.2022,-2.2114,-2.2357,-2.2942,-2.368,-2.4238,-2.4817,-2.4885,-2.4941,-2.4201,-2.3939,-2.3744,-2.3789,-2.4029,-2.4494,-2.4092,-2.5146,-2.5485,-2.5347,-2.5335,-2.5774,-2.6411,-2.6487,-2.6487,-2.6487,-2.6487,-2.6555,-2.6624,-2.6589,-2.6589,-2.6726,-2.6658,-2.6555,-2.6555,-2.6589,-2.6568,-2.6499,-2.6487,-2.6487,-2.6487,-2.6487,-2.6487,-2.6487,-2.6487,-2.6487,-2.6487,-2.6487,-2.6487,-2.6461,-2.626,-2.6197,-2.6185,-2.6034,-2.5959,-2.5887,-2.5862,-2.5883,-2.5812,-2.5511,-2.5347,-2.531,-2.5089,-2.5096,-2.5247,-2.5159,-2.5071,-2.5197,-2.5159,-2.4863,-2.4838,-2.4825,-2.4976,-2.5335,-2.5536,-2.5511,-2.5172,-2.4933,-2.501,-2.5013,-2.5033,-2.5243,-2.5517,-2.5734,-2.5829,-2.5735,-2.5767,-2.5741,-2.5793,-2.5654,-2.568,-2.5654,-2.5746,-2.568,-2.5097,-2.4717,-2.436,-2.4217,-2.4138,-2.4125,-2.4125,-2.3799,-2.3744,-2.3694,-2.3694,-2.3537,-2.3132,-2.2923,-2.2923,-2.291,-2.2858,-2.2871,-2.2923,-2.2754,-2.2519,-2.2545,-2.2702,-2.2691,-2.2764,-2.3486,-2.422,-2.4728,-2.5271,-2.5833,-2.5824,-2.514,-2.4723,-2.4687,-2.4807,-2.5046,-2.4619,-2.4431,-2.5448,-2.5887,-2.5896,-2.5686,-2.5925,-2.6424,-2.6487,-2.6487,-2.6487,-2.6487,-2.6521,-2.6589,-2.6555,-2.6521,-2.6624,-2.6555,-2.6487,-2.6487,-2.6487,-2.6487,-2.6487,-2.6487,-2.6487,-2.6487,-2.6487,-2.6487,-2.6487,-2.6487,-2.6487,-2.6487,-2.6487,-2.6487,-2.6474,-2.6449,-2.6436,-2.6411,-2.6348,-2.6373,-2.6386,-2.6411,-2.6424,-2.6336,-2.6147,-2.59,-2.5812,-2.5661,-2.5523,-2.5674,-2.5649,-2.5511,-2.5649,-2.5611,-2.5372,-2.5385,-2.5435,-2.5598,-2.5937,-2.616,-2.6009,-2.5586,-2.541,-2.5418,-2.5517,-2.5696,-2.5835,-2.6006,-2.6026,-2.6181,-2.6322,-2.6315,-2.6315,-2.6393,-2.625,-2.6308,-2.6229,-2.6295,-2.6033,-2.5476,-2.5031,-2.4691,-2.4308,-2.4191,-2.4125,-2.4125,-2.4099,-2.4125,-2.4125,-2.4073,-2.4005,-2.3694,-2.3459,-2.3485,-2.3433,-2.3367,-2.3406,-2.3483,-2.3302,-2.3055,-2.321,-2.3406,-2.3302,-2.3295,-2.3957,-2.4627,-2.5178,-2.573,-2.6043,-2.6276,-2.6135,-2.5819,-2.5702,-2.5704,-2.5794,-2.4775,-2.4983,-2.6021,-2.6436,-2.6386,-2.5921,-2.6021,-2.6474,-2.6487,-2.6487,-2.6487,-2.6487,-2.6521,-2.6487,-2.6487,-2.6487,-2.6521,-2.6487,-2.6487,-2.6487,-2.6487,-2.6487,-2.6487,-2.6487,-2.6487,-2.6487,-2.6487,-2.6487,-2.6487,-2.6487,-2.6487,-2.6487,-2.6487,-2.6487,-2.6487,-2.6487,-2.6487,-2.6487,-2.6487,-2.6487,-2.6487,-2.6487,-2.6487,-2.6436,-2.6373,-2.6336,-2.6311,-2.6273,-2.6311,-2.6373,-2.6386,-2.6411,-2.6449,-2.6474,-2.6474,-2.6449,-2.6386,-2.6373,-2.642,-2.6543,-2.6496,-2.6219,-2.6332,-2.6458,-2.637,-2.6308,-2.6447,-2.6652,-2.6793,-2.7089,-2.7313,-2.7261,-2.7222,-2.7098,-2.6863,-2.6791,-2.6661,-2.6491,-2.6177,-2.5746,-2.5371,-2.4979,-2.4491,-2.4295,-2.4347,-2.4125,-2.4125,-2.4125,-2.4125,-2.4112,-2.4086,-2.4073,-2.3929,-2.4008,-2.3942,-2.3759,-2.3759,-2.377,-2.3861,-2.3746,-2.3926,-2.39,-2.3704,-2.3798,-2.4423,-2.4968,-2.5273,-2.5653,-2.6046,-2.6201,-2.6341,-2.6468,-2.6198,-2.6159,-2.6168,-2.4437,-2.485,-2.5561,-2.6109,-2.6436,-2.6311,-2.6361,-2.6487,-2.6487,-2.6487,-2.6487,-2.6487,-2.6487,-2.6487,-2.6487,-2.6487,-2.6487,-2.6487,-2.6487,-2.6487,-2.6487,-2.6487,-2.6487,-2.6487,-2.6487,-2.6487,-2.6487,-2.6487,-2.6487,-2.6487,-2.6487,-2.6487,-2.6487,-2.6487,-2.6487,-2.6487,-2.6487,-2.6487,-2.6487,-2.6487,-2.6487,-2.6487,-2.6487,-2.6487,-2.6487,-2.6487,-2.6487,-2.6487,-2.6487,-2.6487,-2.6487,-2.6487,-2.6487,-2.6487,-2.6487,-2.6487,-2.6474,-2.6508,-2.6624,-2.6624,-2.6658,-2.6645,-2.6658,-2.6589,-2.6589,-2.6624,-2.6794,-2.7011,-2.718,-2.7335,-2.7436,-2.7469,-2.7469,-2.7359,-2.7203,-2.7104,-2.7033,-2.6974,-2.6615,-2.6203,-2.5829,-2.5411,-2.4896,-2.4753,-2.4739,-2.4347,-2.4151,-2.4217,-2.4151,-2.4151,-2.4125,-2.4125,-2.4125,-2.4125,-2.4125,-2.3968,-2.4034,-2.4099,-2.4125,-2.4125,-2.4073,-2.4021,-2.3965,-2.414,-2.4483,-2.4794,-2.5091,-2.5425,-2.5632,-2.6108,-2.6299,-2.656,-2.6745,-2.6604,-2.6658,-2.433,-2.4833,-2.5146,-2.5598,-2.6097,-2.6147,-2.626,-2.6449,-2.6487,-2.6487,-2.6487,-2.6487,-2.6487,-2.6487,-2.6487,-2.6487,-2.6487,-2.6487,-2.6487,-2.6487,-2.6487,-2.6487,-2.6487,-2.6487,-2.6487,-2.6487,-2.6487,-2.6487,-2.6487,-2.6487,-2.6487,-2.6487,-2.6487,-2.6487,-2.6487,-2.6487,-2.6487,-2.6487,-2.6487,-2.6487,-2.6487,-2.6487,-2.6487,-2.6487,-2.6487,-2.6487,-2.6487,-2.6487,-2.6487,-2.6487,-2.6487,-2.6487,-2.6521,-2.6521,-2.6671,-2.6671,-2.6624,-2.6692,-2.676,-2.6726,-2.676,-2.676,-2.6748,-2.6645,-2.6658,-2.6658,-2.6829,-2.7011,-2.7167,-2.7323,-2.7403,-2.7436,-2.7469,-2.749,-2.7456,-2.7423,-2.7443,-2.7477,-2.7157,-2.6713,-2.6327,-2.589,-2.5589,-2.545,-2.5275,-2.5092,-2.4909,-2.4805,-2.4557,-2.4256,-2.4178,-2.4125,-2.4125,-2.4125,-2.4125,-2.4125,-2.4125,-2.4125,-2.4125,-2.4125,-2.4125,-2.4099,-2.406,-2.4147,-2.4347,-2.4578,-2.4721,-2.485,-2.5062,-2.5577,-2.5987,-2.6156,-2.6454,-2.6788,-2.6963,-2.4243,-2.4725,-2.4775,-2.5172,-2.5561,-2.5636,-2.5984,-2.6461,-2.6487,-2.6487,-2.6487,-2.6487,-2.6487,-2.6487,-2.6487,-2.6487,-2.6487,-2.6487,-2.6487,-2.6487,-2.6487,-2.6487,-2.6487,-2.6487,-2.6487,-2.6487,-2.6487,-2.6487,-2.6487,-2.6487,-2.6487,-2.6487,-2.6487,-2.6487,-2.6487,-2.6487,-2.6487,-2.6487,-2.6487,-2.6487,-2.6487,-2.6487,-2.6487,-2.6487,-2.6487,-2.6487,-2.6487,-2.6487,-2.6487,-2.6487,-2.6521,-2.6521,-2.6555,-2.6624,-2.6773,-2.6841,-2.676,-2.6863,-2.6943,-2.693,-2.693,-2.6897,-2.6829,-2.6794,-2.6794,-2.6692,-2.6794,-2.6977,-2.718,-2.7323,-2.7423,-2.7403,-2.7436,-2.7469,-2.7436,-2.7436,-2.7469,-2.7477,-2.732,-2.7,-2.6857,-2.6452,-2.6073,-2.5908,-2.572,-2.5702,-2.5545,-2.5367,-2.5158,-2.4687,-2.4387,-2.4269,-2.4138,-2.4138,-2.4125,-2.4125,-2.4125,-2.4125,-2.4125,-2.4125,-2.4125,-2.4125,-2.4125,-2.42,-2.4245,-2.42,-2.4287,-2.4447,-2.4664,-2.502,-2.5398,-2.5619,-2.6001,-2.651,-2.7074,-2.3647,-2.423,-2.4612,-2.5121,-2.5573,-2.5586,-2.5959,-2.6474,-2.6487,-2.6487,-2.6487,-2.6487,-2.6487,-2.6487,-2.6487,-2.6487,-2.6487,-2.6487,-2.6487,-2.6487,-2.6487,-2.6487,-2.6487,-2.6487,-2.6487,-2.6487,-2.6487,-2.6487,-2.6487,-2.6487,-2.6487,-2.6487,-2.6487,-2.6487,-2.6487,-2.6487,-2.6487,-2.6487,-2.6487,-2.6487,-2.6487,-2.6487,-2.6487,-2.6487,-2.6487,-2.6487,-2.6487,-2.6487,-2.6555,-2.6624,-2.6645,-2.6658,-2.6658,-2.6692,-2.6726,-2.6794,-2.6897,-2.7032,-2.7134,-2.7146,-2.7134,-2.7167,-2.7134,-2.7045,-2.693,-2.6782,-2.6782,-2.7011,-2.718,-2.7335,-2.7423,-2.7403,-2.7369,-2.7403,-2.7436,-2.7469,-2.7503,-2.7451,-2.7411,-2.7346,-2.7268,-2.7,-2.6595,-2.6373,-2.6203,-2.6033,-2.5819,-2.5675,-2.572,-2.5419,-2.4883,-2.4648,-2.423,-2.4151,-2.4138,-2.4125,-2.4125,-2.4125,-2.4125,-2.4125,-2.4125,-2.4125,-2.4125,-2.4125,-2.4112,-2.4125,-2.4125,-2.4141,-2.439,-2.4677,-2.4806,-2.502,-2.5508,-2.6014,-2.668,-2.3584,-2.4368,-2.4662,-2.4951,-2.5222,-2.5259,-2.5711,-2.6399,-2.6487,-2.6487,-2.6487,-2.6487,-2.6487,-2.6487,-2.6487,-2.6487,-2.6487,-2.6487,-2.6487,-2.6487,-2.6487,-2.6487,-2.6487,-2.6487,-2.6487,-2.6487,-2.6487,-2.6487,-2.6487,-2.6487,-2.6487,-2.6499,-2.6499,-2.6512,-2.6512,-2.6499,-2.6537,-2.6487,-2.6537,-2.6537,-2.6537,-2.6499,-2.6487,-2.6487,-2.6487,-2.6487,-2.6487,-2.6487,-2.6589,-2.6726,-2.6794,-2.693,-2.6964,-2.6998,-2.7032,-2.7066,-2.7134,-2.7201,-2.7302,-2.7335,-2.7335,-2.7335,-2.7302,-2.718,-2.7146,-2.6998,-2.6964,-2.7146,-2.7302,-2.7456,-2.7456,-2.7469,-2.7436,-2.7469,-2.7469,-2.7503,-2.7503,-2.7477,-2.7464,-2.7438,-2.7385,-2.732,-2.7033,-2.702,-2.6876,-2.6863,-2.6589,-2.6308,-2.6269,-2.6164,-2.5628,-2.5158,-2.4805,-2.4321,-2.4125,-2.4125,-2.4125,-2.4125,-2.4164,-2.4125,-2.4125,-2.4125,-2.4125,-2.4125,-2.4125,-2.4125,-2.4125,-2.4125,-2.4141,-2.4403,-2.4419,-2.4447,-2.4991,-2.5522,-2.6122,-2.3659,-2.4525,-2.455,-2.4644,-2.4713,-2.4775,-2.5398,-2.6273,-2.6461,-2.6487,-2.6487,-2.6487,-2.6487,-2.6487,-2.6487,-2.6487,-2.6487,-2.6487,-2.6487,-2.6487,-2.6487,-2.6487,-2.6487,-2.6487,-2.6487,-2.6487,-2.6487,-2.6487,-2.6487,-2.6487,-2.6499,-2.6512,-2.6562,-2.6612,-2.6612,-2.6713,-2.6864,-2.6914,-2.6914,-2.6763,-2.665,-2.6512,-2.6499,-2.6487,-2.6487,-2.6487,-2.6487,-2.6521,-2.6589,-2.676,-2.693,-2.7066,-2.7167,-2.7201,-2.7268,-2.7302,-2.7302,-2.7369,-2.7436,-2.7403,-2.7436,-2.7436,-2.7369,-2.7302,-2.7281,-2.7248,-2.7214,-2.7268,-2.7423,-2.7456,-2.7503,-2.7503,-2.7503,-2.7503,-2.7503,-2.7503,-2.7503,-2.7503,-2.7503,-2.7503,-2.749,-2.7477,-2.7477,-2.7477,-2.7477,-2.749,-2.7385,-2.7183,-2.6935,-2.6752,-2.6412,-2.5981,-2.5602,-2.5079,-2.4543,-2.4321,-2.44,-2.4295,-2.4334,-2.4204,-2.4125,-2.4125,-2.4125,-2.4125,-2.4125,-2.4125,-2.4125,-2.4125,-2.4141,-2.4171,-2.42,-2.4287,-2.4563,-2.5076,-2.555,-2.3221,-2.3421,-2.3434,-2.371,-2.4217,-2.46,-2.5184,-2.5774,-2.6311,-2.6487,-2.6487,-2.6487,-2.6487,-2.6487,-2.6487,-2.6487,-2.6487,-2.6487,-2.6487,-2.6487,-2.6487,-2.6487,-2.6487,-2.6487,-2.6487,-2.6487,-2.6487,-2.6487,-2.6487,-2.6487,-2.6487,-2.6499,-2.7014,-2.714,-2.7216,-2.7379,-2.7607,-2.7582,-2.7544,-2.7482,-2.7065,-2.6851,-2.6524,-2.6487,-2.6487,-2.6487,-2.6487,-2.6487,-2.6671,-2.6909,-2.7066,-2.7214,-2.7281,-2.7302,-2.7335,-2.7403,-2.7403,-2.7469,-2.7469,-2.7436,-2.7469,-2.7469,-2.7436,-2.7436,-2.7403,-2.7403,-2.7403,-2.7369,-2.7469,-2.7469,-2.7469,-2.7503,-2.7503,-2.749,-2.749,-2.7469,-2.7469,-2.7503,-2.7503,-2.7503,-2.749,-2.749,-2.749,-2.749,-2.749,-2.7503,-2.7503,-2.7294,-2.7268,-2.721,-2.7092,-2.6752,-2.6379,-2.6046,-2.5602,-2.4962,-2.4831,-2.4674,-2.4452,-2.4243,-2.4125,-2.4125,-2.4125,-2.4125,-2.4125,-2.4125,-2.4125,-2.4125,-2.4112,-2.4141,-2.4112,-2.42,-2.4403,-2.4649,-2.509]},{"header":{"parameterUnit":"m.s-1","parameterCategory":1,"la1":31.0,"la2":29.5877,"lo1":-88.7671,"lo2":-86.6584,"dy":0.0162,"dx":0.0185,"nx":115,"ny":88,"refTime":"2026-03-04T12:00:00:Z","depth":0,"parameterNumber":3,"parameterNumberName":"V-component_of_WINDS"},"data":[0.0,0.0,0.0,0.0,0.0,0.0,0.0,0.0,0.0,0.0,0.0,0.0,0.0,0.0,0.0,0.0,0.0,0.0,0.0,0.0,0.0,0.0,0.0,0.0,0.0,0.0,0.0,0.0,0.0,0.0,0.0,0.0,0.0,0.0,0.0,0.0,0.0,0.0,0.0,0.0,0.0,0.0,0.0,0.0,0.0,0.0,0.0,0.0,0.0,0.0,0.0,0.0,0.0,0.0,0.0,0.0,0.0,0.0,0.0,0.0,0.0,0.0,0.0,0.0,0.0,0.0,0.0,0.0,0.0,0.0,0.0,0.0,0.0,0.0,0.0,0.0,0.0,0.0,0.0,0.0,0.0,0.0,0.0,0.0,0.0,0.0,0.0,0.0,0.0,0.0,0.0,0.0,0.0,0.0,0.0,0.0,0.0,0.0,0.0,0.0,0.0,0.0,0.0,0.0,0.0,0.0,0.0,0.0,0.0,0.0,0.0,0.0,0.0,0.0,0.0,0.0,0.0,0.0,0.0,0.0,0.0,0.0,0.0,0.0,0.0,0.0,0.0,0.0,0.0,0.0,0.0,0.0,0.0,0.0,0.0,0.0,0.0,0.0,0.0,0.0,0.0,0.0,0.0,0.0,0.0,0.0,0.0,0.0,0.0,0.0,0.0,0.0,0.0,0.0,0.0,0.0,0.0,0.0,0.0,0.0,0.0,0.0,0.0,0.0,0.0,0.0,0.0,0.0,0.0,0.0,0.0,0.0,0.0,0.0,0.0,0.0,0.0,0.0,0.0,0.0,0.0,0.0,0.0,0.0,0.0,0.0,0.0,0.0,0.0,0.0,0.0,0.0,0.0,0.0,0.0,0.0,0.0,0.0,0.0,0.0,0.0,0.0,0.0,0.0,0.0,0.0,0.0,0.0,0.0,0.0,0.0,0.0,0.0,0.0,0.0,0.0,0.0,0.0,0.0,0.0,0.0,0.0,0.0,0.0,0.0,0.0,0.0,0.0,0.0,0.0,0.0,0.0,0.0,0.0,0.0,0.0,0.0,0.0,0.0,0.0,0.0,0.0,0.0,0.0,0.0,0.0,0.0,0.0,0.0,0.0,0.0,0.0,0.0,0.0,0.0,0.0,0.0,0.0,0.0,0.0,0.0,0.0,0.0,0.0,0.0,0.0,0.0,0.0,0.0,0.0,0.0,0.0,0.0,0.0,0.0,0.0,0.0,0.0,0.0,0.0,0.0,0.0,0.0,0.0,0.0,0.0,0.0,0.0,0.0,0.0,0.0,0.0,0.0,0.0,0.0,0.0,0.0,0.0,0.0,0.0,0.0,0.0,0.0,0.0,0.0,0.0,0.0,0.0,0.0,0.0,0.0,0.0,0.0,0.0,0.0,0.0,0.0,0.0,0.0,0.0,0.0,0.0,0.0,0.0,0.0,0.0,0.0,0.0,0.0,0.0,0.0,0.0,0.0,0.0,0.0,0.0,0.0,0.0,0.0,0.0,0.0,0.0,0.0,0.0,0.0,0.0,0.0,0.0,0.0,0.0,0.0,0.0,0.0,0.0,0.0,0.0,0.0,0.0,0.0,0.0,0.0,0.0,0.0,0.0,0.0,0.0,0.0,0.0,0.0,0.0,0.0,0.0,0.0,0.0,0.0,0.0,0.0,0.0,0.0,0.0,0.0,0.0,0.0,0.0,0.0,0.0,0.0,0.0,0.0,0.0,0.0,0.0,0.0,0.0,0.0,0.0,0.0,0.0,0.0,0.0,0.0,0.0,0.0,0.0,0.0,0.0,0.0,0.0,0.0,0.0,0.0,0.0,0.0,0.0,0.0,0.0,0.0,0.0,0.0,0.0,0.0,0.0,0.0,0.0,0.0,0.0,0.0,0.0,0.0,0.0,0.0,0.0,0.0,0.0,0.0,0.0,0.0,0.0,0.0,0.0,0.0,0.0,0.0,0.0,0.0,0.0,0.0,0.0,0.0,0.0,0.0,0.0,0.0,0.0,0.0,0.0,0.0,0.0,0.0,0.0,0.0,0.0,0.0,0.0,0.0,0.0,0.0,0.0,0.0,0.0,0.0,0.0,0.0,0.0,0.0,0.0,0.0,0.0,0.0,0.0,0.0,0.0,0.0,0.0,0.0,0.0,0.0,0.0,0.0,0.0,0.0,0.0,0.0,0.0,0.0,0.0,0.0,0.0,0.0,0.0,0.0,0.0,0.0,0.0,0.0,0.0,0.0,0.0,0.0,0.0,0.0,0.0,0.0,0.0,0.0,0.0,0.0,0.0,0.0,0.0,0.0,0.0,0.0,0.0,0.0,0.0,0.0,0.0,0.0,0.0,0.0,0.0,0.0,0.0,0.0,0.0,0.0,0.0,0.0,0.0,0.0,0.0,0.0,0.0,0.0,0.0,0.0,0.0,0.0,0.0,0.0,0.0,0.0,0.0,0.0,0.0,0.0,0.0,0.0,0.0,0.0,0.0,0.0,0.0,0.0,0.0,0.0,0.0,0.0,0.0,0.0,0.0,0.0,0.0,0.0,0.0,0.0,0.0,0.0,0.0,0.0,0.0,0.0,0.0,0.0,0.0,0.0,0.0,0.0,0.0,0.0,0.0,0.0,0.0,0.0,0.0,0.0,0.0,0.0,0.0,0.0,0.0,0.0,0.0,0.0,0.0,0.0,0.0,0.0,0.0,0.0,0.0,0.0,0.0,0.0,0.0,0.0,0.0,0.0,0.0,0.0,0.0,0.0,0.0,0.0,0.0,0.0,0.0,0.0,0.0,0.0,0.0,0.0,0.0,0.0,0.0,0.0,0.0,0.0,0.0,0.0,0.0,0.0,0.0,0.0,0.0,0.0,0.0,0.0,0.0,0.0,0.0,0.0,0.0,0.0,0.0,0.0,0.0,0.0,0.0,0.0,0.0,0.0,0.0,0.0,0.0,0.0,0.0,0.0,0.0,0.0,0.0,0.0,0.0,0.0,0.0,0.0,0.0,0.0,0.0,0.0,0.0,0.0,0.0,0.0,0.0,0.0,0.0,0.0,0.0,0.0,0.0,0.0,0.0,0.0,0.0,0.0,0.0,0.0,0.0,0.0,0.0,0.0,0.0,0.0,0.0,0.0,0.0,0.0,0.0,0.0,0.0,0.0,0.0,0.0,0.0,0.0,0.0,0.0,0.0,0.0,0.0,0.0,0.0,0.0,0.0,0.0,0.0,0.0,0.0,0.0,0.0,0.0,0.0,0.0,0.0,0.0,0.0,0.0,0.0,0.0,0.0,0.0,0.0,0.0,0.0,0.0,0.0,0.0,0.0,0.0,0.0,0.0,0.0,0.0,0.0,0.0,0.0,0.0,0.0,0.0,0.0,0.0,0.0,0.0,0.0,0.0,0.0,0.0,0.0,0.0,0.0,0.0,0.0,0.0,0.0,0.0,0.0,0.0,0.0,0.0,0.0,0.0,0.0,0.0,0.0,0.0,0.0,0.0,0.0,0.0,0.0,0.0,0.0,0.0,0.0,0.0,0.0,0.0,0.0,0.0,0.0,0.0,0.0,0.0,0.0,0.0,0.0,0.0,0.0,0.0,0.0,0.0,0.0,0.0,0.0,0.0,0.0,0.0,0.0,0.0,0.0,0.0,0.0,0.0,0.0,0.0,0.0,0.0,0.0,0.0,0.0,0.0,0.0,0.0,0.0,0.0,0.0,0.0,0.0,0.0,0.0,0.0,0.0,0.0,0.0,0.0,0.0,0.0,0.0,0.0,0.0,0.0,0.0,0.0,0.0,0.0,0.0,0.0,0.0,0.0,0.0,0.0,0.0,0.0,0.0,0.0,0.0,0.0,0.0,0.0,0.0,0.0,0.0,0.0,0.0,0.0,0.0,0.0,0.0,0.0,0.0,0.0,0.0,0.0,0.0,0.0,0.0,0.0,0.0,0.0,0.0,0.0,0.0,0.0,0.0,0.0,0.0,0.0,0.0,0.0,0.0,0.0,0.0,0.0,0.0,0.0,0.0,0.0,0.0,0.0,0.0,0.0,0.0,0.0,0.0,0.0,0.0,0.0,0.0,0.0,0.0,0.0,0.0,0.0,0.0,0.0,0.0,0.0,0.0,0.0,0.0,0.0,0.0,0.0,0.0,0.0,0.0,0.0,0.0,0.0,0.0,0.0,0.0,0.0,0.0,0.0,0.0,0.0,0.0,0.0,0.0,0.0,0.0,0.0,0.0,0.0,0.0,0.0,0.0,0.0,0.0,0.0,0.0,0.0,0.0,0.5899,0.0,0.0,0.0,0.0,0.0,0.0,0.0,0.0,0.0,0.0,0.0,0.0,0.0,0.0,0.0,0.0,0.0,0.0,0.0,0.0,0.0,0.0,0.0,0.0,0.0,0.0,0.0,0.0,0.0,0.0,0.0,0.0,0.0,0.0,0.0,0.0,0.0,0.0,0.0,0.0,0.0,0.0,0.0,0.0,0.0,0.0,0.0,0.0,0.0,0.0,0.0,0.0,0.0,0.0,0.0,0.0,0.0,0.0,0.0,0.0,0.0,0.0,0.0,0.0,0.0,0.0,0.0,0.0,0.0,0.0,0.0,0.0,0.0,0.0,0.0,0.0,0.0,0.0,0.0,0.0,0.0,0.0,0.0,0.0,0.0,0.0,0.0,0.0,0.0,0.0,0.0,0.0,0.0,0.0,0.0,0.0,0.0,0.0,0.0,0.0,0.0,0.0,0.0,0.0,0.0,0.0,0.0,0.0,0.0,0.0,0.621,0.6525,0.6234,0.5886,0.5528,0.0,0.0,0.0,0.0,0.0,0.0,0.0,0.0,0.0,0.0,0.0,0.0,0.0,0.0,0.0,0.0,0.0,0.0,0.0,0.0,0.0,0.0,0.0,0.0,0.0,0.0,0.0,0.0,0.0,0.0,0.0,0.0,0.0,0.0,0.0,0.0,0.0,0.0,0.0,0.0,0.0,0.0,0.0,0.0,0.0,0.0,0.0,0.0,0.0,0.0,0.0,0.0,0.0,0.0,0.0,0.0,0.0,0.0,0.0,0.0,0.0,0.0,0.0,0.0,0.0,0.0,0.0,0.0,0.0,0.0,0.0,0.0,0.0,0.0,0.0,0.0,0.0,0.0,0.0,0.0,0.0,0.0,0.0,0.0,0.0,0.0,0.0,0.0,0.0,0.0,0.0,0.0,0.0,0.0,0.0,0.0,0.0,0.0,0.0,0.0,0.0,0.0,0.0,0.0,0.0,0.0,0.0,0.0,0.0,0.0,0.0,0.0,0.6354,0.587,0.5255,0.0,0.0,0.0,0.0,0.0,0.0,0.0,0.0,0.0,0.0,0.0,0.0,0.0,0.0,0.0,0.0,0.0,0.0,0.0,0.0,0.0,0.0,0.0,0.0,0.0,0.0,0.0,0.0,0.0,0.0,0.0,0.0,0.0,0.0,0.0,0.0,0.0,0.0,0.0,0.0,0.0,0.0,0.0,0.0,0.0,0.0,0.0,0.0,0.0,0.0,0.0,0.0,0.0,0.0,0.0,0.0,0.0,0.0,0.0,0.0,0.0,0.0,0.0,0.0,0.0,0.0,0.0,0.0,0.0,0.0,0.0,0.0,0.0,0.0,0.0,0.0,0.0,0.0,0.0,0.0,0.0,0.0,0.0,0.0,0.0,0.0,0.0,0.0,0.0,0.0,0.0,0.0,0.0,0.0,0.0,0.0,0.0,0.0,0.0,0.0,0.0,0.0,0.0,0.0,0.0,0.0,0.0,0.0,0.0,0.0,0.6286,0.7026,0.6604,0.0,0.5882,0.0,0.0,0.0,0.0,0.0,0.0,0.0,0.0,0.0,0.0,0.0,0.0,0.0,0.0,0.0,0.0,0.0,0.0,0.0,0.0,0.0,0.0,0.0,0.0,0.0,0.0,0.0,0.0,0.0,0.0,0.0,0.0,0.0,0.0,0.0,0.0,0.0,0.0,0.0,0.0,0.0,0.0,0.0,0.0,0.0,0.0,0.0,0.0,0.0,0.0,0.0,0.0,0.0,0.0,0.0,0.0,0.0,0.0,0.0,0.0,0.0,0.0,0.0,0.0,0.0,0.0,0.0,0.0,0.0,0.0,0.0,0.0,0.0,0.0,0.0,0.0,0.0,0.0,0.0,0.0,0.0,0.0,0.0,0.0,0.0,0.0,0.0,0.0,0.0,0.0,0.0,0.0,0.0,0.0,0.0,0.0,0.0,0.0,0.0,0.0,0.0,0.0,0.0,0.0,0.0,0.0,0.0,0.0,0.0,0.0,0.6445,0.6687,0.627,0.6082,0.0,0.0,0.0,0.0,0.0,0.0,0.0,0.0,0.0,0.0,0.0,0.0,0.0,0.0,0.0,0.0,0.0,0.0,0.0,0.0,0.0,0.0,0.0,0.0,0.0,0.0,0.0,0.0,0.0,0.0,0.0,0.0,0.0,0.0,0.0,0.0,0.0,0.0,0.0,0.0,0.0,0.0,0.0,0.0,0.0,0.0,0.0,0.0,0.0,0.0,0.0,0.0,0.0,0.0,0.0,0.0,0.0,0.0,0.0,0.0,0.0,0.0,0.0,0.0,0.0,0.0,0.0,0.0,0.0,0.0,0.0,0.0,0.0,0.0,0.0,0.0,0.0,0.0,0.0,0.0,0.0,0.0,0.0,0.0,0.0,0.0,0.0,0.0,0.0,0.0,0.0,0.0,0.0,0.0,0.0,0.0,0.0,0.0,0.0,0.0,0.0,0.0,0.0,0.0,0.0,0.0,0.0,0.0,0.0,0.0,0.6259,0.0,0.6394,0.6113,0.6056,0.6242,0.0,0.0,0.0,0.0,0.0,0.0,0.0,0.0,0.0,0.0,0.0,0.0,0.0,0.0,0.0,0.0,0.0,0.0,0.0,0.0,0.0,0.0,0.0,0.0,0.0,0.0,0.0,0.0,0.0,0.0,0.0,0.0,0.0,0.0,0.0,0.0,0.0,0.0,0.0,0.0,0.0,0.0,0.0,0.0,0.0,0.0,0.0,0.0,0.0,0.0,0.0,0.0,0.0,0.0,0.0,0.0,0.0,0.0,0.0,0.0,0.0,0.0,0.0,0.0,0.0,0.0,0.0,0.0,0.0,0.0,0.0,0.0,0.0,0.0,0.0,0.0,0.0,0.0,0.0,0.0,0.0,0.0,0.0,0.0,0.0,0.0,0.0,0.0,0.0,0.0,0.0,0.0,0.0,0.0,0.0,0.0,0.0,0.0,0.0,0.0,0.0,0.0,0.0,0.0,0.0,0.0,0.0,0.0,0.0,0.6022,0.6025,0.6406,0.6384,0.6201,0.0,0.0,0.0,0.0,0.0,0.0,0.0,0.0,0.0,0.0,0.0,0.0,0.0,0.0,0.0,0.0,0.0,0.0,0.0,0.0,0.0,0.0,0.0,0.0,0.0,0.0,0.0,0.0,0.0,0.0,0.0,0.0,0.0,0.0,0.0,0.0,0.0,0.0,0.0,0.0,0.0,0.0,0.0,0.0,0.0,0.0,0.0,0.0,0.0,0.0,0.0,0.0,0.0,0.0,0.0,0.0,0.0,0.0,0.0,0.0,0.0,0.0,0.0,0.0,0.0,0.0,0.0,0.0,0.0,0.0,0.0,0.0,0.0,0.0,0.0,0.0,0.0,0.0,0.0,0.0,0.0,0.0,0.0,0.0,0.0,0.0,0.0,0.0,0.0,0.0,0.0,0.0,0.0,0.0,0.0,0.0,0.0,0.0,0.0,0.0,0.0,0.0,0.0,0.0,0.0,0.0,0.0,0.0,0.0,0.5566,0.5714,0.6135,0.6797,0.632,0.6064,0.0,0.0,0.0,0.0,0.0,0.0,0.0,0.0,0.0,0.0,0.0,0.0,0.0,0.0,0.0,0.0,0.0,0.0,0.0,0.0,0.0,0.0,0.0,0.0,0.0,0.0,0.0,0.0,0.0,0.0,0.0,0.0,0.0,0.0,0.0,0.0,0.0,0.0,0.0,0.0,0.0,0.0,0.0,0.0,0.0,0.0,0.0,0.0,0.0,0.0,0.0,0.0,0.0,0.0,0.0,0.0,0.0,0.0,0.0,0.0,0.0,0.0,0.0,0.0,0.0,0.0,0.0,0.0,0.0,0.0,0.0,0.0,0.0,0.0,0.0,0.0,0.0,0.0,0.0,0.0,0.0,0.0,0.0,0.0,0.0,0.0,0.0,0.0,0.0,0.0,0.0,0.0,0.0,0.0,0.0,0.0,0.0,0.0,0.0,0.0,0.0,0.0,0.0,0.0,0.0,0.0,0.0,0.0,0.0,0.5526,0.0,0.6438,0.0,0.6299,0.5975,0.0,0.0,0.0,0.0,0.0,0.0,0.0,0.0,0.0,0.0,0.0,0.0,0.0,0.0,0.0,0.0,0.0,0.0,0.0,0.0,0.0,0.0,0.0,0.0,0.0,0.0,0.0,0.0,0.0,0.0,0.0,0.0,0.0,0.0,0.0,0.0,0.0,0.0,0.0,0.0,0.0,0.0,0.0,0.0,0.0,0.0,0.0,0.0,0.0,0.0,0.0,0.0,0.0,0.0,0.0,0.0,0.0,0.0,0.0,0.0,0.0,0.0,0.0,0.0,0.0,0.0,0.0,0.0,0.0,0.0,0.0,0.0,0.0,0.0,0.0,0.0,0.0,0.0,0.0,0.0,0.0,0.0,0.0,0.0,0.0,0.0,0.0,0.0,0.0,0.0,0.0,0.0,0.0,0.0,0.0,0.0,0.0,0.0,0.0,0.0,0.0,0.0,0.0,0.0,0.0,0.0,0.0,0.0,0.5536,0.6336,0.6804,0.6836,0.6423,0.6396,0.5985,0.0,0.0,0.0,0.0,0.0,0.0,0.0,0.0,0.0,0.0,0.0,0.0,0.0,0.0,0.0,0.0,0.0,0.0,0.0,0.0,0.0,0.0,0.0,0.0,0.0,0.0,0.0,0.0,0.0,0.0,0.0,0.0,0.0,0.0,0.0,0.0,0.0,0.0,0.0,0.0,0.0,0.0,0.0,0.0,0.0,0.0,0.0,0.0,0.0,0.0,0.0,0.0,0.0,0.0,0.0,0.0,0.0,0.0,0.0,0.0,0.0,0.0,0.0,0.0,0.0,0.0,0.0,0.0,0.0,0.0,0.0,0.0,0.0,0.0,0.0,0.0,0.0,0.0,0.0,0.0,0.0,0.0,0.0,0.0,0.0,0.0,0.0,0.0,0.0,0.0,0.0,0.0,0.0,0.0,0.0,0.0,0.0,0.0,0.0,0.0,0.0,0.0,0.0,0.0,0.0,0.0,0.0,0.0,0.0,0.5988,0.6452,0.6744,0.6855,0.6334,0.604,0.0,0.0,0.0,0.0,0.0,0.0,0.0,0.0,0.0,0.0,0.0,0.0,0.0,0.0,0.0,0.0,0.0,0.0,0.0,0.0,0.0,0.0,0.0,0.0,0.0,0.0,0.0,0.0,0.0,0.0,0.0,0.0,0.0,0.0,0.0,0.0,0.0,0.0,0.0,0.0,0.0,0.0,0.0,0.0,0.0,0.0,0.0,0.0,0.0,0.0,0.0,0.0,0.0,0.0,0.0,0.0,0.0,0.0,0.0,0.0,0.0,0.0,0.0,0.0,0.0,0.0,0.0,0.0,0.0,0.0,0.0,0.0,0.0,0.0,0.0,0.0,0.0,0.0,0.0,0.0,0.0,0.0,0.0,0.0,0.0,0.0,0.0,0.0,0.0,0.0,0.0,0.0,0.0,0.0,0.0,0.0,0.0,0.0,0.0,0.0,0.0,0.0,0.0,0.0,0.0,0.0,0.0,0.0,0.0,0.6517,0.6818,0.7042,0.717,0.6688,0.6358,0.6253,0.0,0.0,0.0,0.0,0.0,0.0,0.0,0.0,0.0,0.0,0.0,0.0,0.0,0.0,0.0,0.0,0.0,0.0,0.0,0.0,0.0,0.0,0.0,0.0,0.0,0.0,0.0,0.0,0.0,0.0,0.0,0.0,0.0,0.0,0.0,0.0,0.0,0.0,0.0,0.0,0.0,0.0,0.0,0.0,0.0,0.0,0.0,0.0,0.0,0.0,0.0,0.0,0.0,0.0,0.0,0.0,0.0,0.0,0.0,0.0,0.0,0.0,0.0,0.0,0.0,0.0,0.0,0.0,0.0,0.0,0.0,0.0,0.0,0.0,0.0,0.0,0.0,0.0,0.0,0.0,0.0,0.0,0.0,0.0,0.0,0.0,0.0,0.0,0.0,0.0,0.0,0.0,0.0,0.0,0.0,0.0,0.0,0.0,0.0,0.0,0.0,0.0,0.0,0.0,0.0,0.0,0.0,0.0,0.7725,0.7799,0.7679,0.736,0.7296,0.6895,0.0,0.0,0.0,0.0,0.0,0.0,0.0,0.0,0.0,0.0,0.0,0.0,0.0,0.0,0.0,0.0,0.0,0.0,0.0,0.0,0.0,0.0,0.0,0.0,0.0,0.0,0.0,0.0,0.0,0.0,0.0,0.0,0.0,0.0,0.0,0.0,0.0,0.0,0.0,0.0,0.0,0.0,0.0,0.0,0.0,0.0,0.0,0.0,0.0,0.0,0.0,0.0,0.0,0.0,0.0,0.0,0.0,0.0,0.0,0.0,0.0,0.0,0.0,0.0,0.0,0.0,0.0,0.0,0.0,0.0,0.0,0.0,0.0,0.0,0.0,0.0,0.0,0.0,0.0,0.0,0.0,0.0,0.0,0.0,0.0,0.0,0.0,0.0,0.0,0.0,0.0,0.0,0.0,0.0,0.0,0.0,0.0,0.0,0.0,0.0,0.0,0.0,0.0,0.0,0.0,0.0,0.0,0.0,0.0,0.7962,0.8203,0.8122,0.7756,0.7511,0.7088,0.0,0.0,0.0,0.0,0.0,0.0,0.0,0.0,0.0,0.0,0.0,0.0,0.0,0.0,0.0,0.0,0.0,0.0,0.0,0.0,0.0,0.0,0.0,0.0,0.0,0.0,0.0,0.0,0.0,0.0,0.0,0.0,0.0,0.0,0.0,0.0,0.0,0.0,0.0,0.0,0.0,0.0,0.0,0.0,0.0,0.0,0.0,0.0,0.0,0.0,0.0,0.0,0.0,0.0,0.0,0.0,0.0,0.0,0.0,0.0,0.0,0.0,0.0,0.0,0.0,0.0,0.0,0.0,0.0,0.0,0.0,0.0,0.0,0.0,0.0,0.0,0.0,0.0,0.0,0.0,0.0,0.0,0.0,0.0,0.0,0.0,0.0,0.0,0.0,0.0,0.0,0.0,0.0,0.0,0.0,0.0,0.0,0.0,0.0,0.0,0.0,0.0,0.0,0.0,0.0,0.0,0.0,0.0,0.8018,0.8673,0.8855,0.8748,0.8358,0.8419,0.8106,0.0,0.0,0.0,0.0,0.0,0.0,0.0,0.0,0.0,0.0,0.0,0.0,0.0,0.0,0.0,0.0,0.0,0.0,0.0,0.0,0.0,0.0,0.0,0.0,0.0,0.0,0.0,0.0,0.0,0.0,0.0,0.0,0.0,0.0,0.0,0.0,0.0,0.0,0.0,0.0,0.0,0.0,0.0,0.0,0.0,0.0,0.0,0.0,0.0,0.0,0.0,0.0,0.0,0.0,0.0,0.0,0.0,0.0,0.0,0.0,0.0,0.0,0.0,0.0,0.0,0.0,0.0,0.0,0.0,0.0,0.0,0.0,0.0,0.0,0.0,0.0,0.0,0.0,0.0,0.0,0.0,0.0,0.0,0.0,0.0,0.0,0.0,0.0,0.0,0.0,0.0,0.0,0.0,0.0,0.0,0.0,0.0,0.0,0.0,0.0,0.0,0.0,0.0,0.0,0.0,0.0,0.0,0.0,0.865,0.9424,0.9489,0.9344,0.9071,0.96,0.9417,0.0,0.0,0.0,0.0,0.0,0.0,0.0,0.0,0.0,0.0,0.0,0.0,0.0,0.0,0.0,0.0,0.0,0.0,0.0,0.0,0.0,0.0,0.0,0.0,0.0,0.0,0.0,0.0,0.0,0.0,0.0,0.0,0.0,0.0,0.0,0.0,0.0,0.0,0.0,0.0,0.0,0.0,0.0,0.0,0.0,0.0,0.0,0.0,0.0,0.0,0.0,0.0,0.0,0.0,0.0,0.0,0.0,0.0,0.0,0.0,0.0,0.0,0.0,0.0,0.0,0.0,0.0,0.0,0.0,0.0,0.0,0.0,0.0,0.0,0.0,0.0,0.0,0.0,0.0,0.0,0.0,0.0,0.0,0.0,0.0,0.0,0.0,0.0,0.0,0.0,0.0,0.0,0.0,0.0,0.0,0.0,0.0,0.0,0.0,0.0,0.0,0.0,0.0,0.0,0.0,0.0,0.0,0.0,0.8928,0.9101,0.9369,0.9475,0.9396,0.9725,0.9431,0.0,0.0,0.0,0.0,0.0,0.0,0.0,0.0,0.0,0.0,0.0,0.0,0.0,0.0,0.0,0.0,0.0,0.0,0.0,0.0,0.0,0.0,0.0,0.0,0.0,0.0,0.0,0.0,0.0,0.0,0.0,0.0,0.0,0.0,0.0,0.0,0.0,0.0,0.0,0.0,0.0,0.0,0.0,0.0,0.0,0.0,0.0,0.0,0.3446,0.0,0.0,0.0,0.0,0.0,0.0,0.0,0.0,0.0,0.0,0.0,0.0,0.0,0.0,0.0,0.0,0.0,0.0,0.0,0.0,0.0,0.0,0.0,0.0,0.0,0.0,0.0,0.0,0.0,0.0,0.0,0.0,0.0,0.0,0.0,0.0,0.0,0.0,0.0,0.0,0.0,0.0,0.0,0.0,0.0,0.0,0.0,0.0,0.0,0.0,0.0,0.0,0.0,0.0,0.0,0.0,0.0,0.0,0.0,0.9523,0.9434,0.9594,0.9686,0.9711,1.0064,0.9924,0.0,0.0,0.0,0.0,0.0,0.0,0.0,0.0,0.0,0.0,0.0,0.0,0.0,0.0,0.0,0.0,0.0,0.0,0.0,0.0,0.0,0.0,0.0,0.0,0.0,0.0,0.0,0.0,0.0,0.0,0.0,0.0,0.0,0.0,0.0,0.0,0.0,0.0,0.0,0.0,0.0,0.0,0.0,0.0,0.0,0.0,0.0,0.0,0.0,0.0,0.0,0.0,0.0,0.0,0.0,0.0,0.0,0.0,0.0,0.0,0.0,0.0,0.0,0.0,0.0,0.0,0.0,0.0,0.0,0.0,0.0,0.0,0.0,0.0,0.0,0.0,0.0,0.0,0.0,0.0,0.0,0.0,0.0,0.0,0.0,0.0,0.0,0.0,0.0,0.0,0.0,0.0,0.0,0.0,0.0,0.0,0.0,0.0,0.0,0.0,0.0,0.0,0.0,0.0,0.0,0.0,0.0,0.9527,1.007,0.9892,0.9893,0.9893,0.9905,1.0331,1.0355,0.9918,0.0,0.0,0.0,0.0,0.0,0.0,0.0,0.0,0.0,0.0,0.0,0.0,0.0,0.0,0.0,0.0,0.0,0.0,0.0,0.0,0.0,0.0,0.0,0.0,0.0,0.0,0.0,0.0,0.0,0.0,0.0,0.0,0.0,0.0,0.0,0.0,0.0,0.0,0.4065,0.5344,0.0,0.0,0.0,0.0,0.0,0.0,0.0,0.0,0.464,0.0,0.0,0.0,0.0,0.0,0.0,0.0,0.0,0.0,0.0,0.0,0.0,0.0,0.0,0.0,0.0,0.0,0.0,0.0,0.0,0.0,0.0,0.0,0.0,0.0,0.0,0.0,0.0,0.0,0.0,0.0,0.0,0.0,0.0,0.0,0.0,0.0,0.0,0.0,0.0,0.0,0.0,0.0,0.0,0.0,0.0,0.0,0.0,0.0,0.0,0.0,0.0,0.0,0.0,0.0,0.0,0.9579,0.9841,0.9941,0.9893,0.9893,0.9893,0.9905,0.9993,0.998,0.9893,0.0,0.0,0.0,0.0,0.0,0.0,0.0,0.0,0.0,0.0,0.0,0.0,0.0,0.0,0.0,0.0,0.0,0.0,0.0,0.0,0.0,0.0,0.0,0.0,0.0,0.0,0.0,0.0,0.0,0.0,0.0,0.0,0.0,0.0,0.0,0.0,0.0,0.0,0.0,0.6742,0.7585,0.0,0.0,0.0,0.0,0.0,0.0,0.0,0.0,0.4892,0.0,0.0,0.0,0.0,0.0,0.0,0.0,0.0,0.0,0.0,0.0,0.0,0.0,0.0,0.0,0.0,0.0,0.0,0.0,0.0,0.0,0.0,0.0,0.0,0.0,0.0,0.0,0.0,0.0,0.0,0.0,0.0,0.0,0.0,0.0,0.0,0.0,0.0,0.0,0.0,0.0,0.0,0.0,0.0,0.0,0.0,0.0,0.0,0.0,0.0,0.0,0.0,0.0,0.0,0.0,0.9479,1.0044,1.0319,1.0306,1.0044,1.0044,1.0294,1.0043,0.9893,0.0,0.0,0.0,0.0,0.0,0.0,0.0,0.0,0.0,0.0,0.0,0.0,0.0,0.0,0.0,0.0,0.0,0.0,0.0,0.0,0.0,0.0,0.0,0.0,0.0,0.0,0.0,0.0,0.0,0.0,0.0,0.0,0.0,0.0,0.0,0.0,0.0,0.0,0.0,0.0,0.7506,0.7955,0.7422,0.0,0.0,0.0,0.0,0.0,0.0,0.5928,0.5456,0.0,0.0,0.0,0.0,0.0,0.0,0.0,0.0,0.0,0.0,0.0,0.0,0.0,0.0,0.0,0.0,0.0,0.0,0.0,0.0,0.0,0.0,0.0,0.0,0.0,0.0,0.0,0.0,0.0,0.0,0.0,0.0,0.0,0.0,0.0,0.0,0.0,0.0,0.0,0.0,0.0,0.0,0.0,0.0,0.0,0.0,0.0,0.0,0.0,0.0,0.0,0.0,0.0,0.0,0.0,0.9277,1.0119,1.0545,1.0532,1.0131,1.0093,1.0519,1.0231,0.9943,0.0,0.0,0.0,0.0,0.0,0.0,0.0,0.0,0.0,0.0,0.0,0.0,0.0,0.0,0.0,0.0,0.0,0.0,0.0,0.0,0.0,0.0,0.0,0.0,0.0,0.0,0.0,0.0,0.0,0.0,0.0,0.0,0.0,0.0,0.0,0.0,0.0,0.0,0.0,0.0,0.0,0.8307,0.7668,0.7666,0.0,0.0,0.0,0.0,0.7463,0.6862,0.0,0.0,0.0,0.0,0.0,0.0,0.0,0.0,0.0,0.0,0.0,0.0,0.0,0.0,0.0,0.0,0.0,0.0,0.0,0.0,0.0,0.0,0.0,0.0,0.0,0.0,0.0,0.0,0.0,0.0,0.0,0.0,0.0,0.0,0.0,0.0,0.0,0.0,0.0,0.0,0.0,0.0,0.0,0.0,0.0,0.0,0.0,0.0,0.0,0.0,0.0,0.0,0.0,0.0,0.0,0.0,0.978,0.9931,1.0006,0.9993,0.9943,0.9931,1.0006,1.0394,1.0156,0.0,0.0,0.0,0.0,0.0,0.0,0.0,0.0,0.0,0.0,0.0,0.0,0.0,0.0,0.0,0.0,0.0,0.0,0.0,0.0,0.0,0.0,0.0,0.0,0.0,0.0,0.0,0.0,0.0,0.0,0.0,0.0,0.0,0.0,0.0,0.0,0.0,0.0,0.0,0.0,0.0,0.9341,0.8338,0.8587,0.8875,0.0,0.0,0.8047,0.8175,0.8075,0.0,0.0,0.0,0.0,0.0,0.0,0.0,0.0,0.0,0.0,0.0,0.0,0.0,0.0,0.0,0.0,0.0,0.0,0.0,0.0,0.0,0.0,0.0,0.0,0.0,0.0,0.0,0.0,0.0,0.0,0.0,0.0,0.0,0.0,0.0,0.0,0.0,0.0,0.0,0.0,0.0,0.0,0.0,0.0,0.0,0.0,0.0,0.0,0.0,0.0,0.0,0.0,0.0,0.0,0.0,0.8814,0.9842,0.9893,1.0043,1.0331,1.0056,1.0043,1.033,1.0568,1.0207,0.0,0.0,0.0,0.0,0.0,0.0,0.0,0.0,0.0,0.0,0.0,0.0,0.0,0.0,0.0,0.0,0.0,0.0,0.0,0.0,0.0,0.0,0.0,0.0,0.0,0.0,0.0,0.0,0.0,0.0,0.0,0.0,0.0,0.0,0.0,0.0,0.0,0.0,0.0,0.0,0.0,0.0,0.8763,0.8949,0.0,0.0,0.0,0.8614,0.9516,0.0,0.0,0.0,0.0,0.0,0.0,0.0,0.0,0.0,0.0,0.0,0.0,0.0,0.0,0.0,0.0,0.0,0.0,0.0,0.0,0.0,0.0,0.0,0.0,0.0,0.0,0.0,0.0,0.0,0.0,0.0,0.0,0.0,0.0,0.0,0.0,0.0,0.0,0.0,0.0,0.0,0.0,0.0,0.0,0.0,0.0,0.0,0.0,0.0,0.0,0.0,0.0,0.0,0.0,0.0,0.0,0.0,0.9868,0.997,1.0159,1.0469,1.0184,1.0199,1.0604,1.0744,0.0,0.0,0.0,0.0,0.0,0.0,0.0,0.0,0.0,0.0,0.0,0.0,0.0,0.0,0.0,0.0,0.0,0.0,0.0,0.0,0.0,0.0,0.0,0.0,0.0,0.0,0.0,0.337,0.0,0.0,0.0,0.0,0.0,0.0,0.0,0.0,0.0,0.0,0.0,0.0,0.0,0.0,0.8789,0.9333,0.9524,0.9691,0.0,0.0,0.9266,1.0319,0.9116,0.8102,0.0,0.0,0.0,0.0,0.0,0.0,0.0,0.0,0.0,0.0,0.0,0.0,0.0,0.0,0.0,0.0,0.0,0.0,0.0,0.0,0.0,0.0,0.0,0.0,0.0,0.0,0.0,0.0,0.0,0.0,0.0,0.0,0.0,0.0,0.0,0.0,0.0,0.0,0.0,0.0,0.0,0.0,0.0,0.0,0.0,0.0,0.0,0.0,0.0,0.0,0.0,0.0,0.0,0.0,0.0,0.9881,1.0135,1.0173,0.9969,1.0161,1.031,1.0438,1.0913,1.0488,0.0,0.0,0.0,0.0,0.0,0.0,0.0,0.0,0.0,0.0,0.0,0.0,0.0,0.0,0.0,0.0,0.0,0.0,0.0,0.0,0.0,0.0,0.0,0.0,0.0,0.0,0.0,0.0,0.0,0.0,0.0,0.0,0.0,0.0,0.0,0.0,0.0,0.0,0.0,0.0,0.0,0.9606,1.0155,1.0651,1.0795,0.0,0.0,1.0407,1.0031,0.983,0.9404,0.8462,0.0,0.0,0.0,0.0,0.0,0.0,0.0,0.0,0.0,0.0,0.0,0.0,0.0,0.0,0.0,0.0,0.0,0.0,0.0,0.0,0.0,0.0,0.0,0.0,0.0,0.0,0.0,0.0,0.0,0.0,0.0,0.0,0.0,0.0,0.0,0.0,0.0,0.0,0.0,0.0,0.0,0.0,0.0,0.0,0.0,0.0,0.0,0.0,0.0,0.0,0.0,0.0,0.0,0.9263,1.0385,1.0881,1.1106,1.1016,1.1106,1.1169,1.1194,1.1399,1.0921,0.0,0.0,0.0,0.0,0.0,0.0,0.0,0.0,0.0,0.0,0.0,0.0,0.0,0.0,0.0,0.0,0.0,0.0,0.0,0.0,0.0,0.0,0.0,0.0,0.0,0.0,0.0,0.0,0.4088,0.4363,0.4368,0.0,0.0,0.0,0.0,0.0,0.0,0.0,0.0,0.0,0.0,0.9694,1.0219,1.0341,0.0,0.0,1.0455,1.0383,1.086,1.0069,0.9378,0.9303,0.8374,0.0,0.0,0.0,0.0,0.0,0.0,0.0,0.0,0.0,0.0,0.0,0.0,0.0,0.0,0.0,0.0,0.0,0.0,0.0,0.0,0.0,0.0,0.0,0.0,0.0,0.0,0.0,0.0,0.0,0.0,0.0,0.0,0.0,0.0,0.0,0.0,0.0,0.0,0.0,0.0,0.0,0.0,0.0,0.0,0.0,0.0,0.0,0.0,0.0,0.0,0.0,0.0,0.9619,1.1024,1.1561,1.1916,1.2044,1.2108,1.2076,1.1894,1.1883,1.1274,0.0,0.0,0.0,0.0,0.0,0.0,0.0,0.0,0.0,0.0,0.0,0.0,0.0,0.0,0.0,0.0,0.0,0.0,0.0,0.0,0.0,0.0,0.0,0.0,0.0,0.0,0.0,0.0,0.4704,0.4863,0.4599,0.0,0.0,0.0,0.0,0.0,0.0,0.0,0.0,0.0,0.0,1.0037,1.0793,1.0743,1.0805,1.1289,1.0965,1.0872,1.1502,1.0596,0.9855,0.9893,0.0,0.0,0.0,0.0,0.0,0.0,0.0,0.0,0.0,0.0,0.0,0.0,0.0,0.0,0.0,0.0,0.0,0.0,0.0,0.0,0.0,0.0,0.0,0.0,0.0,0.0,0.0,0.0,0.0,0.0,0.9535,0.0,0.0,0.0,0.0,0.0,0.0,0.0,0.0,0.0,0.0,0.0,0.0,0.0,0.0,0.0,0.0,0.0,0.0,0.0,0.0,0.0,0.0,1.0179,1.1766,1.2072,1.2407,1.2773,1.3046,1.292,1.2351,1.2293,1.1504,0.9861,0.0,0.0,0.0,0.0,0.0,0.0,0.0,0.0,0.0,0.0,0.0,0.0,0.0,0.0,0.0,0.0,0.0,0.0,0.0,0.0,0.0,0.0,0.0,0.0,0.0,0.0,0.5665,0.5315,0.4771,0.0,0.0,0.0,0.0,0.0,0.0,0.0,0.0,0.0,0.0,1.0104,1.0775,1.2061,1.226,1.2134,1.1999,1.2178,1.2165,1.1691,1.1567,1.1173,0.0,0.0,0.0,0.0,0.0,0.0,0.0,0.0,0.0,0.0,0.0,0.0,0.0,0.0,0.0,0.0,0.0,0.0,0.0,0.0,0.0,0.0,0.0,0.0,0.0,0.0,0.0,1.2109,1.1437,0.0,0.0,0.0,0.0,0.0,0.0,0.0,0.0,0.0,0.0,0.0,1.2781,1.3027,0.0,0.0,0.0,0.0,0.0,0.0,0.0,0.0,0.0,0.0,0.0,0.0,1.0373,1.224,1.2856,1.3419,1.3976,1.4129,1.4108,1.3899,1.308,1.1763,0.9916,0.0,0.0,0.0,0.0,0.0,0.0,0.0,0.0,0.0,0.0,0.0,0.0,0.0,0.0,0.0,0.0,0.0,0.0,0.0,0.0,0.0,0.0,0.0,0.0,0.0,0.6962,0.0,0.0,0.0,0.0,0.0,0.0,0.0,0.0,0.0,0.0,0.0,0.9194,1.0526,1.1505,1.2262,1.2719,1.2426,1.2284,0.0,0.0,0.0,0.0,0.0,0.0,0.0,0.0,0.0,0.0,0.0,0.0,0.0,0.0,0.9967,0.7566,0.684,0.659,0.659,0.0,0.0,0.0,0.0,0.0,0.0,0.0,0.0,0.0,0.0,0.0,0.0,0.0,0.0,1.3878,0.0,1.2996,0.0,0.0,0.0,0.0,0.0,0.0,0.0,0.0,1.3853,1.4145,1.4146,1.4641,1.4772,0.0,1.4219,1.3477,0.0,0.0,0.0,0.0,0.0,0.0,0.0,0.0,1.1253,1.3247,1.3773,1.4347,1.4984,1.5057,1.498,1.4713,1.3244,1.1861,1.0593,0.9713,0.8814,0.0,0.0,0.0,0.0,0.0,0.0,0.0,0.0,0.0,0.0,0.0,0.0,0.0,0.0,0.0,0.0,0.0,0.0,0.0,0.0,0.0,0.0,0.0,0.7511,0.0,0.0,0.0,0.0,0.0,0.0,0.0,0.0,0.0,0.8953,0.9653,1.0491,1.1423,1.2459,1.3159,1.3262,0.0,0.0,0.0,0.0,0.0,0.0,0.0,1.2455,1.2411,1.2115,1.1826,1.1628,1.1886,1.1949,1.1397,0.0,0.0,0.9291,0.8577,0.8325,0.8349,0.8626,0.9028,0.9617,1.0024,1.0384,0.0,0.0,0.0,0.0,0.0,0.0,0.0,0.0,1.4767,1.5447,0.0,1.5255,0.0,0.0,0.0,0.0,0.0,1.4818,0.0,0.0,1.5359,1.5625,1.5595,1.5625,1.598,1.659,1.6591,1.6278,1.5517,1.2495,0.0,0.0,0.0,0.0,0.0,0.0,1.2778,1.4597,1.4739,1.5125,1.5754,1.5799,1.5469,1.4782,1.2942,1.1895,1.176,1.0608,0.9345,0.8042,0.7951,0.0,0.0,0.0,0.0,0.0,0.0,0.0,0.0,0.0,0.0,0.0,0.0,0.0,0.0,0.0,0.0,0.0,0.0,0.0,0.0,0.7671,0.0,0.0,0.0,0.0,0.0,0.0,0.0,0.0,0.0,0.0,0.9943,1.0816,1.1783,1.2383,0.0,0.0,0.0,0.0,1.3808,1.3779,1.3735,1.3602,1.3306,1.322,1.3031,1.2513,0.0,0.0,1.1738,1.25,1.3015,1.2513,1.2425,1.225,1.1716,1.145,1.1439,1.1452,1.1389,1.1754,1.2237,1.2472,1.2918,1.8018,0.0,0.0,0.0,0.0,1.6568,1.6922,1.7384,1.7434,1.7359,1.722,1.6899,0.0,0.0,0.0,0.0,0.0,0.0,1.6362,1.6672,1.6864,1.7067,1.7257,1.6849,1.6906,1.7293,1.7365,1.7049,1.6405,1.5737,1.3961,1.1171,0.0,0.0,0.0,0.0,1.3207,1.4679,1.4797,1.5125,1.5798,1.5814,1.5484,1.4811,1.4257,1.3268,1.1839,1.1435,1.0653,0.9405,0.8882,0.0,0.0,0.0,0.0,0.0,0.0,0.0,0.0,0.0,0.0,0.0,0.0,0.0,0.0,0.0,0.0,0.0,0.0,0.0,0.8218,0.8319,0.8607,0.0,0.0,0.0,0.0,0.0,0.0,0.0,0.0,0.0,1.2245,1.2623,1.3089,0.0,0.0,1.4776,1.4846,1.4664,1.4598,1.4813,0.0,0.0,0.0,1.3732,1.3441,1.3036,1.2977,1.291,1.2776,1.2985,1.3148,1.2985,1.2977,1.2927,1.2739,1.2102,1.1653,1.1603,1.1603,1.1763,1.2278,1.2538,1.2751,2.0133,1.9126,1.8472,1.8281,1.8362,1.8631,1.8975,1.9352,1.914,1.9078,1.9114,1.8361,1.7721,1.7169,1.6727,0.0,0.0,0.0,1.7772,1.7826,1.8228,1.8374,1.8315,1.8222,1.8265,1.8473,1.8216,1.7952,1.7696,1.7399,1.6052,1.3736,0.0,0.0,1.3008,1.362,1.4335,1.517,1.5441,1.5635,1.5813,1.5814,1.5619,1.5229,1.4932,1.4094,1.2658,1.234,1.1595,1.0324,0.9884,0.9248,0.0,0.0,0.0,0.0,0.0,0.0,0.0,0.0,0.0,0.0,0.0,0.5321,0.4398,0.0,0.0,0.0,0.6834,0.7816,0.9226,0.9598,0.0,0.0,0.0,0.0,0.0,0.0,0.0,1.2584,1.2931,1.3294,1.4049,1.4151,1.4181,1.4283,1.4877,1.5283,1.5283,0.0,1.5025,1.5086,1.4747,1.4399,1.4108,1.3865,1.3581,1.325,1.321,1.321,1.321,1.321,1.321,1.321,1.321,1.321,1.321,1.2663,1.2241,1.2241,1.2225,1.235,1.2663,1.271,1.281,2.1689,2.1739,2.0376,1.9808,1.9834,2.0414,2.0725,2.0718,2.0124,2.0561,2.153,1.975,1.9203,1.9629,1.862,0.0,1.7847,1.92,1.9311,1.8532,1.9453,1.956,1.9031,1.9559,1.9845,1.9844,1.9163,1.8965,1.9168,1.8037,1.7242,1.6818,1.5691,1.5046,1.499,1.5604,1.5948,1.5978,1.6503,1.6488,1.5889,1.5873,1.5844,1.5799,1.5155,1.4483,1.3825,1.3136,1.2194,1.0962,1.0827,1.0279,0.913,0.0,0.0,0.0,0.0,0.0,0.0,0.0,0.0,0.0,0.0,0.0,0.0,0.0,0.0,0.0,0.8633,0.0,1.0455,1.1089,0.0,0.0,0.0,1.0778,1.0864,1.1821,1.2758,1.3467,0.0,0.0,1.5283,0.0,1.5139,1.4457,1.4892,1.5283,1.5283,1.5283,1.5178,1.4917,1.4824,1.4558,1.4013,1.3782,1.3581,1.3284,1.321,1.321,1.321,1.321,1.321,1.321,1.321,1.321,1.321,1.3148,1.321,1.3148,1.316,1.3173,1.3173,1.316,1.3143,2.3103,2.3116,2.2775,2.2073,2.1226,2.1376,2.1455,2.144,2.1291,2.1395,2.1665,2.1201,2.0778,2.0419,1.9891,1.9647,1.9611,2.0266,2.043,2.0223,2.0446,2.0623,2.0698,2.0297,2.0239,2.0471,2.0291,1.9972,1.953,1.9494,1.9067,1.8249,1.7921,1.7252,1.6308,1.6921,1.725,1.725,1.74,1.7145,1.6517,1.6488,1.6278,1.5814,1.5155,1.4468,1.3825,1.3163,1.2415,1.1585,1.1077,1.0663,1.0359,0.8814,0.0,0.0,0.0,0.0,0.0,0.0,0.0,0.0,0.0,0.8409,0.6565,0.0,0.8875,0.0,0.9777,1.0349,1.0502,1.1115,0.0,0.0,1.2698,1.309,1.4036,1.357,1.3612,1.4718,1.466,1.4718,1.5225,1.5689,1.5763,1.5153,1.5196,1.5283,1.5283,1.5283,1.5283,1.5162,1.4963,1.4732,1.4541,1.4062,1.3581,1.3267,1.321,1.321,1.321,1.321,1.321,1.321,1.321,1.321,1.321,1.321,1.321,1.321,1.321,1.321,1.321,1.321,1.3181,2.4665,2.437,2.4131,2.346,2.2568,2.2547,2.2547,2.2532,2.2248,2.2149,2.2099,2.1814,2.15,2.1145,2.1096,2.1023,2.0929,2.1624,2.1673,2.122,2.1584,2.1664,2.1509,2.1101,2.1008,2.1182,2.0868,2.0567,2.0361,2.0252,1.9852,1.9152,1.9483,1.9108,1.8084,1.8246,1.8146,1.7713,1.7699,1.7534,1.716,1.6845,1.6532,1.6204,1.5574,1.4931,1.4259,1.3885,1.3388,1.2732,1.2332,1.2003,1.17,1.0663,0.9959,0.0,0.0,0.0,0.0,0.0,0.0,0.0,0.0,0.0,0.0,0.0,0.9864,1.0821,1.1463,1.1995,1.2414,1.29,1.3366,1.3759,1.3802,1.4181,1.5196,1.4689,1.4732,1.5994,1.582,1.5733,1.6111,1.643,1.64,1.5776,1.5689,1.5618,1.5356,1.5283,1.5283,1.5298,1.5377,1.5377,1.522,1.4341,1.3661,1.3459,1.3288,1.321,1.321,1.321,1.321,1.321,1.321,1.321,1.321,1.321,1.321,1.321,1.321,1.321,1.321,1.321,1.3181,2.6002,2.5391,2.4927,2.4395,2.3849,2.3864,2.3759,2.3565,2.3047,2.2823,2.2778,2.2099,2.1814,2.1834,2.2067,2.2075,2.1916,2.2918,2.2884,2.2054,2.272,2.2642,2.1961,2.193,2.1895,2.1764,2.1149,2.0957,2.1193,2.0562,2.0089,1.9814,2.0559,2.0575,1.9846,1.9685,1.9082,1.805,1.7969,1.7923,1.7833,1.7264,1.6891,1.6681,1.6114,1.5484,1.4841,1.4707,1.4408,1.3842,1.3797,1.3508,1.2881,1.2737,1.2126,0.0,1.0807,0.0,0.0,0.0,0.0,0.0,0.0,0.0,0.0,1.0782,1.1396,1.2509,1.3314,1.4059,1.4746,1.5183,1.5167,1.4631,1.4631,1.4906,1.5457,1.556,1.598,1.7084,1.711,1.7067,1.6996,1.7084,1.6837,1.6139,1.6081,1.5921,1.5414,1.5283,1.5283,1.5283,1.5748,1.5779,1.5394,1.4573,1.3892,1.3761,1.3645,1.3416,1.3491,1.3403,1.3328,1.3328,1.329,1.321,1.321,1.321,1.321,1.321,1.321,1.321,1.321,1.321,1.3181,2.6092,2.5559,2.5467,2.5345,2.5226,2.5226,2.4612,2.3595,2.3475,2.343,2.3385,2.2793,2.2493,2.2484,2.23,2.2331,2.2632,2.3151,2.3467,2.3556,2.372,2.3404,2.2708,2.2692,2.2361,2.1829,2.1647,2.1319,2.0817,2.0683,2.0444,2.0136,2.1119,2.1275,2.0685,0.0,0.0,0.0,1.9474,1.9046,1.8521,1.8386,1.7802,1.6726,1.6114,0.0,1.4826,1.4274,1.3944,1.3812,1.3797,0.0,0.0,0.0,0.0,0.0,0.0,0.0,0.0,0.0,0.0,0.0,1.3765,1.3156,1.2288,1.3501,1.4166,1.3758,1.4601,1.4976,1.4482,1.5416,1.5995,1.5879,1.6329,1.669,1.6837,1.6822,1.6951,1.7156,1.6719,1.6385,1.6459,1.6387,1.6184,1.569,1.5892,1.5936,1.5385,1.5283,1.5283,1.5312,1.5457,1.5257,1.466,1.4715,1.4509,1.4228,1.438,1.4507,1.4456,1.4155,1.3934,1.3903,1.3534,1.3235,1.3235,1.321,1.3273,1.3223,1.3223,1.321,1.321,1.321,1.3181,2.6987,0.0,2.6197,2.5899,0.0,2.56,2.5211,2.4582,2.4216,2.3909,2.358,2.3266,2.3152,2.3152,2.2979,2.3,2.322,2.3646,2.3854,2.3914,2.4157,2.3967,2.3421,2.3073,2.2708,2.2344,2.1978,2.1599,2.1249,2.1249,2.0964,2.0444,2.1343,2.1467,2.0791,2.1471,2.1325,2.0208,1.9695,1.9338,1.9184,1.8867,1.8371,1.7682,0.0,0.0,0.0,0.0,0.0,0.0,0.0,0.0,0.0,0.0,0.0,1.3482,1.3472,1.3516,1.3663,1.4542,1.5292,1.5755,1.6245,1.5887,1.4379,1.5392,1.6063,1.5957,1.6435,1.6517,1.6068,1.6441,1.6675,1.6721,1.7011,1.7214,1.7214,1.7214,1.7214,1.7185,1.6909,1.6692,1.6706,1.6706,1.6445,1.5879,1.5995,1.598,1.5428,1.5283,1.5385,1.5646,1.5458,1.5293,1.5207,1.4818,1.4631,1.431,1.4372,1.45,1.45,1.45,1.4488,1.4475,1.4243,1.4048,1.4036,1.4036,1.403,1.4011,1.3822,1.3647,1.3622,1.3403,1.321,2.8013,2.7308,2.6931,2.6437,2.5959,2.5944,2.5884,2.5734,0.0,0.0,0.0,2.3774,2.3714,2.3595,2.3595,2.3638,2.3745,2.4204,2.4287,2.4109,2.4588,2.4586,2.4166,2.357,2.3222,2.3056,2.2344,2.2011,2.1995,2.1879,2.1483,2.1017,2.163,2.1696,2.1135,2.115,2.0943,2.0382,1.9597,1.9336,1.9572,1.9058,1.8738,1.8702,1.7639,1.6995,1.6876,1.6458,1.6202,1.6129,1.6202,1.6156,1.6036,1.5978,1.5918,1.5871,1.6146,1.6114,1.576,1.6722,1.7124,1.6743,1.793,1.8116,1.6718,1.6957,1.7326,1.7823,1.7958,1.7864,1.7551,1.7497,1.7367,1.7229,1.7214,1.7214,1.7214,1.7214,1.7214,1.72,1.7038,1.7009,1.6967,1.682,1.6675,1.6168,1.6097,1.6039,1.5589,1.5385,1.5443,1.5791,1.5544,1.5441,1.5586,1.5157,1.4433,1.4289,1.4261,1.4248,1.4299,1.4601,1.4859,1.4846,1.4884,1.4846,1.4871,1.4727,1.4815,1.4871,1.4387,1.3984,1.4027,1.3609,1.3223,2.8441,2.7535,2.749,2.7405,2.7315,2.7315,2.6986,2.6408,2.5741,2.5083,2.447,2.4455,2.4141,2.3595,2.3595,2.3824,2.4219,2.4639,2.4976,0.0,2.5735,2.5604,2.4978,2.4845,2.4448,2.3835,2.3106,2.2742,2.2675,2.2096,2.1746,2.1731,2.2377,2.2675,2.251,2.1389,2.0918,2.1103,2.0131,1.9481,1.9198,1.909,1.8926,1.8719,1.8508,1.8132,1.7578,1.7791,1.7791,1.7461,1.776,1.7639,1.6953,1.6698,1.6428,1.6117,1.6427,1.6593,1.6563,1.7738,1.8293,1.7951,1.8838,1.9323,1.9115,1.8431,1.7973,1.7862,1.8185,1.7884,1.6995,1.7744,1.8069,1.7364,1.7229,1.7229,1.7243,1.7243,1.7243,1.72,1.6677,1.6385,1.643,1.6039,1.5777,1.5588,1.6039,1.6168,1.6053,1.5617,1.5356,1.5414,1.5356,1.5098,1.491,1.4896,1.466,1.4223,1.4491,1.4651,1.4651,1.4771,1.4884,1.4884,1.4884,1.4884,1.489,1.4513,1.4525,1.4745,1.4155,1.3609,1.3984,1.3609,1.3223,2.8018,2.7625,2.7585,2.7585,2.7585,2.7585,2.7435,2.7136,2.6811,2.6108,2.5173,2.5128,2.4963,2.4702,2.4687,2.4619,2.447,2.4649,2.4756,2.4859,2.5072,2.5125,2.4957,2.4588,2.4215,2.3844,2.3133,2.2601,2.2246,2.1892,2.1601,2.131,2.1791,2.2033,2.1999,2.1558,2.1193,2.0965,2.0327,1.9798,1.9435,1.9419,1.9168,1.8668,1.8173,1.7925,1.7956,1.7622,1.7513,1.7699,1.7875,1.7803,1.7437,1.7312,1.7147,1.6985,1.7318,1.7516,1.7516,1.8594,1.9355,1.957,1.9994,2.02,2.0154,1.9758,1.9339,1.8999,1.9245,1.903,1.8069,1.8514,1.8698,1.8292,1.8245,1.8114,1.7809,1.7751,1.7589,1.7241,1.6936,1.675,1.675,1.6487,1.6313,1.6356,1.6605,1.675,1.6721,1.6198,1.5676,1.537,1.5283,1.5192,1.4885,1.4699,1.4547,1.4252,1.4338,1.4468,1.4506,1.4651,1.4859,1.4884,1.4884,1.4884,1.4884,1.4727,1.4702,1.4714,1.4293,1.3921,1.3959,1.3639,1.3265,2.7685,2.7585,2.7585,2.7585,2.7585,2.7585,2.7585,2.7585,2.7585,2.7031,2.6108,2.5899,2.5749,2.5615,2.56,2.533,2.4874,2.4927,2.4795,2.4558,2.4616,2.4755,2.4816,2.4279,2.4043,2.3964,2.3295,2.2663,2.2209,2.2004,2.1612,2.108,2.1135,2.1183,2.1183,2.1433,2.1292,2.0752,2.0467,2.0158,1.9845,1.9829,1.9577,1.909,1.8251,1.8022,1.8455,1.77,1.7456,1.7862,1.7987,1.8003,1.7924,1.7828,1.7856,1.8007,1.8199,1.8419,1.8684,1.9372,1.9986,2.0395,2.0634,2.0583,2.0229,2.0431,2.0334,1.9883,1.9803,1.9582,1.8802,1.8863,1.8914,1.8728,1.868,1.8375,1.8042,1.7983,1.7809,1.7301,1.7214,1.72,1.7214,1.7214,1.7243,1.7359,1.7316,1.7243,1.7316,1.6851,1.6227,1.569,1.54,1.5253,1.5178,1.4683,1.4314,1.4206,1.4012,1.3917,1.3972,1.4362,1.4676,1.4689,1.4828,1.4871,1.4884,1.4765,1.4752,1.4771,1.428,1.3846,1.3821,1.3521,1.3223,2.7978,2.761,2.7585,2.7585,2.7585,2.7585,2.7585,2.7585,2.7585,2.7555,2.73,2.6767,2.6183,2.5659,2.5644,2.5615,2.5533,2.588,2.5715,2.5256,2.5582,2.5458,2.4906,2.4784,2.4808,2.4658,2.4004,2.3538,2.3381,2.2831,2.2254,2.1612,2.1111,2.0859,2.0859,2.0893,2.0861,2.0797,2.0749,2.056,2.0183,2.0165,2.0302,2.0605,1.983,1.95,1.9468,1.9125,1.8776,1.8558,1.883,1.8826,1.8575,1.8316,1.8404,1.8938,1.8798,1.904,1.9895,2.0102,1.9937,1.9474,2.0184,2.0111,1.9075,1.9857,2.0155,1.9482,1.9197,1.8812,1.7846,1.8303,1.8423,1.7798,1.7635,1.7359,1.7446,1.7301,1.7255,1.7229,1.7342,1.7229,1.7342,1.7374,1.7534,1.8042,1.7705,1.7577,1.7954,1.7516,1.6907,1.6271,1.5704,1.5249,1.4961,1.4572,1.4238,1.3894,1.3514,1.341,1.3526,1.3803,1.416,1.4198,1.4488,1.4708,1.4657,1.4551,1.4324,1.4456,1.4011,1.3328,1.3303,1.3265,1.321,2.777,2.7585,2.7585,2.7585,2.7585,2.7585,2.7585,2.7585,2.7585,2.7585,2.757,2.73,2.7046,2.6767,2.6767,2.6596,2.6222,2.6382,2.609,2.5493,2.5262,2.4983,2.4722,2.4279,2.4131,2.4116,2.382,2.3478,2.307,2.2458,2.195,2.1681,2.1252,2.1035,2.1006,2.0884,2.081,2.081,2.081,2.0717,2.0544,2.0129,1.9781,1.9484,1.9046,1.8998,1.9307,1.9398,1.9459,1.9586,2.0248,2.0614,2.0492,1.9974,1.9886,2.0327,1.9871,1.9777,2.0176,2.0429,2.0321,1.9825,2.0088,1.9928,1.9185,1.954,1.9594,1.9263,1.9344,1.9174,1.8579,1.8698,1.872,1.8393,1.8332,1.8317,1.8317,1.8317,1.8332,1.8317,1.8332,1.8317,1.8317,1.8317,1.8433,1.868,1.8448,1.8419,1.8651,1.8201,1.7734,1.7371,1.6835,1.6062,1.5329,1.4824,1.4477,1.4121,1.3732,1.3463,1.3287,1.3353,1.3559,1.3584,1.3822,1.3961,1.383,1.3785,1.3659,1.3817,1.3754,1.321,1.321,1.321,1.321,2.7585,2.7585,2.7585,2.7585,2.7585,2.7585,2.7585,2.7585,2.7585,2.7585,2.7585,2.7585,2.7585,2.7585,2.7585,2.733,2.6926,2.6856,2.6497,2.5884,2.5352,2.4986,2.459,2.4111,2.3774,2.3625,2.3601,2.3355,2.2912,2.2298,2.1984,2.1919,2.155,2.1332,2.1308,2.0976,2.0774,2.0758,2.0603,2.0495,2.0433,1.9979,1.953,1.9201,1.8812,1.8826,1.9242,1.935,1.9501,1.9768,2.0477,2.086,2.09,2.0336,2.0194,2.0531,2.0268,2.0067,2.0067,2.0342,2.0376,2.0067,1.996,1.9762,1.945,1.9302,1.9209,1.9143,1.9406,1.9413,1.9195,1.9116,1.9116,1.9116,1.9116,1.9116,1.9072,1.9116,1.9072,1.9116,1.8985,1.9116,1.9101,1.9058,1.9043,1.9043,1.9072,1.9116,1.9072,1.8709,1.839,1.823,1.7748,1.7067,1.6036,1.5449,1.5031,1.4547,1.4162,1.3663,1.33,1.3228,1.3391,1.3664,1.3378,1.3366,1.3697,1.3571,1.3303,1.3235,1.3248,1.3273,1.321,1.321,1.321,2.7585,2.7585,2.7585,2.7585,2.7585,2.7585,2.7585,2.7585,2.7585,2.7585,2.7585,2.7585,2.7585,2.7585,2.7585,2.757,2.754,2.751,2.7165,2.6596,2.6452,2.5824,2.4649,2.456,2.4216,2.3729,2.3699,2.3625,2.349,2.2942,2.2658,2.2634,2.2024,2.1689,2.1619,2.1087,2.0734,2.0715,2.0255,1.9843,1.9795,1.9764,2.0039,2.0394,1.9988,1.9578,1.9594,1.9044,1.8732,1.873,1.8952,1.8935,1.884,1.8641,1.872,1.8955,1.9461,1.9747,1.9764,1.9836,1.9782,1.965,1.9596,1.9443,1.9409,1.9297,1.9251,1.9145,1.9274,1.923,1.9251,1.9174,1.9116,1.9116,1.9116,1.9116,1.9116,1.9116,1.9116,1.9116,1.9116,1.9116,1.9116,1.9116,1.9116,1.9116,1.9116,1.9116,1.9101,1.9043,1.8782,1.8419,1.8154,1.7908,1.7204,1.6426,1.5786,1.5252,1.4677,1.3998,1.3531,1.3278,1.3596,1.3778,1.3634,1.3659,1.3828,1.3765,1.3504,1.3428,1.3478,1.3448,1.3641,1.3353,1.3403,2.7585,2.7585,2.7585,2.7585,2.7585,2.7585,2.7585,2.7585,2.7585,2.7585,2.7585,2.7585,2.7585,2.7585,2.7585,2.7585,2.7585,2.7585,2.7465,2.7195,2.6821,2.6333,2.5914,2.5465,2.4889,2.4321,2.4231,2.4007,2.361,2.3355,2.3287,2.3161,2.2673,2.2343,2.2224,2.168,2.1335,2.1321,2.1081,2.0782,2.0378,2.0348,2.0285,2.008,1.9854,1.9714,1.9714,1.983,1.9825,1.9648,2.0229,2.0608,2.0615,2.0351,1.9917,1.9449,1.9771,2.0015,2.005,2.0241,2.0239,1.9957,1.9803,1.9789,1.982,1.9812,1.9885,2.0132,1.9914,1.9885,2.0059,1.9609,1.9116,1.9116,1.9116,1.9116,1.9116,1.9116,1.9116,1.9116,1.9116,1.9116,1.9116,1.9116,1.9116,1.9116,1.9116,1.9116,1.9116,1.9116,1.8999,1.8854,1.8782,1.8709,1.8521,1.7464,1.6592,1.598,1.5385,1.4953,1.4507,1.4217,1.4406,1.4469,1.4249,1.4161,1.4412,1.4368,1.4074,1.4111,1.4124,1.4018,1.4299,1.4048,1.4111,2.7585,2.7585,2.7585,2.7585,2.7585,2.7585,2.7585,2.7585,2.7585,2.7585,2.7585,2.7585,2.7585,2.7585,2.7585,2.7585,2.7585,2.7585,2.7585,2.7555,2.7121,2.6836,2.6542,2.6123,2.5561,2.4963,2.4694,2.435,2.3932,2.3699,2.3595,2.355,2.3182,2.3002,2.2882,2.2323,2.2009,2.1994,2.1834,2.1455,2.1081,2.1021,2.0827,2.0427,2.0352,2.0112,1.9753,2.0154,2.0294,2.016,2.0689,2.1091,2.1087,2.0916,2.0482,1.9855,2.0104,2.0261,2.0174,2.0692,2.0841,2.0306,2.0327,2.0452,2.0533,2.0438,2.0631,2.0799,2.0669,2.0596,2.0712,2.0219,1.9725,1.9638,1.9348,1.9217,1.9391,1.9217,1.913,1.9116,1.9116,1.9116,1.9116,1.9116,1.9116,1.9116,1.9116,1.9116,1.9116,1.9116,1.9116,1.9116,1.9072,1.9043,1.8927,1.8256,1.7337,1.6684,1.5992,1.5658,1.5357,1.512,1.5054,1.5104,1.5047,1.4947,1.4896,1.4909,1.4921,1.4934,1.4745,1.4569,1.472,1.4808,1.4796,2.76,2.7645,2.76,2.763,2.7675,2.763,2.76,2.7675,2.7615,2.763,2.772,2.763,2.7585,2.7585,2.7585,2.7585,2.7585,2.7585,2.7585,2.757,2.754,2.72,2.6692,2.6632,2.6243,2.5576,2.4948,2.4649,2.459,2.4029,2.3699,2.3655,2.358,2.3475,2.3565,2.2987,2.2703,2.2598,2.2194,2.1799,2.1714,2.1714,2.1655,2.156,2.1545,2.1011,1.9887,1.9872,1.9962,1.9876,1.9921,1.9783,2.0053,2.0032,1.9828,1.9992,2.0397,2.0397,2.0055,2.0959,2.1244,2.0776,2.1025,2.1206,2.1173,2.1079,2.1075,2.1206,2.1104,2.1061,2.1119,2.093,2.0814,2.0857,1.9943,1.9595,1.9841,1.9522,1.913,1.9159,1.9159,1.9116,1.9116,1.9116,1.9116,1.9116,1.9116,1.9116,1.9116,1.9116,1.9116,1.9116,1.9116,1.9116,1.9116,1.8987,1.8153,1.7358,1.6657,1.6113,1.5794,1.556,1.5625,1.5661,1.5525,1.5424,1.5424,1.5412,1.5324,1.5299,1.5135,1.5148,1.5273,1.5374,1.5236,2.7869,2.8203,2.7779,2.7884,2.8173,2.7794,2.7854,2.8203,2.7824,2.7854,2.8128,2.7809,2.7585,2.76,2.7585,2.76,2.7585,2.7585,2.7585,2.76,2.7514,2.7394,2.729,2.72,2.6832,2.6273,2.5591,2.5277,2.5158,2.459,2.4291,2.4216,2.3834,2.361,2.3625,2.34,2.3332,2.3317,2.3116,2.2817,2.2428,2.2388,2.2194,2.1739,2.1695,2.147,2.1096,2.1085,2.1085,2.1055,2.1066,2.1066,2.107,2.1081,2.1066,2.1096,2.1246,2.1335,2.1156,2.1332,2.149,2.1213,2.1239,2.143,2.1697,2.1706,2.1873,2.2142,2.196,2.1815,2.2069,2.1481,2.1104,2.1003,2.064,2.0407,2.0538,2.0161,1.9856,1.9725,1.9391,1.913,1.913,1.9145,1.9217,1.9217,1.9203,1.9188,1.9159,1.9246,1.9116,1.9116,1.9116,1.9145,1.9082,1.9007,1.8498,1.7885,1.7275,1.6675,1.6325,1.6046,1.6143,1.6111,1.5973,1.5894,1.5906,1.5881,1.5781,1.5881,1.5944,1.5969,1.5994,1.5894,1.5743,2.8203,2.8562,2.8423,2.8573,2.8876,2.8274,2.8188,2.8517,2.8169,2.8229,2.8472,2.8453,2.8334,2.8304,2.8094,2.7974,2.7934,2.7735,2.7585,2.7585,2.7524,2.7539,2.76,2.7539,2.7335,2.6892,2.6255,2.5941,2.5929,2.5261,2.4917,2.4859,2.4328,2.3999,2.3917,2.3729,2.3595,2.3595,2.358,2.3437,2.3122,2.3047,2.2853,2.2473,2.2413,2.2398,2.2413,2.2398,2.2188,2.1799,2.1695,2.1695,2.1695,2.1665,2.1695,2.1739,2.1924,2.1964,2.1784,2.2082,2.2099,2.1893,2.1907,2.2095,2.2353,2.2374,2.2548,2.2751,2.2562,2.249,2.2678,2.2258,2.1721,2.1728,2.1235,2.1032,2.0944,2.0669,2.0451,2.0349,2.0088,1.9856,1.9812,1.9812,1.9812,1.9812,1.9812,1.9812,1.9798,1.9841,1.9725,1.958,1.9551,1.9416,1.9126,1.8917,1.8707,1.8341,1.7912,1.737,1.6917,1.6581,1.6494,1.6397,1.6283,1.6245,1.6245,1.6321,1.6287,1.6488,1.6513,1.64,1.6262,1.6325,1.6258,2.8622,2.8727,2.9337,2.9535,2.9562,2.8921,2.8682,2.8682,2.8652,2.8682,2.8816,2.9217,2.9487,2.9412,2.8861,2.8622,2.8487,2.7993,2.7675,2.7615,2.7575,2.76,2.7575,2.7549,2.7519,2.7395,2.6808,2.6554,2.6593,2.5878,2.5527,2.5538,2.4985,2.4664,2.4545,2.3992,2.3744,2.3759,2.3655,2.358,2.3535,2.355,2.3535,2.3475,2.346,2.3445,2.34,2.337,2.2951,2.2009,2.1964,2.1994,2.1859,2.1799,2.1934,2.1994,2.2433,2.2403,2.2248,2.2796,2.3135,2.2628,2.2825,2.3246,2.2995,2.2839,2.2786,2.2873,2.283,2.2844,2.2873,2.2772,2.2728,2.2714,2.191,2.1365,2.1148,2.1119,2.1061,2.1046,2.1032,2.0959,2.0814,2.0828,2.0843,2.0843,2.0785,2.0741,2.0741,2.0596,2.0611,2.0407,2.0074,1.9769,1.9478,1.9078,1.887,1.8688,1.8279,1.7794,1.7261,1.6892,1.6629,1.6543,1.6513,1.6513,1.6513,1.6513,1.6513,1.6513,1.6513,1.6513,1.6513,1.6513,1.6513,2.8876,2.9367,2.9547,2.9849,3.0133,2.9594,2.9337,2.9352,2.9352,2.9325,2.9412,2.9532,2.9669,2.9592,2.9457,2.9071,2.8697,2.8427,2.8049,2.7645,2.7585,2.7524,2.7463,2.7463,2.7514,2.753,2.7269,2.7174,2.7165,2.6534,2.6236,2.6163,2.5619,2.5322,2.5232,2.4679,2.4365,2.4246,2.3834,2.3625,2.3625,2.361,2.3595,2.3595,2.3595,2.3595,2.3595,2.3595,2.3505,2.3197,2.3101,2.3086,2.3026,2.3011,2.2981,2.3026,2.3176,2.3295,2.317,2.3321,2.3354,2.3134,2.3135,2.309,2.297,2.291,2.2888,2.2888,2.2888,2.2888,2.2888,2.2888,2.2888,2.2881,2.249,2.2287,2.2243,2.2004,2.1743,2.1699,2.1336,2.1148,2.1119,2.1104,2.1104,2.1104,2.1119,2.1133,2.1249,2.1206,2.1148,2.0785,2.0451,2.0146,1.9798,1.9348,1.9074,1.895,1.8567,1.805,1.744,1.6863,1.665,1.6513,1.6513,1.6513,1.6513,1.6513,1.6513,1.6513,1.6513,1.6513,1.6513,1.6513,1.6513,2.8981,2.9636,2.9849,3.0342,3.0821,3.0253,2.9968,2.9968,2.9968,2.9968,3.0028,3.0298,3.0402,3.0387,3.0103,2.9747,2.9349,2.9024,2.8639,2.8286,2.8025,2.7757,2.7563,2.7473,2.7524,2.7575,2.7478,2.7386,2.7352,2.7061,2.6927,2.6768,2.6275,2.6048,2.5974,2.539,2.5008,2.4903,2.438,2.4007,2.4022,2.3729,2.3595,2.3595,2.3595,2.3595,2.3595,2.3595,2.3595,2.358,2.3595,2.3595,2.3595,2.3595,2.3595,2.3595,2.3595,2.3595,2.3595,2.3581,2.3494,2.3407,2.329,2.3171,2.3037,2.2978,2.2992,2.2925,2.2888,2.2888,2.2888,2.2888,2.2888,2.2873,2.2888,2.2888,2.2888,2.2562,2.2403,2.2272,2.2055,2.1779,2.1794,2.1779,2.1779,2.1823,2.191,2.1895,2.1895,2.1765,2.1641,2.1351,2.1104,2.0857,2.0553,2.0132,1.9723,1.9529,1.9051,1.8488,1.7714,1.7051,1.679,1.6674,1.6581,1.6513,1.6513,1.6513,1.6513,1.6513,1.6513,1.6513,1.6513,1.6513,1.6513,2.9022,2.9624,3.0238,3.0896,3.1331,3.0866,3.0537,3.0492,3.0567,3.0552,3.0597,3.1182,3.1301,3.1466,3.0821,3.0483,3.0208,2.9659,2.9309,2.8941,2.8583,2.8203,2.7921,2.7588,2.7539,2.7564,2.7437,2.7427,2.7386,2.7382,2.7382,2.7219,2.6857,2.6722,2.6557,2.6025,2.5702,2.5568,2.4992,2.4664,2.4612,2.4261,2.4014,2.3819,2.3625,2.361,2.3595,2.3595,2.3595,2.3595,2.3595,2.3595,2.3595,2.3595,2.3595,2.3595,2.3595,2.3595,2.3595,2.3588,2.3545,2.3451,2.3444,2.3356,2.3105,2.3037,2.3015,2.291,2.2983,2.3084,2.3128,2.3076,2.3076,2.3033,2.2931,2.3004,2.2902,2.2888,2.2888,2.2888,2.2859,2.2873,2.2888,2.2888,2.283,2.2388,2.2475,2.2446,2.2424,2.2417,2.2258,2.2055,2.1859,2.167,2.1336,2.0959,2.0581,2.0224,1.9669,1.9033,1.812,1.7497,1.7127,1.6921,1.6892,1.6735,1.6513,1.6513,1.6538,1.6513,1.6513,1.6513,1.6513,1.6513,1.6513,2.9022,2.9624,3.0238,3.0896,3.1421,3.1331,3.0972,3.0567,3.1062,3.0957,3.0761,3.1212,3.1481,3.1496,3.1286,3.096,3.0373,3.0093,2.9768,2.9098,2.9022,2.8887,2.8554,2.7936,2.7497,2.7497,2.7442,2.7401,2.7427,2.7488,2.7488,2.7367,2.7349,2.736,2.7215,2.6624,2.6223,2.6133,2.5569,2.5265,2.5259,2.5135,2.4822,2.441,2.3924,2.364,2.361,2.3595,2.3595,2.3595,2.3655,2.3744,2.3625,2.3595,2.3595,2.361,2.3625,2.3625,2.3588,2.3604,2.3502,2.3459,2.3437,2.3127,2.2978,2.3043,2.3006,2.2989,2.3345,2.3659,2.3693,2.4143,2.3882,2.3389,2.3403,2.349,2.3047,2.2902,2.2888,2.2888,2.2888,2.2888,2.2888,2.2888,2.2888,2.2888,2.2888,2.2888,2.2888,2.2888,2.2736,2.249,2.2301,2.2106,2.1946,2.162,2.1348,2.1047,2.0517,1.9935,1.9012,1.8242,1.8006,1.7631,1.7269,1.7061,1.6901,1.6613,1.6663,1.6588,1.66,1.6701,1.6763,1.6663,1.6738,2.8697,2.9594,2.9939,3.0642,3.1421,3.1496,3.1286,3.1062,3.1331,3.1301,3.1092,3.1376,3.1496,3.1496,3.1496,3.1171,3.0732,3.0484,3.0102,2.9589,2.9484,2.9217,2.8716,2.8423,2.8147,2.7877,2.7582,2.7493,2.7437,2.7499,2.7524,2.7412,2.7524,2.7555,2.7585,2.7156,2.6981,2.6832,2.6325,2.5968,2.5977,2.5687,2.5486,2.5023,2.447,2.4193,2.4515,2.4238,2.4298,2.4433,2.4507,2.4193,2.3684,2.361,2.361,2.3625,2.3954,2.3849,2.3738,2.4119,2.435,2.3874,2.4012,2.4022,2.3935,2.388,2.3856,2.3867,2.4099,2.4341,2.4331,2.4534,2.4346,2.4128,2.4085,2.4128,2.3771,2.3279,2.2888,2.2888,2.2888,2.2888,2.2888,2.2888,2.2888,2.2888,2.2888,2.2888,2.2888,2.2888,2.2888,2.2736,2.2591,2.2461,2.2417,2.225,2.2105,2.1863,2.1623,2.1057,2.0388,1.9672,1.9043,1.842,1.7765,1.7714,1.7551,1.7212,1.7036,1.7287,1.7375,1.7237,1.7225,1.7378,1.7501,2.8319,2.9472,2.9562,3.0283,3.1256,3.1451,3.1481,3.1481,3.1496,3.1466,3.1496,3.1496,3.1496,3.1496,3.1496,3.1351,3.1087,3.0822,3.0426,3.0191,3.0205,2.9748,2.9131,2.918,2.8996,2.8429,2.7943,2.7635,2.7457,2.7488,2.7473,2.7437,2.7539,2.76,2.7585,2.7575,2.7449,2.733,2.6907,2.6639,2.6609,2.6216,2.5971,2.5636,2.5128,2.4963,2.5187,2.5053,2.4978,2.5555,2.56,2.4986,2.4283,2.3909,2.3909,2.3984,2.45,2.453,2.4365,2.4821,2.514,2.4601,2.494,2.5132,2.4965,2.4795,2.4679,2.4747,2.4824,2.4955,2.4955,2.5216,2.51,2.4839,2.4839,2.4911,2.4636,2.3786,2.3395,2.3099,2.3012,2.2888,2.2888,2.2888,2.2888,2.2888,2.2888,2.2888,2.2888,2.2888,2.2888,2.2888,2.2728,2.2693,2.2649,2.2598,2.2481,2.2249,2.2158,2.1657,2.111,2.0268,1.9356,1.8778,1.8293,1.8254,1.8078,1.7727,1.7727,1.8053,1.799,1.7702,1.784,1.8154,1.8154,2.8079,2.8801,2.9355,3.0013,3.0717,3.1241,3.1481,3.1496,3.1496,3.1496,3.1496,3.1496,3.1496,3.1496,3.1496,3.1409,3.1234,3.1043,3.0925,3.0808,3.0866,3.0513,3.0291,3.0066,2.9679,2.899,2.8385,2.7883,2.7373,2.7376,2.7412,2.7412,2.7524,2.756,2.7549,2.7514,2.7488,2.7488,2.7219,2.7094,2.7034,2.6981,2.6758,2.6422,2.577,2.5615,2.5615,2.557,2.5486,2.5585,2.56,2.551,2.5345,2.527,2.5241,2.5151,2.53,2.5315,2.5196,2.5342,2.542,2.5245,2.5328,2.5261,2.5155,2.5034,2.5106,2.5125,2.5386,2.5633,2.5633,2.5966,2.5807,2.5415,2.5313,2.5458,2.5013,2.4621,2.423,2.3934,2.3432,2.2888,2.2888,2.2888,2.2888,2.2888,2.2888,2.2888,2.2888,2.2888,2.2888,2.2888,2.2873,2.2844,2.283,2.2793,2.2696,2.2321,2.2063,2.1578,2.0975,2.0282,1.9598,1.9095,1.8795,1.8707,1.8481,1.8242,1.8267,1.848,1.8317,1.8116,1.8392,1.8631,1.848,2.8199,2.9101,2.9101,2.9834,3.0868,3.0986,3.1182,3.1481,3.1496,3.1496,3.1496,3.1496,3.1496,3.1496,3.1496,3.1409,3.1292,3.1161,3.1132,3.1176,3.1205,3.0968,3.085,3.0714,3.0066,2.942,2.8956,2.8321,2.731,2.7258,2.7343,2.7335,2.7423,2.7488,2.7514,2.7514,2.7488,2.7488,2.7437,2.7412,2.7412,2.7463,2.73,2.7011,2.6527,2.6333,2.6551,2.6228,2.6318,2.6581,2.6656,2.6617,2.6602,2.6527,2.6303,2.5854,2.5929,2.5944,2.5884,2.6036,2.6415,2.5981,2.6012,2.6163,2.6078,2.5995,2.5778,2.5894,2.5995,2.6326,2.6341,2.6646,2.6457,2.6137,2.6137,2.6083,2.5865,2.5531,2.5154,2.4742,2.4094,2.3476,2.2888,2.2888,2.2888,2.2888,2.2888,2.2888,2.2888,2.2888,2.2888,2.2888,2.2888,2.2888,2.2888,2.2888,2.2865,2.2532,2.217,2.166,2.1188,2.0658,2.0105,1.9573,1.9359,1.9158,1.9096,1.8932,1.892,1.8869,1.8769,1.8719,1.8945,1.9045,1.8907,2.8378,2.9562,2.9037,2.9774,3.1092,3.0911,3.1002,3.1436,3.1496,3.1496,3.1496,3.1496,3.1496,3.1496,3.1496,3.1438,3.1322,3.122,3.1263,3.1322,3.1336,3.1009,3.0861,3.0861,3.0683,2.9698,2.9687,2.9132,2.7968,2.77,2.7524,2.7528,2.7547,2.7501,2.7508,2.7549,2.7585,2.76,2.7575,2.7564,2.7564,2.7549,2.7575,2.7585,2.7051,2.7046,2.733,2.7061,2.7046,2.7315,2.748,2.7525,2.757,2.7585,2.7091,2.6303,2.6542,2.6408,2.6467,2.6811,2.7136,2.6708,2.6973,2.7067,2.6982,2.6706,2.6678,2.6794,2.675,2.6721,2.6704,2.6765,2.6791,2.6747,2.6678,2.6721,2.6533,2.6242,2.5879,2.5382,2.4704,2.4094,2.3505,2.32,2.3258,2.2902,2.2888,2.2888,2.2888,2.2888,2.2888,2.2888,2.2888,2.2888,2.2888,2.2888,2.2888,2.2775,2.2463,2.2053,2.166,2.1237,2.0617,2.0016,1.9711,1.956,1.9572,1.9547,1.9409,1.9309,1.9246,1.9271,1.9397,1.9472,1.9434,2.8378,2.9606,2.949,2.9924,3.0642,3.1062,3.1376,3.1451,3.1481,3.1496,3.1496,3.1496,3.1496,3.1496,3.1496,3.1511,3.1482,3.1453,3.1409,3.1438,3.1423,3.1378,3.1332,3.1392,3.1022,3.0254,3.0256,2.9671,2.8895,2.868,2.8387,2.8113,2.8068,2.7977,2.7637,2.7673,2.7585,2.759,2.7488,2.7437,2.7437,2.7437,2.7514,2.7545,2.748,2.7435,2.757,2.742,2.7495,2.7525,2.7585,2.7585,2.7585,2.7585,2.757,2.742,2.7435,2.7435,2.7285,2.745,2.757,2.7275,2.7302,2.7218,2.7093,2.6937,2.6794,2.6794,2.6794,2.6794,2.6794,2.6794,2.6794,2.6794,2.6794,2.6794,2.6721,2.6675,2.6341,2.6123,2.5487,2.4791,2.4138,2.3876,2.3615,2.32,2.2888,2.2902,2.2888,2.2888,2.2888,2.2888,2.2888,2.2888,2.2888,2.2888,2.2888,2.2888,2.2706,2.2394,2.1983,2.1541,2.1017,2.0471,2.0169,1.9927,1.9902,1.9851,1.9749,1.9673,1.956,1.961,1.9723,1.9798,1.9798,2.8738,2.9577,2.9217,2.9385,2.9983,3.0313,3.0642,3.0986,3.1346,3.1496,3.1496,3.1496,3.1496,3.1496,3.1496,3.1496,3.1496,3.1496,3.1496,3.1496,3.1496,3.1496,3.1481,3.1496,3.1199,3.1051,3.0876,3.0774,3.0127,2.9381,2.8824,2.8634,2.8668,2.8441,2.8033,2.7973,2.7812,2.7684,2.7549,2.7539,2.7499,2.7499,2.7539,2.7585,2.7585,2.7585,2.7585,2.7585,2.7585,2.7585,2.7585,2.7585,2.7585,2.7585,2.7585,2.7585,2.757,2.757,2.7555,2.7585,2.7585,2.7549,2.7412,2.7233,2.7078,2.6937,2.682,2.6794,2.6794,2.6794,2.6794,2.6794,2.6794,2.6794,2.6794,2.6794,2.6779,2.6806,2.666,2.65,2.6297,2.5589,2.4878,2.437,2.4051,2.3679,2.3287,2.3047,2.2975,2.2888,2.2888,2.2888,2.2888,2.2888,2.2888,2.2888,2.2888,2.2888,2.2888,2.2578,2.2231,2.1793,2.131,2.0919,2.0597,2.0396,2.022,1.9991,1.9799,1.9786,1.9798,1.9798,1.9798,1.9798,1.9798,2.9041,2.9337,2.9007,2.922,2.9831,2.9846,3.0208,3.0793,3.1286,3.1496,3.1496,3.1496,3.1467,3.1467,3.1467,3.1482,3.138,3.1453,3.1438,3.1438,3.1438,3.1482,3.1467,3.1496,3.1496,3.1496,3.1304,3.1217,3.0935,3.0359,2.9699,2.9264,2.9389,2.9089,2.8702,2.8571,2.8454,2.7949,2.7679,2.759,2.756,2.7585,2.76,2.7585,2.7585,2.7585,2.7585,2.7585,2.7585,2.7585,2.7585,2.7585,2.7585,2.7585,2.7585,2.7585,2.7585,2.7585,2.7585,2.7585,2.7585,2.7549,2.7463,2.7273,2.7029,2.6899,2.682,2.682,2.6794,2.6794,2.6794,2.6794,2.6794,2.6794,2.6794,2.6794,2.6779,2.6806,2.6806,2.6689,2.6559,2.65,2.5774,2.495,2.4486,2.4167,2.3751,2.3337,2.3178,2.312,2.2946,2.296,2.2931,2.2917,2.2917,2.2902,2.2902,2.2902,2.2902,2.2849,2.2543,2.2198,2.1779,2.1407,2.1057,2.0497,2.0131,1.9952,1.9798,1.9798,1.9798,1.9798,1.9798,1.9798,1.9798,2.9175,2.8712,2.9292,2.9804,3.0342,3.0432,3.0791,3.1241,3.1436,3.1496,3.1496,3.1496,3.1438,3.138,3.1424,3.1395,3.1161,3.1263,3.1351,3.1351,3.1322,3.1409,3.1467,3.1496,3.1496,3.1496,3.1467,3.1467,3.1437,3.12,3.0681,3.0299,3.0196,2.9892,2.9545,2.9289,2.9044,2.8517,2.8139,2.7854,2.7809,2.7794,2.7779,2.772,2.766,2.76,2.76,2.7615,2.769,2.769,2.763,2.772,2.775,2.763,2.7615,2.7585,2.7585,2.7645,2.7735,2.766,2.7585,2.7549,2.7463,2.7299,2.7067,2.7003,2.6925,2.682,2.6794,2.6794,2.6794,2.6794,2.6794,2.6794,2.6794,2.6794,2.6794,2.6779,2.6779,2.6779,2.6736,2.666,2.6573,2.5749,2.5168,2.4849,2.4471,2.4041,2.3751,2.3606,2.3229,2.3062,2.3026,2.2997,2.2983,2.2983,2.296,2.2989,2.3004,2.3018,2.2927,2.2571,2.2208,2.1935,2.154,2.0751,2.0169,2.0281,2.0279,1.9937,1.9798,1.9798,1.9798,1.9798,1.9798,2.9205,2.8667,2.931,2.9475,2.937,2.9774,3.0313,3.0883,3.1316,3.1496,3.1496,3.1496,3.1409,3.1365,3.1409,3.1424,3.1263,3.1366,3.1424,3.1424,3.1453,3.1467,3.1496,3.1496,3.1496,3.1496,3.1496,3.1496,3.1496,3.1496,3.1377,3.1081,3.0919,3.0534,3.0188,2.9806,2.946,2.9292,2.8992,2.8828,2.8843,2.8828,2.8828,2.8828,2.8334,2.8259,2.8158,2.7794,2.7914,2.8019,2.7839,2.7944,2.8068,2.7884,2.7735,2.772,2.7735,2.7899,2.8053,2.7899,2.76,2.7575,2.7463,2.7384,2.7291,2.7099,2.6966,2.6846,2.6866,2.6968,2.6849,2.6808,2.6794,2.6794,2.6823,2.6852,2.6837,2.6866,2.6794,2.6794,2.6794,2.675,2.6704,2.6559,2.601,2.5531,2.5154,2.4752,2.4471,2.4167,2.3795,2.3548,2.3505,2.3505,2.3505,2.3316,2.3113,2.3149,2.3235,2.3345,2.3418,2.2967,2.2626,2.2366,2.2144,2.1562,2.116,2.0999,2.0685,2.019,1.9899,1.9798,1.9798,1.9798,1.9798,2.9232,2.8727,2.9505,2.949,2.8996,2.9385,3.0058,3.0793,3.1301,3.1496,3.1496,3.1496,3.1438,3.138,3.1438,3.1395,3.1292,3.1351,3.1424,3.1409,3.1409,3.1467,3.1467,3.1496,3.1496,3.1496,3.1496,3.1496,3.1496,3.1496,3.1451,3.1422,3.1379,3.1022,3.0695,3.0167,2.9864,2.9849,2.9681,2.9621,2.9577,2.9547,2.9505,2.9487,2.9056,2.8921,2.8816,2.8603,2.8573,2.8663,2.8618,2.8528,2.8547,2.8502,2.8244,2.8184,2.8244,2.8438,2.8592,2.8532,2.8199,2.8353,2.8256,2.8096,2.7861,2.7718,2.7776,2.7596,2.7472,2.7358,2.7343,2.749,2.7576,2.7692,2.7273,2.7215,2.7084,2.7041,2.6881,2.6794,2.6794,2.6794,2.6765,2.6692,2.6504,2.6025,2.5618,2.5328,2.5139,2.482,2.4486,2.4259,2.4143,2.4181,2.4181,2.4036,2.3911,2.3969,2.4012,2.3983,2.3896,2.3505,2.3126,2.2846,2.2594,2.2359,2.189,2.136,2.0813,2.0289,2.0113,1.9924,1.9798,1.9798,1.9798,2.9205,2.8786,2.9939,3.0103,2.9606,2.9606,3.0313,3.1286,3.1466,3.1496,3.1496,3.1496,3.1438,3.1351,3.1438,3.1351,3.1249,3.1292,3.1336,3.1365,3.138,3.1409,3.1467,3.1496,3.1496,3.1496,3.1496,3.1496,3.1496,3.1496,3.1496,3.1496,3.1452,3.1422,3.1391,3.0808,3.0507,3.0402,2.9953,2.9849,2.9849,2.9879,2.9909,2.9864,2.9654,2.9564,2.949,2.9307,2.9307,2.943,2.9367,2.9337,2.9445,2.937,2.9292,2.9322,2.9382,2.9445,2.9535,2.9547,2.9502,2.9292,2.9044,2.908,2.9166,2.906,2.8735,2.8364,2.8456,2.849,2.8564,2.8549,2.8447,2.8317,2.7897,2.7723,2.7621,2.7621,2.7563,2.7186,2.6924,2.6808,2.6794,2.6779,2.6765,2.6489,2.6123,2.5876,2.572,2.556,2.5255,2.4936,2.4805,2.482,2.482,2.4776,2.4747,2.4766,2.4708,2.4578,2.4563,2.4404,2.3976,2.3508,2.3295,2.3219,2.2406,2.1525,2.1207,2.0928,2.0352,2.0087,1.9924,1.9962,2.0162,2.919,2.8712,2.9968,3.0372,3.0208,3.0193,3.0717,3.1406,3.1496,3.1496,3.1496,3.1496,3.1438,3.138,3.1409,3.1409,3.1292,3.1351,3.1438,3.1438,3.1409,3.1453,3.1511,3.1496,3.1496,3.1496,3.1496,3.1496,3.1496,3.1496,3.1496,3.1496,3.1496,3.1496,3.1466,3.1227,3.1152,3.1137,3.0957,3.0868,3.0851,3.0821,3.0778,3.0761,3.0402,3.0208,3.0163,2.9966,2.9909,3.0088,2.9983,2.9879,3.0028,2.9983,2.9696,2.9666,2.9651,2.9831,3.0193,3.0432,3.0402,2.9998,2.9714,2.9675,2.9416,2.9374,2.9167,2.9032,2.9023,2.8939,2.8708,2.868,2.8651,2.8709,2.8492,2.8521,2.8492,2.8594,2.8521,2.7811,2.7391,2.7055,2.6895,2.6808,2.6794,2.6794,2.6431,2.6428,2.6315,2.6315,2.6141,2.5691,2.5458,2.5458,2.5444,2.5386,2.54,2.5458,2.5216,2.4955,2.4984,2.5158,2.5036,2.4626,2.4374,2.4062,2.3312,2.2605,2.2112,2.1669,2.1329,2.0884,2.0715,2.0815,2.1016,2.934,2.9116,3.0328,3.0851,3.0793,3.0612,3.0896,3.1421,3.1496,3.1496,3.1496,3.1496,3.1467,3.1409,3.1438,3.1467,3.138,3.1438,3.1496,3.1496,3.1496,3.1496,3.1496,3.1496,3.1496,3.1496,3.1496,3.1496,3.1496,3.1496,3.1496,3.1496,3.1496,3.1496,3.1481,3.1451,3.1436,3.1406,3.1331,3.1361,3.1376,3.1406,3.1421,3.1316,3.1092,3.0866,3.0761,3.0582,3.0417,3.0597,3.0567,3.0402,3.0567,3.0522,3.0238,3.0253,3.0313,3.0507,3.0911,3.1107,3.0928,3.0492,3.0283,3.0225,3.0142,3.022,3.005,2.985,2.9547,2.9462,2.9362,2.929,2.929,2.9377,2.9217,2.9218,2.9131,2.9203,2.8913,2.8232,2.7739,2.7362,2.6997,2.6866,2.6794,2.6794,2.6765,2.6794,2.6794,2.6736,2.6718,2.6315,2.6054,2.6083,2.6025,2.5952,2.5995,2.6137,2.5879,2.5549,2.5778,2.5995,2.5879,2.5702,2.5301,2.4843,2.4368,2.3784,2.3295,2.2943,2.2719,2.2247,2.1662,2.1568,2.1644,2.9592,2.9774,3.0943,3.1436,3.1376,3.0823,3.0943,3.1481,3.1496,3.1496,3.1496,3.1496,3.1467,3.1496,3.1496,3.1496,3.1467,3.1496,3.1496,3.1496,3.1496,3.1496,3.1496,3.1496,3.1496,3.1496,3.1496,3.1496,3.1496,3.1496,3.1496,3.1496,3.1496,3.1496,3.1496,3.1496,3.1496,3.1496,3.1496,3.1496,3.1496,3.1496,3.1496,3.1436,3.1361,3.1316,3.1286,3.1241,3.1286,3.1361,3.1376,3.1406,3.1451,3.1481,3.1481,3.1451,3.1376,3.1361,3.1347,3.1423,3.1437,3.1108,3.1243,3.1392,3.1287,3.1007,3.076,3.066,3.0485,3.0484,3.0468,3.0409,3.0366,3.0162,2.99,2.9755,2.961,2.9421,2.9073,2.8594,2.8116,2.7681,2.72,2.6982,2.7041,2.6794,2.6794,2.6794,2.6794,2.6779,2.675,2.6736,2.6576,2.6663,2.6591,2.6387,2.6387,2.6457,2.6559,2.6373,2.6631,2.6602,2.6384,2.6142,2.5962,2.5575,2.5053,2.4719,2.4448,2.4167,2.3665,2.311,2.2375,2.1999,2.1958,2.9187,2.9681,3.0462,3.1047,3.1436,3.1286,3.1346,3.1496,3.1496,3.1496,3.1496,3.1496,3.1496,3.1496,3.1496,3.1496,3.1496,3.1496,3.1496,3.1496,3.1496,3.1496,3.1496,3.1496,3.1496,3.1496,3.1496,3.1496,3.1496,3.1496,3.1496,3.1496,3.1496,3.1496,3.1496,3.1496,3.1496,3.1496,3.1496,3.1496,3.1496,3.1496,3.1496,3.1496,3.1496,3.1496,3.1496,3.1496,3.1496,3.1496,3.1496,3.1496,3.1496,3.1496,3.1496,3.1496,3.1481,3.1452,3.138,3.138,3.1351,3.1336,3.1351,3.1409,3.1409,3.138,3.1234,3.1073,3.0925,3.0762,3.0672,3.0642,3.0642,3.0452,3.0278,3.0235,3.0089,2.9958,2.9624,2.9102,2.8623,2.8159,2.765,2.749,2.7476,2.7041,2.6823,2.6895,2.6823,2.6823,2.6794,2.6794,2.6794,2.6794,2.6794,2.662,2.6692,2.6765,2.6794,2.6794,2.6736,2.6678,2.6675,2.6517,2.6254,2.6014,2.5701,2.5425,2.5189,2.4667,2.4204,2.3654,2.3147,2.2772,2.2468,2.8996,2.9594,2.9968,3.0507,3.1032,3.1092,3.1227,3.1451,3.1496,3.1496,3.1496,3.1496,3.1496,3.1496,3.1496,3.1496,3.1496,3.1496,3.1496,3.1496,3.1496,3.1496,3.1496,3.1496,3.1496,3.1496,3.1496,3.1496,3.1496,3.1496,3.1496,3.1496,3.1496,3.1496,3.1496,3.1496,3.1496,3.1496,3.1496,3.1496,3.1496,3.1496,3.1496,3.1496,3.1496,3.1496,3.1496,3.1496,3.1496,3.1496,3.1496,3.1496,3.1467,3.1467,3.1366,3.1366,3.138,3.1322,3.1263,3.1292,3.1263,3.1263,3.1248,3.1336,3.1351,3.1351,3.1205,3.1073,3.091,3.0747,3.0702,3.0672,3.0642,3.0598,3.0628,3.0657,3.0613,3.0583,3.0161,2.9668,2.9175,2.8753,2.8419,2.8203,2.8071,2.7868,2.7665,2.7549,2.7273,2.6939,2.6852,2.6794,2.6794,2.6794,2.6794,2.6794,2.6794,2.6794,2.6794,2.6794,2.6794,2.6765,2.6721,2.6642,2.6513,2.6299,2.6165,2.6015,2.5783,2.5245,2.4823,2.4445,2.3977,2.3544,2.3284,2.8891,2.9532,2.9592,2.9998,3.0462,3.0552,3.0898,3.1466,3.1496,3.1496,3.1496,3.1496,3.1496,3.1496,3.1496,3.1496,3.1496,3.1496,3.1496,3.1496,3.1496,3.1496,3.1496,3.1496,3.1496,3.1496,3.1496,3.1496,3.1496,3.1496,3.1496,3.1496,3.1496,3.1496,3.1496,3.1496,3.1496,3.1496,3.1496,3.1496,3.1496,3.1496,3.1496,3.1496,3.1496,3.1496,3.1496,3.1496,3.1496,3.1496,3.1467,3.1467,3.1438,3.138,3.1278,3.122,3.1263,3.1176,3.1132,3.1117,3.1117,3.1146,3.1205,3.1234,3.1234,3.1322,3.1234,3.1102,3.0925,3.0747,3.0657,3.0702,3.0672,3.0642,3.0672,3.0672,3.0642,3.0583,3.0409,2.9987,2.9827,2.9377,2.8956,2.871,2.8565,2.8607,2.8433,2.8173,2.794,2.7418,2.7084,2.6953,2.6808,2.6808,2.6794,2.6794,2.6794,2.6794,2.6794,2.6794,2.6794,2.6794,2.6794,2.67,2.6633,2.67,2.6621,2.6447,2.6218,2.5852,2.5453,2.5231,2.4836,2.4292,2.3691,2.8244,2.8876,2.9397,2.9939,3.0477,3.0492,3.0868,3.1481,3.1496,3.1496,3.1496,3.1496,3.1496,3.1496,3.1496,3.1496,3.1496,3.1496,3.1496,3.1496,3.1496,3.1496,3.1496,3.1496,3.1496,3.1496,3.1496,3.1496,3.1496,3.1496,3.1496,3.1496,3.1496,3.1496,3.1496,3.1496,3.1496,3.1496,3.1496,3.1496,3.1496,3.1496,3.1496,3.1496,3.1496,3.1496,3.1496,3.1496,3.1438,3.138,3.1336,3.1351,3.1351,3.1322,3.1292,3.1234,3.1146,3.1029,3.094,3.0955,3.094,3.091,3.094,3.1043,3.1117,3.1219,3.1219,3.1073,3.0925,3.0762,3.0657,3.0702,3.0732,3.0702,3.0672,3.0642,3.0612,3.0554,3.051,3.0438,3.0351,2.9987,2.9537,2.929,2.9102,2.8913,2.8738,2.8578,2.8565,2.8231,2.7636,2.7374,2.691,2.6823,2.6808,2.6794,2.6794,2.6794,2.6794,2.6794,2.6794,2.6794,2.6794,2.6794,2.6779,2.6794,2.6794,2.6753,2.65,2.6233,2.6084,2.5852,2.5342,2.4794,2.4076,2.8169,2.9041,2.9457,2.9801,3.0058,3.0103,3.0642,3.1391,3.1496,3.1496,3.1496,3.1496,3.1496,3.1496,3.1496,3.1496,3.1496,3.1496,3.1496,3.1496,3.1496,3.1496,3.1496,3.1496,3.1496,3.1496,3.1496,3.1496,3.1496,3.1496,3.1496,3.1511,3.1511,3.1525,3.1525,3.1511,3.1555,3.1496,3.1555,3.1555,3.1555,3.1511,3.1496,3.1496,3.1496,3.1496,3.1496,3.1496,3.1409,3.1292,3.1234,3.1117,3.1087,3.1058,3.1029,3.0999,3.094,3.0881,3.0791,3.0762,3.0762,3.0762,3.0791,3.0925,3.0955,3.1058,3.1087,3.0955,3.0791,3.0628,3.0628,3.0642,3.0672,3.0642,3.0642,3.0612,3.0612,3.0583,3.0569,3.0539,3.0481,3.0409,3.0089,3.0075,2.9915,2.99,2.9595,2.9218,2.9174,2.9058,2.8463,2.794,2.7549,2.7012,2.6794,2.6794,2.6794,2.6794,2.6837,2.6794,2.6794,2.6794,2.6794,2.6794,2.6794,2.6794,2.6794,2.6794,2.6753,2.6515,2.6474,2.6447,2.5879,2.53,2.4681,2.8259,2.9292,2.9322,2.937,2.9517,2.9592,3.0268,3.1241,3.1466,3.1496,3.1496,3.1496,3.1496,3.1496,3.1496,3.1496,3.1496,3.1496,3.1496,3.1496,3.1496,3.1496,3.1496,3.1496,3.1496,3.1496,3.1496,3.1496,3.1496,3.1496,3.1511,3.1525,3.1585,3.1645,3.1645,3.1765,3.1944,3.2004,3.2004,3.1824,3.169,3.1525,3.1511,3.1496,3.1496,3.1496,3.1496,3.1467,3.1409,3.1263,3.1117,3.0999,3.091,3.0881,3.0821,3.0791,3.0791,3.0732,3.0672,3.0702,3.0672,3.0672,3.0732,3.0791,3.0836,3.0866,3.0895,3.0821,3.0657,3.0628,3.0612,3.0612,3.0612,3.0612,3.0612,3.0612,3.0612,3.0612,3.0612,3.0612,3.0598,3.0583,3.0583,3.0583,3.0583,3.0598,3.0481,3.019,2.9914,2.9711,2.9334,2.8855,2.8434,2.7853,2.7258,2.7012,2.7099,2.6982,2.7026,2.6881,2.6794,2.6794,2.6794,2.6794,2.6794,2.6794,2.6794,2.6794,2.6753,2.6727,2.67,2.6621,2.634,2.5797,2.5328,2.7735,2.7974,2.7989,2.8319,2.8861,2.9382,3.0013,3.0717,3.1286,3.1496,3.1496,3.1496,3.1496,3.1496,3.1496,3.1496,3.1496,3.1496,3.1496,3.1496,3.1496,3.1496,3.1496,3.1496,3.1496,3.1496,3.1496,3.1496,3.1496,3.1496,3.1496,3.1511,3.2123,3.2273,3.2363,3.2557,3.2901,3.2871,3.2826,3.2751,3.2183,3.1929,3.154,3.1496,3.1496,3.1496,3.1496,3.1496,3.1366,3.1161,3.0999,3.0895,3.0836,3.0791,3.0762,3.0702,3.0702,3.0642,3.0642,3.0672,3.0642,3.0642,3.0672,3.0672,3.0702,3.0702,3.0702,3.0732,3.0642,3.0642,3.0642,3.0612,3.0612,3.0598,3.0598,3.0642,3.0642,3.0612,3.0612,3.0612,3.0598,3.0598,3.0598,3.0598,3.0598,3.0612,3.0612,3.038,3.0351,3.0219,3.0089,2.9711,2.9233,2.8927,2.8434,2.7723,2.7578,2.7403,2.7157,2.6924,2.6794,2.6794,2.6794,2.6794,2.6794,2.6794,2.6794,2.6794,2.6779,2.6753,2.6779,2.67,2.6515,2.626,2.5811]}]]